     2              OBSERVATION DATA    GPS                 RINEX VERSION / TYPE
ASHTORIN MIT 28 - OCT - 96 10:57                            PGM / RUN BY / DATE
                                                            COMMENT
CHINA LAKE 1996 P-Code Ashtech data EXPT #2                 COMMENT
Original Marker Name: GS09                                  COMMENT
Campaign Name: China Lake Nov 1996                          COMMENT
4-Character Station Name: GS09                              COMMENT
6-Character Antenna Code: ASHP12                            COMMENT
Vertical Measurement Point: TGP                             COMMENT
Vertical Offset to Rinex Ref. Point: 0.0640                 COMMENT
Radial Measurement Point: RRP                               COMMENT
Radial Offset to Rinex Ref. Point: 0.0000                   COMMENT
Antenna Height from Field Measurement: 0.2250 m             COMMENT
Additional Antenna Identification Info.:                    COMMENT
Ashtech L1/L2 Revision B (700228DE)                         COMMENT
Original XYZ: -2455781.9300 -4602727.8900 3658823.2300      COMMENT
New XYZ position is based on association with SCEC monument COMMENT
E1F2Q3B6+0011. Position of that monument is believed to be  COMMENT
valid to within 1 m horizontally; vertical accuracy         COMMENT
should be no worse than 3-times this value.                 COMMENT
                                                            COMMENT
Revised Rinex header created by UCSD GPS archive for        COMMENT
GSAC on 31-Jul-2000 (2000:213) 22:35:46 GMT                 COMMENT
For assistance contact dagnew@ucsd.edu                      COMMENT
or anderson@python.ucsd.edu                                 COMMENT
                                                            COMMENT
GO09                                                        MARKER NAME
                                                            MARKER NUMBER
JDT US DEFENSE MAPPING AGENCY                               OBSERVER / AGENCY
448 ASHTECH Z-XII3 1G001C7                                  REC # / TYPE / VERS
812 ASHTECH GEODETIC P                                      ANT # / TYPE
 -2444121.1492 -4616592.8130  3648770.5806                  APPROX POSITION XYZ
        0.1610        0.0000        0.0000                  ANTENNA: DELTA H/E/N
     1     1     0                                          WAVELENGTH FACT L1/2
     7    L1    L2    C1    P1    P2    D1    D2            # / TYPES OF OBSERV
    30                                                      INTERVAL
  1996    10     7    15    28   30.000000                  TIME OF FIRST OBS
  1996    10     7    21    30    0.000000                  TIME OF LAST OBS
                                                            END OF HEADER
 96 10  7 15 28 30.0000000  0  6  6 22 23 26 17 28                  -0.000619279
     73140.24819     18036.75058  28899424.673    28899426.0475   28899433.1425
      -565.844        -440.917
   -119035.70519    -86667.13857  32339839.880    32339838.4815   32339846.7925
      1359.950        1059.701
   -195398.97719   -138344.95158  30315432.336    30315433.4965   30315441.3585
      2371.269        1847.742
   -108904.92519    -78987.93558  30947057.339    30947058.3385   30947065.6215
      1237.638         964.393
   -158918.07019   -116205.71258  29614441.403    29614440.9865   29614448.9855
      1144.518         891.832
   -242593.48319   -167707.15219  31240189.261    31240190.8451   31240198.0511
      3142.055        2448.354
 96 10  7 15 29  0.0000000  0  6  6 22 23 26 17 28                   0.000738471
     90418.321 9     31500.17348  20508524.233    20508525.1134   20508532.2224
      -584.297        -455.296
   -159577.279 9   -118257.98757  23937930.961    23937934.8925   23937943.1655
      1340.997        1044.933
   -266364.639 9   -193642.84858  21907739.549    21907740.3665   21907748.1975
      2355.956        1835.810
   -145766.977 9   -107711.61458  22545845.229    22545854.9355   22545862.1855
      1218.214         949.258
   -193131.445 9   -142865.47848  21213741.466    21213741.5874   21213749.5804
      1134.982         884.402
   -336807.600 9   -241120.73419  22828071.874    22828073.6411   22828080.9051
      3133.754        2441.886
 96 10  7 15 29 30.0000000  0  7 30  6 22 23 26 17 28                0.000736218
    302850.49619    212504.46656  24155122.651    24155120.9845   24155128.6495
     -3400.498       -2649.739
    108252.602 9     45397.00548  20511917.974    20511918.8044   20511925.9184
      -604.183        -470.792
   -199511.541 9   -149375.61247  23930333.477    23930335.9244   23930344.0644
      1321.734        1029.923
   -336790.200 9   -248519.89648  21894337.678    21894338.8064   21894346.6434
      2339.684        1823.130
   -182002.464 9   -135947.06248  22538954.702    22538959.6684   22538966.8254
      1197.979         933.490
   -227022.402 9   -169274.01448  21207292.084    21207292.4074   21207300.3844
      1124.964         876.595
   -430680.955 9   -314268.792 9  22810208.278    22810210.125    22810217.446
      3125.017        2435.078
 96 10  7 15 30  0.0000000  0  7 30  6 22 23 26 17 28                0.000734021
    404922.959 9    292041.40256  24174548.125    24174544.6755   24174552.4405
     -3404.354       -2652.743
    126685.667 9     59760.42248  20515425.765    20515426.5024   20515433.5984
      -624.499        -486.623
   -238858.778 9   -180035.80247  23922846.961    23922848.4264   23922856.5984
      1301.557        1014.200
   -406731.866 9   -303019.87748  21881028.337    21881029.3084   21881037.1474
      2323.217        1810.299
   -217632.217 9   -163710.51148  22532176.191    22532179.5814   22532186.7224
      1177.301         917.377
   -260617.214 9   -195451.78548  21200899.046    21200899.5324   21200907.5274
      1114.789         868.667
   -524294.811 9   -387214.648 9  22792394.491    22792396.034    22792403.338
      3115.966        2428.025
 96 10  7 15 30 30.0000000  0  7 30  6 22 23 26 17 28                0.000731858
    507111.416 9    371668.71646  24193991.361    24193990.3864   24193998.3084
     -3408.301       -2655.819
    145726.171 9     74597.16748  20519049.077    20519049.8134   20519056.9294
      -645.059        -502.643
   -277607.835 9   -210229.89947  23915473.422    23915474.7604   23915482.9224
      1281.604         998.652
   -476185.098 9   -357139.27148  21867811.824    21867812.7864   21867820.6584
      2306.961        1797.632
   -252634.457 9   -190984.98948  22525515.965    22525518.8774   22525526.0324
      1156.130         900.881
   -293912.295 9   -221396.00048  21194563.133    21194563.7064   21194571.7104
      1104.740         860.836
   -617637.248 9   -459949.012 9  22774632.265    22774633.599    22774640.869
      3106.728        2420.827
 96 10  7 15 31  0.0000000  0  7 30  6 22 23 26 17 28                0.000729732
    609406.900 9    451379.43446  24213455.880    24213456.3964   24213464.4914
     -3411.841       -2658.577
    165370.831 9     89904.68748  20522787.385    20522788.0584   20522795.2124
      -664.916        -518.116
   -315770.168 9   -239966.78847  23908211.851    23908212.7644   23908220.8664
      1262.115         983.466
   -545170.888 9   -410894.41948  21854684.345    21854685.2584   21854693.1334
      2291.730        1785.764
   -287017.788 9   -217777.19648  22518973.210    22518976.0374   22518983.1134
      1135.774         885.019
   -326909.134 9   -247107.82448  21188284.011    21188284.6324   21188292.6504
      1094.666         852.986
   -710714.010 9   -532476.355 9  22756920.498    22756921.712    22756928.964
      3097.924        2413.967
 96 10  7 15 31 30.0000000  0  8 10 30  6 22 23 26 17 28             0.000727649
    322091.63919    210169.40556  25043864.700           0.0005   25043875.7885
     -3364.073       -2621.356
    711798.245 9    531164.85146  24232939.880    24232940.6904   24232949.0314
     -3414.010       -2660.267
    185604.924 9    105671.50348  20526637.776    20526638.4264   20526645.6424
      -683.673        -532.732
   -353349.767 9   -269249.60747  23901060.947    23901061.6634   23901069.7264
      1243.414         968.894
   -613711.324 9   -464302.53648  21841641.548    21841642.4614   21841650.3264
      2277.894        1774.982
   -320796.783 9   -244098.50248  22512545.837    22512548.1354   22512555.2114
      1116.324         869.863
   -359609.270 9   -272588.44848  21182061.449    21182062.0474   21182070.0274
      1085.579         845.906
   -803531.054 9   -604801.318 9  22739258.276    22739259.204    22739266.450
      3089.930        2407.738
 96 10  7 15 32  0.0000000  0  8 10 30  6 22 23 26 17 28             0.000725607
    423059.030 8    288845.29546  25063080.584    25063080.4635   25063089.4124
     -3367.203       -2623.794
    814252.670 9    610999.40846  24252436.355    24252437.0304   24252445.5224
     -3416.221       -2661.990
    206382.716 9    121861.98248  20530591.652    20530592.3874   20530599.5184
      -701.395        -546.542
   -390375.094 9   -298100.53547  23894015.554    23894016.0164   23894024.0984
      1225.156         954.667
   -681847.285 9   -517395.47748  21828675.806    21828676.6364   21828684.4854
      2264.417        1764.481
   -353999.472 9   -269970.73648  22506227.866    22506229.9134   22506237.0084
      1097.311         855.048
   -392045.145 9   -297863.15548  21175889.140    21175889.7674   21175897.6884
      1076.841         839.097
   -896108.744 9   -676939.773 9  22721641.263    22721642.230    22721649.485
      3081.973        2401.537
 96 10  7 15 32 30.0000000  0  8 10 30  6 22 23 26 17 28             0.000723594
    524114.838 9    367590.04156  25082309.768    25082310.9734   25082319.8065
     -3370.045       -2626.009
    916759.872 9    690875.10146  24271942.854    24271943.6234   24271952.1694
     -3417.626       -2663.085
    227682.353 9    138459.08848  20534644.960    20534645.6514   20534652.7454
      -718.737        -560.055
   -426869.372 9   -326537.63447  23887070.874    23887071.3864   23887079.5844
      1207.656         941.031
   -749579.105 9   -570173.50548  21815786.907    21815787.7314   21815795.5594
      2250.916        1753.961
   -386638.953 9   -295404.09948  22500016.870    22500018.9594   22500025.9744
      1078.606         840.472
   -424226.432 9   -322939.48548  21169765.267    21169765.9104   21169773.8284
      1068.683         832.740
   -988454.811 9   -748897.743 9  22704068.498    22704069.377    22704076.590
      3074.373        2395.615
 96 10  7 15 33  0.0000000  0  8 10 30  6 22 23 26 17 28             0.000721607
    625252.351 9    446398.48646  25101555.936    25101556.7975   25101565.8824
     -3372.165       -2627.661
   1019307.365 9    770782.18646  24291457.187    24291457.9434   24291466.3954
     -3418.600       -2663.844
    249501.027 9    155460.64548  20538796.953    20538797.6214   20538804.7744
      -735.511        -573.125
   -462837.839 9   -354565.01847  23880226.474    23880226.8484   23880235.0764
      1190.354         927.548
   -816901.812 9   -622632.74148  21802976.082    21802976.7094   21802984.4674
      2237.303        1743.353
   -418720.644 9   -320402.80748  22493911.799    22493914.0754   22493921.0214
      1060.332         826.233
   -456173.274 9   -347833.12848  21163685.961    21163686.6504   21163694.5774
      1061.459         827.111
  -1080575.903 9   -820680.410 9  22686538.444    22686539.349    22686546.532
      3067.260        2390.073
 96 10  7 15 33 30.0000000  0  8 10 30  6 22 23 26 17 28             0.000719648
    726449.771 9    525253.58646  25120813.031    25120813.8794   25120823.0804
     -3374.276       -2629.306
   1121882.775 9    850711.02446  24310977.158    24310977.5724   24310985.8534
     -3419.641       -2664.655
    271827.448 9    172857.85148  20543045.377    20543046.1974   20543053.3724
      -752.853        -586.639
   -498279.851 9   -382182.18647  23873482.234    23873482.4854   23873490.6444
      1172.421         913.575
   -883800.837 9   -674761.83648  21790245.662    21790246.2834   21790253.9984
      2222.694        1731.969
   -450246.519 9   -344968.44648  22487913.073    22487914.9374   22487921.8754
      1041.427         811.502
   -487906.406 9   -372560.24248  21157647.357    21157648.0584   21157655.9794
      1054.118         821.391
  -1172479.092 9   -892293.283 9  22669049.906    22669050.791    22669057.960
      3059.624        2384.122
 96 10  7 15 34  0.0000000  0  8 10 30  6 22 23 26 17 28             0.000717716
    827706.059 9    604154.56346  25140081.616    25140082.2534   25140091.4564
     -3376.451       -2631.001
   1224490.106 9    930664.72946  24330502.658    24330503.1204   24330511.3044
     -3421.147       -2665.829
    294677.105 9    190662.76648  20547393.616    20547394.4094   20547401.5274
      -770.896        -600.698
   -533182.252 9   -409378.88647  23866840.512    23866840.7814   23866848.9994
      1154.044         899.255
   -950261.389 9   -726549.26948  21777598.704    21777599.2874   21777606.9774
      2207.715        1720.297
   -481201.047 9   -369088.85648  22482023.101    22482024.5784   22482031.4814
      1022.025         796.383
   -519414.872 9   -397112.29448  21151651.485    21151652.2544   21151660.1504
      1046.070         815.119
  -1264156.138 9   -963729.938 9  22651604.501    22651605.250    22651612.423
      3051.814        2378.037
 96 10  7 15 34 30.0000000  0  8 10 30  6 22 23 26 17 28             0.000715817
    929017.227 9    683098.33046  25159361.043    25159361.2324   25159370.3124
     -3377.758       -2632.019
   1327141.371 9   1010652.67546  24350035.992    24350037.0754   24350045.1744
     -3422.281       -2666.712
    318079.803 9    208898.62948  20551847.040    20551847.8144   20551854.9604
      -789.216        -614.974
   -567523.446 9   -436138.26947  23860305.463    23860305.9014   23860314.0984
      1135.214         884.582
  -1016276.591 9   -777989.67648  21765036.566    21765037.0454   21765044.7074
      2193.322        1709.082
   -511566.938 9   -392750.58648  22476244.959    22476246.1504   22476253.0784
      1002.454         781.133
   -550677.115 9   -421472.48148  21145702.639    21145703.2884   21145711.1414
      1038.055         808.874
  -1355594.526 9  -1034980.619 9  22634204.443    22634205.116    22634212.300
      3044.052        2371.988
 96 10  7 15 35  0.0000000  0  8 10 30  6 22 23 26 17 28             0.000713976
   1030403.645 9    762100.71846  25178654.173    25178654.5294   25178663.5154
     -3381.667       -2635.065
   1429864.469 9   1090696.59446  24369583.978    24369584.7174   24369592.7404
     -3426.124       -2669.707
    342057.458 9    227582.51448  20556409.915    20556410.6694   20556417.8524
      -809.631        -630.881
   -601260.683 9   -462427.04547  23853885.471    23853885.9514   23853894.1324
      1113.572         867.718
  -1081834.407 9   -829073.67148  21752561.384    21752561.8514   21752569.4944
      2176.854        1696.250
   -541319.777 9   -415934.61648  22470583.135    22470584.2974   22470591.3024
       980.752         764.222
   -581660.718 9   -445615.54548  21139806.697    21139807.3394   21139815.2124
      1027.047         800.296
  -1446765.944 9  -1106023.272 9  22616855.163    22616855.786    22616862.984
      3033.693        2363.917
 96 10  7 15 35 30.0000000  0  8 10 30  6 22 23 26 17 28             0.000712235
   1131934.138 9    841215.37746  25197975.205    25197975.1674   25197984.1804
     -3387.491       -2639.603
   1532727.209 9   1170849.33046  24389158.686    24389158.8614   24389166.9214
     -3431.695       -2674.048
    366675.261 9    246765.21348  20561094.446    20561095.2724   20561102.4694
      -831.913        -648.244
   -634321.358 9   -488188.61747  23847594.205    23847594.7924   23847602.9344
      1090.186         849.495
  -1146875.961 9   -879755.38748  21740184.537    21740184.8624   21740192.5334
      2159.017        1682.351
   -570391.289 9   -438587.73748  22465051.108    22465052.2254   22465059.1834
       957.034         745.741
   -612277.437 9   -469472.73548  21133980.528    21133981.1564   21133989.0444
      1013.805         789.978
  -1537599.214 9  -1176802.438 9  22599570.230    22599570.815    22599578.009
      3021.487        2354.405
 96 10  7 15 36  0.0000000  0  8 10 30  6 22 23 26 17 28             0.000710636
   1233674.761 9    920493.75746  25217336.272    25217335.8104   25217344.7894
     -3395.514       -2645.855
   1635799.100 9   1251165.04846  24408772.367    24408772.8394   24408780.9204
     -3439.814       -2680.375
    392003.187 9    266501.25248  20565914.166    20565915.0204   20565922.2084
      -856.701        -667.559
   -666643.145 9   -513374.42347  23841443.597    23841444.1984   23841452.3374
      1064.417         829.416
  -1211350.442 9   -929995.23348  21727915.270    21727915.7784   21727923.4934
      2139.032        1666.778
   -598716.991 9   -460659.70548  22459661.211    22459662.1094   22459669.0374
       931.246         725.646
   -642461.245 9   -492992.57948  21128236.770    21128237.3884   21128245.2544
       998.329         777.919
  -1628025.121 9  -1247264.171 9  22582362.804    22582363.359    22582370.558
      3006.716        2342.896
 96 10  7 15 36 30.0000000  0  8 10 30  6 22 23 26 17 28             0.000709198
   1335659.465 9    999962.30446  25236743.181    25236743.0264   25236751.8044
     -3403.659       -2652.202
   1739108.015 9   1331665.45146  24428431.360    24428431.9334   24428440.0314
     -3447.503       -2686.366
    418071.651 9    286814.33648  20570874.997    20570875.7404   20570882.8954
      -881.164        -686.621
   -698188.213 9   -537955.01447  23835440.871    23835441.4124   23835449.5414
      1038.471         809.198
  -1275217.741 9   -979761.94448  21715761.820    21715762.2564   21715769.9934
      2118.438        1650.731
   -626269.998 9   -482129.56048  22454418.069    22454418.8744   22454425.8994
       905.538         705.614
   -672183.659 9   -516152.89948  21122580.846    21122581.3884   21122589.2854
       983.088         766.043
  -1718003.603 9  -1317377.261 9  22565240.486    22565241.061    22565248.237
      2991.723        2331.213
 96 10  7 15 37  0.0000000  0  8 10 30  6 22 23 26 17 28             0.000707922
   1437891.585 9   1079623.66746  25256197.636    25256197.2974   25256205.9204
     -3411.497       -2658.309
   1842646.355 9   1412344.63046  24448134.182    24448134.6544   24448142.8674
     -3454.774       -2692.032
    444867.391 9    307694.12548  20575974.095    20575974.8454   20575982.0194
      -905.231        -705.375
   -728959.016 9   -561932.27947  23829585.395    23829585.9254   23829594.0674
      1013.159         789.475
  -1338450.515 9  -1029034.22548  21703728.948    21703729.4634   21703737.2264
      2097.200        1634.182
   -653047.495 9   -502995.13948  22449321.761    22449323.2654   22449330.3044
       879.634         685.429
   -701448.257 9   -538956.48248  21117011.909    21117012.5174   21117020.4214
       968.071         754.341
  -1807529.540 9  -1387137.724 9  22548204.494    22548204.893    22548212.034
      2976.810        2319.592
 96 10  7 15 37 30.0000000  0  8 10 30  6 22 23 26 17 28             0.000706784
   1540323.489 9   1159440.64446  25275689.617    25275689.5384   25275698.1784
     -3416.997       -2662.595
   1946367.982 9   1493166.63746  24467871.434    24467872.2414   24467880.5904
     -3459.540       -2695.745
    472368.259 9    329123.35848  20581207.450    20581208.1744   20581215.2884
      -927.722        -722.900
   -759004.399 9   -585344.27247  23823868.139    23823868.4524   23823876.6054
       990.245         771.619
  -1401068.745 9  -1077827.63848  21691812.981    21691813.6164   21691821.3904
      2077.830        1619.088
   -679067.856 9   -523270.72448  22444370.698    22444371.8294   22444378.8004
       855.571         666.679
   -730294.082 9   -561433.75048  21111522.740    21111523.3524   21111531.2524
       955.549         744.584
  -1896634.120 9  -1456569.855 9  22531248.256    22531248.888    22531255.993
      2963.916        2309.545
 96 10  7 15 38  0.0000000  0  8 10 30  6 22 23 26 17 28             0.000705735
   1642901.492 9   1239371.49346  25295209.478    25295209.6664   25295218.1854
     -3421.252       -2665.911
   2050197.096 9   1574072.38646  24487629.633    24487630.2524   24487638.7974
     -3461.955       -2697.627
    500518.237 9    351058.39748  20586564.259    20586564.9874   20586572.0724
      -948.576        -739.150
   -788387.477 9   -608240.17447  23818276.713    23818277.0374   23818285.2444
       968.949         755.025
  -1463130.663 9  -1126187.55848  21680002.958    21680003.6164   21680011.4294
      2059.934        1605.143
   -704400.150 9   -543010.16248  22439550.139    22439551.2424   22439558.2554
       833.537         649.509
   -758790.918 9   -583639.07648  21106099.981    21106100.5874   21106108.5084
       944.636         736.080
  -1985375.281 9  -1525718.798 9  22514361.428    22514362.011    22514369.116
      2952.471        2300.627
 96 10  7 15 38 30.0000000  0  8 10 30  6 22 23 26 17 28             0.000704747
   1745597.602 9   1319394.39746  25314751.882    25314752.1614   25314760.6084
     -3424.783       -2668.662
   2154087.152 9   1655025.62046  24507399.205    24507399.9074   24507408.4844
     -3463.751       -2699.027
    529287.998 9    373476.38548  20592038.994    20592039.6894   20592046.8124
      -969.030        -755.088
   -817151.807 9   -630653.94647  23812803.166    23812803.4774   23812811.5684
       949.067         739.533
  -1524658.583 9  -1174131.37648  21668294.646    21668295.2674   21668303.0354
      2042.355        1591.445
   -729069.973 9   -562233.38748  22434855.346    22434856.7574   22434863.7224
       811.463         632.309
   -786971.466 9   -605597.94348  21100737.407    21100738.0284   21100745.9424
       934.349         728.064
  -2073781.438 9  -1594606.699 9  22497538.291    22497538.869    22497545.999
      2941.651        2292.196
 96 10  7 15 39  0.0000000  0  8 10 30  6 22 23 26 17 28             0.000703799
   1848373.093 9   1399479.12946  25334309.888    25334309.7834   25334318.1774
     -3427.115       -2670.479
   2258016.069 9   1736009.16046  24527175.637    24527176.9004   24527185.5994
     -3464.840       -2699.875
    558654.652 9    396359.48748  20597627.253    20597627.9814   20597635.1504
      -988.858        -770.539
   -845350.098 9   -652626.65747  23807437.404    23807437.5904   23807445.6434
       930.862         725.347
  -1585685.220 9  -1221684.58348  21656681.602    21656682.2814   21656689.9774
      2026.422        1579.030
   -753095.610 9   -580954.64048  22430283.634    22430284.8864   22430291.7614
       790.287         615.808
   -814862.089 9   -627330.89048  21095430.016    21095430.6564   21095438.5414
       925.134         720.884
  -2161884.484 9  -1663258.414 9  22480772.828    22480773.427    22480780.521
      2931.872        2284.575
 96 10  7 15 39 30.0000000  0  8 10 30  6 22 23 26 17 28             0.000702881
   1951224.728 9   1479623.18846  25353881.967    25353881.7804   25353890.2784
     -3429.578       -2672.398
   2361979.868 9   1817019.85746  24546959.094    24546960.6414   24546969.4124
     -3465.790       -2700.616
    588626.723 9    419714.34548  20603330.703    20603331.4674   20603338.6804
     -1008.871        -786.133
   -872996.186 9   -674169.06447  23802176.559    23802176.7324   23802184.7914
       912.387         710.951
  -1646247.800 9  -1268876.18948  21645156.813    21645157.5684   21645165.2844
      2011.437        1567.354
   -776490.596 9   -599184.47548  22425831.975    22425832.9604   22425839.8144
       769.901         599.923
   -842472.623 9   -648845.59048  21090175.995    21090176.6114   21090184.4264
       915.941         713.720
  -2249690.526 9  -1731678.694 9  22464063.839    22464064.491    22464071.566
      2922.126        2276.981
 96 10  7 15 40  0.0000000  0  8 10 30  6 22 23 26 17 28             0.000701993
   2054153.137 9   1559827.11046  25373468.909    25373468.5974   25373476.9904
     -3431.870       -2674.184
   2465981.561 8   1898060.08546  24566750.752    24566751.5144   24566760.4064
     -3467.373       -2701.849
    619193.054 9    443532.25748  20609147.354    20609148.0614   20609155.2684
     -1028.354        -801.315
   -900079.843 9   -695273.21347  23797022.876    23797022.8724   23797030.9334
       893.583         696.298
  -1706356.969 9  -1315714.48548  21633718.445    21633719.1924   21633726.9034
      1996.125        1555.422
   -799274.669 9   -616938.28248  22421496.006    22421497.2754   22421504.1274
       749.246         583.828
   -869805.479 9   -670143.91748  21084974.750    21084975.3874   21084983.1734
       906.609         706.449
  -2337197.447 9  -1799865.897 9  22447411.768    22447412.488    22447419.527
      2912.029        2269.113
 96 10  7 15 40 30.0000000  0  8 10 30  6 22 23 26 17 28             0.000701142
   2157125.450 9   1640065.22346  25393063.942    25393063.6234   25393072.0824
     -3433.456       -2675.420
   2570024.095 8   1979132.15746  24586549.196    24586550.2044   24586559.2364
     -3469.177       -2703.255
    650323.666 9    467789.86748  20615071.375    20615072.0574   20615079.2334
     -1047.310        -816.086
   -926618.656 9   -715952.81547  23791972.338    23791972.6744   23791980.7804
       875.039         681.849
  -1766020.243 9  -1362205.33548  21622365.034    21622365.6884   21622373.3544
      1981.070        1543.691
   -821446.281 9   -634214.84148  22417276.746    22417278.1834   22417284.9664
       728.556         567.706
   -896877.949 9   -691239.34648  21079823.081    21079823.6744   21079831.4524
       897.749         699.545
  -2424418.754 9  -1867830.540 9  22430814.137    22430814.841    22430821.855
      2902.326        2261.553
 96 10  7 15 41  0.0000000  0  8 10 30  6 22 23 26 17 28             0.000700341
   2260156.472 9   1720349.08646  25412670.030    25412669.8564   25412678.2134
     -3435.058       -2676.669
   2674115.147 8   2060242.01946  24606356.810    24606358.1244   24606367.1284
     -3469.879       -2703.802
    682021.441 9    492489.42648  20621103.238    20621103.9584   20621111.1564
     -1065.664        -830.388
   -952577.306 9   -736180.34547  23787032.407    23787032.9474   23787041.0544
       855.713         666.789
  -1825236.442 9  -1408347.80648  21611096.621    21611097.2224   21611104.8294
      1966.977        1532.709
   -843002.012 9   -651011.49348  22413174.128    22413176.2054   22413183.0044
       708.855         552.355
   -923683.169 9   -712126.52948  21074722.291    21074722.8014   21074730.6004
       889.687         693.263
  -2511344.591 9  -1935564.947 9  22414272.660    22414273.431    22414280.451
      2892.973        2254.265
 96 10  7 15 41 30.0000000  0  7 30  6 22 23 26 17 28                0.000699586
   2778216.194 9   2141359.68846  24626166.615    24626167.8034   24626177.0934
     -3470.026       -2703.916
    714261.186 9    517611.30148  20627238.178    20627238.9664   20627246.1854
     -1083.372        -844.186
   -977948.368 9   -755950.01047  23782204.557    23782205.0124   23782213.0954
       835.764         651.245
  -1884036.222 9  -1454165.80248  21599907.407    21599908.0144   21599915.5744
      1952.931        1521.764
   -863980.160 9   -667358.08148  22409182.716    22409184.1544   22409191.0184
       689.733         537.454
   -950258.588 9   -732834.64948  21069665.081    21069665.6594   21069673.4894
       882.176         687.410
  -2597994.067 9  -2003084.008 9  22397783.963    22397784.625    22397791.594
      2883.782        2247.103
 96 10  7 15 42  0.0000000  0  7 30  6 22 23 26 17 28                0.000698884
   2882325.564 8   2222483.83046  24645978.327    24645979.1534   24645988.5124
     -3470.033       -2703.922
    747031.680 9    543146.74148  20633474.328    20633475.0464   20633482.2244
     -1100.873        -857.823
  -1002719.241 9   -775251.99047  23777490.924    23777491.2944   23777499.4034
       816.245         636.035
  -1942398.171 9  -1499642.63048  21588801.573    21588802.1254   21588809.7004
      1938.387        1510.431
   -884367.171 9   -683244.04248  22405304.198    22405304.6584   22405311.5564
       669.814         521.933
   -976606.616 9   -753365.58148  21064651.291    21064651.7844   21064659.6094
       874.899         681.739
  -2684364.930 9  -2070385.963 9  22381348.183    22381348.844    22381355.768
      2874.722        2240.043
 96 10  7 15 42 30.0000000  0  7 30  6 22 23 26 17 28                0.000698221
   2986425.383 8   2303600.53746  24665787.976    24665788.7614   24665798.0974
     -3469.265       -2703.323
    780337.273 9    569099.14048  20639812.288    20639812.9604   20639820.0884
     -1119.015        -871.960
  -1026907.607 9   -794100.07347  23772887.887    23772888.3864   23772896.6174
       796.875         620.942
  -2000329.682 9  -1544784.05348  21577777.659    21577778.1164   21577785.7564
      1924.297        1499.452
   -904159.277 9   -698666.43848  22401538.067    22401538.3914   22401545.2544
       650.400         506.805
  -1002739.618 9   -773728.96248  21059678.403    21059678.8744   21059686.6544
       867.764         676.180
  -2770467.204 9  -2137478.630 9  22364963.472    22364964.164    22364971.027
      2865.917        2233.182
 96 10  7 15 43  0.0000000  0  7 30  6 22 23 26 17 28                0.000697575
   3090473.870 8   2384677.23446  24685587.495    24685588.6004   24685597.8844
     -3467.122       -2701.654
    814171.429 9    595463.41248  20646250.680    20646251.4204   20646258.5444
     -1136.232        -885.375
  -1050527.697 9   -812505.35447  23768392.989    23768393.6544   23768401.8644
       778.308         606.474
  -2057861.050 9  -1589613.67848  21566829.658    21566830.2234   21566837.8794
      1911.420        1489.418
   -923389.704 9   -713651.16448  22397879.231    22397878.9324   22397885.8024
       631.912         492.399
  -1028672.945 9   -793936.74848  21054743.581    21054743.9894   21054751.7424
       861.445         671.256
  -2856320.112 9  -2204376.984 9  22348626.189    22348626.925    22348633.766
      2857.889        2226.926
 96 10  7 15 43 30.0000000  0  7 30  6 22 23 26 17 28                0.000696941
   3194467.056 8   2465710.87146  24705377.172    24705377.8534   24705387.1044
     -3465.493       -2700.384
    848512.614 9    622222.77348  20652785.649    20652786.3744   20652793.4814
     -1152.799        -898.285
  -1073605.036 9   -830487.70547  23764001.699    23764002.2164   23764010.4074
       760.492         592.591
  -2115001.346 9  -1634138.56948  21555956.139    21555956.8154   21555964.4214
      1898.077        1479.021
   -942060.085 9   -728199.48648  22394326.048    22394326.0514   22394332.9504
       612.864         477.556
  -1054410.650 9   -813992.10048  21049845.875    21049846.2804   21049854.0344
       854.411         665.775
  -2941934.680 9  -2271089.615 9  22332334.536    22332334.996    22332341.859
      2849.961        2220.749
 96 10  7 15 44  0.0000000  0  7 30  6 22 23 26 17 28                0.000696321
   3298410.623 8   2546705.81546  24725156.723    24725157.7764   24725166.7954
     -3464.177       -2699.359
    883342.491 9    649362.93048  20659413.532    20659414.3144   20659421.3644
     -1169.405        -911.225
  -1096164.696 9   -848066.67247  23759708.994    23759709.3444   23759717.4934
       743.216         579.129
  -2171735.257 9  -1678346.79648  21545160.122    21545160.7354   21545168.3284
      1884.085        1468.118
   -960152.192 9   -742297.21148  22390883.925    22390883.2424   22390890.1414
       593.173         462.213
  -1079929.233 9   -833876.71148  21044989.835    21044990.3134   21044998.0004
       846.602         659.690
  -3027310.139 9  -2337615.927 9  22316088.055    22316088.565    22316095.465
      2841.556        2214.199
 96 10  7 15 44 30.0000000  0  7 30  6 22 23 26 17 28                0.000695696
   3402284.234 8   2627646.26645  24744923.319    24744924.2864   24744933.2404
     -3461.672       -2697.407
    918645.208 9    676871.53048  20666131.311    20666132.1564   20666139.2444
     -1185.103        -923.457
  -1118219.975 9   -865252.60647  23755512.186    23755512.3634   23755520.5474
       726.223         565.888
  -2228070.549 9  -1722244.41548  21534439.854    21534440.5164   21534448.1104
      1870.669        1457.664
   -977680.957 9   -755955.96748  22387547.498    22387547.6534   22387554.5224
       574.439         447.615
  -1105226.241 9   -853588.66448  21040176.022    21040176.4564   21040184.1284
       838.871         653.666
  -3112452.274 9  -2403960.430 9  22299886.102    22299886.524    22299893.478
      2833.591        2207.993
 96 10  7 15 45  0.0000000  0  7 30  6 22 23 26 17 28                0.000695069
   3506079.282 8   2708525.48845  24764675.184    24764675.9604   24764684.8584
     -3458.441       -2694.889
    954404.040 9    704735.54648  20672936.003    20672936.8104   20672943.9224
     -1199.312        -934.529
  -1139778.757 9   -882051.65747  23751409.560    23751409.9154   23751418.0514
       710.539         553.667
  -2284011.834 9  -1765835.01348  21523794.598    21523795.2504   21523802.8354
      1858.224        1447.967
   -994644.848 9   -769174.56048  22384319.411    22384319.5944   22384326.4044
       555.947         433.205
  -1130294.489 9   -873122.35948  21035405.561    21035406.1234   21035413.8024
       831.960         648.281
  -3197359.494 9  -2470121.888 9  22283728.539    22283729.217    22283736.189
      2826.454        2202.432
 96 10  7 15 45 30.0000000  0  7 30  6 22 23 26 17 28                0.000694435
   3609794.277 8   2789342.34845  24784411.310    24784412.4124   24784421.1884
     -3455.740       -2692.784
    990614.253 9    732951.28448  20679826.604    20679827.4164   20679834.5304
     -1214.664        -946.491
  -1160860.256 9   -898478.81147  23747397.880    23747398.2954   23747406.3864
       694.992         541.552
  -2339551.746 9  -1809112.85748  21513225.723    21513226.3834   21513233.9204
      1844.616        1437.363
  -1011039.832 9   -781949.84848  22381199.991    22381199.7204   22381206.5434
       537.267         418.650
  -1155138.711 9   -892481.49348  21030677.901    21030678.4044   21030686.1194
       824.501         642.468
  -3282033.371 9  -2536101.519 9  22267615.697    22267616.331    22267623.312
      2818.618        2196.326
 96 10  7 15 46  0.0000000  0  7 30  6 22 23 26 17 28                0.000693769
   3713409.565 8   2870081.49645  24804128.485    24804129.6524   24804138.5554
     -3452.059       -2689.916
   1027289.405 9    761529.32148  20686805.586    20686806.5074   20686813.6054
     -1230.662        -958.957
  -1181480.619 9   -914546.63247  23743474.179    23743474.4484   23743482.4624
       679.448         529.440
  -2394696.339 9  -1852082.65248  21502732.127    21502732.7194   21502740.2104
      1831.703        1427.301
  -1026885.498 9   -794297.09148  22378184.309    22378184.3654   22378191.1544
       519.020         404.431
  -1179773.140 9   -911677.15348  21025990.072    21025990.6294   21025998.3644
       817.836         637.275
  -3366477.566 9  -2601902.177 9  22251546.377    22251547.167    22251554.136
      2810.840        2190.265
 96 10  7 15 46 30.0000000  0  7 30  6 22 23 26 17 28                0.000693067
   3816912.760 8   2950733.31445  24823824.735    24823825.4934   24823834.4684
     -3447.866       -2686.649
   1064459.363 9    790492.91748  20693878.797    20693879.7224   20693886.8164
     -1247.097        -971.764
  -1201633.285 9   -930250.00247  23739639.251    23739639.4634   23739647.5334
       664.376         517.696
  -2449463.763 9  -1894758.54948  21492310.215    21492310.7914   21492318.3574
      1819.717        1417.961
  -1042190.165 9   -806222.77648  22375271.452    22375272.0024   22375278.7274
       501.561         390.827
  -1204215.107 9   -930722.83848  21021339.008    21021339.5084   21021347.2224
       812.075         632.786
  -3450685.473 9  -2667518.711 9  22235522.136    22235522.962    22235529.903
      2803.300        2184.390
 96 10  7 15 47  0.0000000  0  7 30  6 22 23 26 17 28                0.000692330
   3920311.084 8   3031303.40245  24843500.884    24843501.3884   24843510.5494
     -3444.970       -2684.392
   1102139.059 9    819853.70548  20701048.992    20701049.9364   20701057.0374
     -1264.516        -985.337
  -1221318.582 9   -945589.20347  23735893.087    23735893.4724   23735901.5764
       648.069         504.989
  -2503859.318 9  -1937144.68848  21481958.888    21481959.6394   21481967.2344
      1806.956        1408.018
  -1056956.320 9   -817728.85148  22372461.170    22372462.0814   22372468.7834
       483.264         376.569
  -1228478.181 9   -949629.13048  21016721.857    21016722.4184   21016730.1644
       805.836         627.924
  -3534655.119 9  -2732949.590 9  22219543.491    22219544.065    22219551.017
      2794.970        2177.899
 96 10  7 15 47 30.0000000  0  7 30  6 22 23 26 17 28                0.000691566
   4023615.288 8   3111800.17845  24863159.400    24863159.6554   24863168.7964
     -3442.109       -2682.163
   1140335.394 9    849617.07848  20708317.505    20708318.4624   20708325.5714
     -1281.920        -998.899
  -1240520.782 9   -960551.94647  23732239.439    23732239.4524   23732247.4964
       631.765         492.284
  -2557879.334 9  -1979238.19148  21471679.202    21471679.9864   21471687.5304
      1794.274        1398.136
  -1071191.734 9   -828821.35848  22369752.138    22369753.1354   22369759.8374
       465.480         362.712
  -1252571.984 9   -968403.52048  21012136.964    21012137.5604   21012145.2844
       800.189         623.524
  -3618380.951 9  -2798190.482 9  22203610.911    22203611.536    22203618.493
      2786.559        2171.345
 96 10  7 15 48  0.0000000  0  7 30  6 22 23 26 17 28                0.000690787
   4126825.916 8   3192223.98845  24882799.243    24882800.0104   24882809.1774
     -3438.747       -2679.543
   1179044.138 9    879779.72648  20715683.598    20715684.5274   20715691.6224
     -1298.713       -1011.984
  -1259217.734 9   -975120.99347  23728681.267    23728681.5244   23728689.5964
       614.533         478.857
  -2611526.460 9  -2021041.12948  21461470.417    21461471.2284   21461478.7514
      1781.985        1388.560
  -1084885.512 9   -839491.81948  22367146.636    22367147.2994   22367153.9694
       447.273         348.524
  -1276492.157 9   -987042.61148  21007585.119    21007585.7214   21007593.4454
       794.357         618.979
  -3701853.473 9  -2863233.984 9  22187726.711    22187727.220    22187734.187
      2778.114        2164.764
 96 10  7 15 48 30.0000000  0  7 30  6 22 23 26 17 28                0.000690013
   4229944.898 8   3272576.44445  24902422.513    24902423.0694   24902432.1994
     -3435.854       -2677.289
   1218250.862 9    910330.40648  20723144.549    20723145.4134   20723152.4414
     -1314.959       -1024.643
  -1277384.106 9   -989276.59847  23725224.484    23725224.6154   23725232.6304
       596.489         464.797
  -2664790.072 9  -2062545.22848  21451334.734    21451335.4924   21451343.0404
      1768.806        1378.290
  -1098026.133 9   -849731.24448  22364646.231    22364646.7194   22364653.3914
       428.781         334.115
  -1300230.798 9  -1005540.25048  21003067.915    21003068.4424   21003076.1334
       788.207         614.187
  -3785066.993 9  -2928075.672 9  22171891.572    22171892.204    22171899.181
      2769.482        2158.038
 96 10  7 15 49  0.0000000  0  7 30  6 22 23 26 17 28                0.000689264
   4332997.268 8   3352876.94545  24922032.780    24922033.3824   24922042.4344
     -3434.090       -2675.914
   1257947.026 9    941262.47548  20730698.543    20730699.3814   20730706.3954
     -1331.463       -1037.504
  -1294988.015 9  -1002993.92647  23721874.805    23721874.7154   23721882.6654
       577.290         449.836
  -2717640.986 9  -2103727.74348  21441277.571    21441278.3484   21441285.8774
      1754.767        1367.351
  -1110593.147 9   -859523.70448  22362254.859    22362255.2954   22362261.9514
       409.200         318.857
  -1323763.497 9  -1023877.41448  20998589.778    20998590.3254   20998598.0374
       780.708         608.344
  -3868007.377 9  -2992704.521 9  22156108.445    22156109.171    22156116.172
      2759.965        2150.622
 96 10  7 15 49 30.0000000  0  7 30  6 22 23 26 17 28                0.000688536
   4435977.555 8   3433121.32345  24941628.989    24941629.8064   24941639.0014
     -3431.231       -2673.686
   1298131.606 9    972575.12648  20738345.283    20738346.2194   20738353.2944
     -1347.758       -1050.201
  -1312030.673 9  -1016273.92147  23718631.696    23718631.6274   23718639.5724
       558.689         435.342
  -2770073.141 9  -2144583.95448  21431300.063    21431300.8594   21431308.3974
      1740.501        1356.235
  -1122584.614 9   -868867.69148  22359973.181    22359973.4464   22359980.0584
       389.820         303.756
  -1347077.495 9  -1042044.16048  20994153.241    20994153.8634   20994161.5274
       773.179         602.477
  -3950674.190 9  -3057120.197 9  22140377.383    22140378.192    22140385.203
      2750.841        2143.512
 96 10  7 15 50  0.0000000  0  7 30  6 22 23 26 17 28                0.000687828
   4538884.493 8   3513308.49945  24961211.290    24961212.4174   24961221.6784
     -3428.998       -2671.946
   1338815.503 9   1004276.85648  20746087.207    20746088.1174   20746095.1834
     -1364.744       -1063.437
  -1328503.049 9  -1029109.52547  23715497.074    23715496.9894   23715505.0194
       539.458         420.357
  -2822070.644 9  -2185101.46948  21421405.366    21421406.0924   21421413.5984
      1725.798        1344.778
  -1133979.866 9   -877747.10348  22357804.413    22357804.9974   22357811.6314
       369.796         288.153
  -1370145.898 9  -1060019.53548  20989763.505    20989764.1114   20989771.7604
       764.628         595.814
  -4033056.667 9  -3121314.318 9  22124700.340    22124701.355    22124708.348
      2741.163        2135.971
 96 10  7 15 50 30.0000000  0  7 30  6 22 23 26 17 28                0.000687144
   4641722.056 8   3593441.65545  24980781.771    24980781.6034   24980791.2254
     -3427.251       -2670.585
   1380011.835 9   1036377.88848  20753926.623    20753927.5204   20753934.5754
     -1381.939       -1076.836
  -1344404.852 9  -1041500.53547  23712470.895    23712470.9954   23712479.0774
       520.578         405.645
  -2873622.318 9  -2225271.58448  21411595.456    21411596.1684   21411603.6284
      1710.816        1333.103
  -1144775.944 9   -886159.62748  22355750.684    22355750.5754   22355757.2074
       349.667         272.468
  -1392961.998 9  -1077798.30948  20985421.725    20985422.3384   20985429.9934
       756.239         589.277
  -4115147.450 9  -3185281.143 9  22109079.243    22109080.009    22109086.986
      2731.271        2128.263
 96 10  7 15 51  0.0000000  0  7 30  6 22 23 26 17 28                0.000686371
   4744492.632 8   3673522.60345  25000337.504    25000338.4194   25000347.7164
     -3424.503       -2668.444
   1421727.689 9   1068883.73848  20761864.998    20761865.8194   20761872.8914
     -1399.277       -1090.346
  -1359753.067 9  -1053460.17447  23709550.336    23709550.4024   23709558.3864
       502.644         391.671
  -2924730.056 9  -2265095.78248  21401869.956    21401870.6974   21401878.1784
      1696.414        1321.881
  -1154964.961 9   -894099.11448  22353811.038    22353811.6534   22353818.2404
       329.593         256.826
  -1415525.005 9  -1095379.87148  20981128.145    20981128.7464   20981136.3744
       747.972         582.835
  -4196940.292 9  -3249015.807 9  22093514.646    22093515.349    22093522.339
      2721.510        2120.657
 96 10  7 15 51 30.0000000  0  7 30  6 22 23 26 17 28                0.000685694
   4847178.479 8   3753537.52745  25019878.247    25019878.9104   25019888.3324
     -3421.579       -2666.165
   1463960.650 9   1101792.53248  20769901.842    20769902.5354   20769909.5844
     -1416.329       -1103.633
  -1374566.377 9  -1065002.99947  23706731.413    23706731.5194   23706739.5114
       484.672         377.666
  -2975410.403 9  -2304586.94448  21392225.906    21392226.5254   21392234.0524
      1682.083        1310.714
  -1164549.975 9   -901567.94948  22351987.214    22351987.6864   22351994.2204
       309.115         240.869
  -1437848.285 9  -1112774.62748  20976880.121    20976880.7414   20976888.3554
       740.063         576.672
  -4278438.408 9  -3312520.814 9  22078005.947    22078006.761    22078013.746
      2711.403        2112.782
 96 10  7 15 52  0.0000000  0  7 30  6 22 23 26 17 28                0.000685048
   4949784.249 8   3833490.04245  25039403.765    25039404.3034   25039413.6854
     -3419.094       -2664.229
   1506701.232 9   1135096.87148  20778035.068    20778035.8444   20778042.8814
     -1433.209       -1116.786
  -1388837.950 9  -1076123.70147  23704015.896    23704015.7764   23704023.7524
       466.518         363.521
  -3025666.175 9  -2343747.26948  21382662.554    21382663.1654   21382670.6804
      1668.044        1299.774
  -1173517.559 9   -908555.66748  22350280.323    22350281.1714   22350287.7924
       288.747         224.998
  -1459944.684 9  -1129992.59648  20972675.417    20972675.9474   20972683.5384
       732.917         571.104
  -4359629.419 9  -3375786.518 9  22062555.771    22062556.612    22062563.607
      2701.073        2104.732
 96 10  7 15 52 30.0000000  0  7 30  6 22 23 26 17 28                0.000684442
   5052321.821 8   3913389.43845  25058916.294    25058916.8284   25058926.1634
     -3415.783       -2661.649
   1549942.617 9   1168791.44848  20786263.597    20786264.4264   20786271.4694
     -1448.768       -1128.910
  -1402564.891 9  -1086819.99447  23701403.618    23701403.6324   23701411.6864
       449.376         350.163
  -3075503.101 9  -2382581.22248  21373178.663    21373179.5034   21373187.0254
      1655.257        1289.811
  -1181880.275 9   -915072.06848  22348688.813    22348689.7884   22348696.4624
       269.616         210.090
  -1481834.316 9  -1147049.44448  20968509.887    20968510.4924   20968518.0654
       727.171         566.627
  -4440508.617 9  -3438809.253 9  22047164.939    22047165.784    22047172.797
      2691.706        2097.433
 96 10  7 15 53  0.0000000  0  7 30  6 22 23 26 17 28                0.000683880
   5154783.097 8   3993229.36245  25078414.083    25078414.7284   25078423.9494
     -3414.340       -2660.525
   1593678.285 9   1202871.18348  20794586.190    20794587.0224   20794594.0974
     -1466.425       -1142.669
  -1415751.064 9  -1097094.92747  23698894.351    23698894.2934   23698902.4934
       430.097         335.141
  -3124937.433 9  -2421101.45948  21363771.620    21363772.4344   21363779.9834
      1640.920        1278.639
  -1189641.414 9   -921119.70148  22347212.022    22347212.8934   22347219.5554
       248.450         193.597
  -1503527.444 9  -1163953.17748  20964381.783    20964382.4144   20964390.0054
       719.636         560.755
  -4521082.497 9  -3501594.077 9  22031832.247    22031833.086    22031840.091
      2680.415        2088.635
 96 10  7 15 53 30.0000000  0  7 30  6 22 23 26 17 28                0.000683379
   5257185.088 8   4073023.09045  25097900.397    25097901.0904   25097910.3314
     -3412.447       -2659.050
   1637925.146 9   1237349.25248  20803005.921    20803006.9254   20803014.0294
     -1483.453       -1155.937
  -1428376.814 9  -1106933.15747  23696491.410    23696491.7234   23696499.8914
       411.607         320.733
  -3173956.659 9  -2459298.24148  21354443.583    21354444.3534   21354451.9464
      1626.907        1267.720
  -1196789.556 9   -926689.67748  22345851.311    22345852.6444   22345859.3244
       228.160         177.787
  -1525023.954 9  -1180703.69048  20960291.182    20960291.7944   20960299.3694
       713.283         555.805
  -4601334.738 9  -3564128.271 9  22016560.716    22016561.614    22016568.565
      2669.696        2080.283
 96 10  7 15 54  0.0000000  0  7 30  6 22 23 26 17 28                0.000682930
   5359525.323 8   4152768.72145  25117375.139    25117375.7174   25117385.2434
     -3409.859       -2657.033
   1682697.299 9   1272236.64448  20811525.820    20811526.8134   20811533.9304
     -1501.280       -1169.829
  -1440449.534 9  -1116340.47647  23694194.438    23694194.3864   23694202.5604
       393.334         306.494
  -3222554.371 9  -2497166.57148  21345195.696    21345196.5354   21345204.0924
      1613.142        1256.994
  -1203336.082 9   -931790.87348  22344605.864    22344606.9114   22344613.6284
       208.549         162.506
  -1546318.749 9  -1197297.03148  20956238.929    20956239.5524   20956247.1144
       706.370         550.418
  -4681263.867 9  -3626410.695 9  22001350.592    22001351.622    22001358.527
      2659.105        2072.030
 96 10  7 15 54 30.0000000  0  7 30  6 22 23 26 17 28                0.000682502
   5461788.203 8   4232454.06645  25136834.812    25136835.7604   25136845.3074
     -3407.130       -2654.906
   1728021.173 9   1307553.94248  20820150.774    20820151.7064   20820158.8294
     -1519.975       -1184.396
  -1451970.231 9  -1125317.63147  23692001.817    23692002.0184   23692010.2544
       375.319         292.456
  -3270729.018 9  -2534705.23548  21336028.513    21336029.2494   21336036.7454
      1598.920        1245.912
  -1209280.906 9   -936423.19748  22343475.118    22343475.7194   22343482.4004
       188.081         146.557
  -1567387.023 9  -1213713.85748  20952229.787    20952230.4234   20952237.9704
       698.616         544.376
  -4760867.391 9  -3688439.399 9  21986202.830    21986203.614    21986210.438
      2648.218        2063.546
 96 10  7 15 55  0.0000000  0  7 30  6 22 23 26 17 28                0.000682092
   5563961.848 8   4312069.88145  25156278.111    25156278.8154   25156288.1854
     -3404.076       -2652.527
   1773917.364 9   1343317.20748  20828884.651    20828885.4874   20828892.5814
     -1539.182       -1199.362
  -1462956.553 9  -1133878.39347  23689910.927    23689911.3784   23689919.5944
       357.585         278.638
  -3318463.462 9  -2571900.88648  21326944.936    21326945.6934   21326953.1684
      1583.840        1234.161
  -1214599.619 9   -940567.64248  22342463.623    22342463.6354   22342470.2524
       167.124         130.226
  -1588216.695 9  -1229944.76348  20948265.979    20948266.6464   20948274.2494
       690.527         538.073
  -4840134.628 9  -3750206.056 9  21971118.769    21971119.569    21971126.362
      2636.725        2054.591
 96 10  7 15 55 30.0000000  0  7 30  6 22 23 26 17 28                0.000681685
   5666052.127 8   4391620.72045  25175704.365    25175705.9664   25175715.2054
     -3401.352       -2650.404
   1820390.100 9   1379529.72548  20837728.129    20837728.9414   20837736.0404
     -1558.395       -1214.334
  -1473410.506 9  -1142024.33347  23687921.793    23687922.1564   23687930.2494
       339.799         264.778
  -3365738.974 9  -2608738.92848  21317948.714    21317949.4744   21317956.9424
      1568.339        1222.082
  -1219294.148 9   -944225.71448  22341569.932    22341570.2944   22341576.9224
       146.399         114.077
  -1608793.679 9  -1245978.76948  20944350.331    20944350.9974   20944358.6014
       681.595         531.113
  -4919051.917 9  -3811700.024 9  21956101.225    21956102.077    21956108.906
      2624.937        2045.405
 96 10  7 15 56  0.0000000  0  7 30  6 22 23 26 17 28                0.000681277
   5768044.702 8   4471095.49145  25195113.658    25195114.3204   25195123.5144
     -3398.882       -2648.479
   1867438.387 9   1416190.72648  20846681.013    20846681.9244   20846689.0544
     -1578.276       -1229.825
  -1483315.417 9  -1149742.43847  23686037.372    23686037.3304   23686045.4014
       320.089         249.420
  -3412550.821 9  -2645215.66948  21309040.720    21309041.4894   21309048.9364
      1552.117        1209.442
  -1223361.587 9   -947395.13848  22340795.819    22340796.2774   22340802.9514
       124.347          96.894
  -1629087.399 9  -1261792.04548  20940488.547    20940489.2424   20940496.8354
       671.151         522.975
  -4997611.501 9  -3872915.259 9  21941151.526    21941152.643    21941159.541
      2612.036        2035.353
 96 10  7 15 56 30.0000000  0  7 30  6 22 23 26 17 28                0.000680913
   5869984.627 8   4550529.18645  25214511.161    25214512.6774   25214521.8944
     -3397.302       -2647.248
   1915067.869 9   1453304.60448  20855744.699    20855745.5434   20855752.6744
     -1597.052       -1244.456
  -1492622.106 9  -1156994.39647  23684266.045    23684266.2814   23684274.4234
       300.256         233.966
  -3458862.934 9  -2681303.00848  21300227.917    21300228.6184   21300236.0454
      1535.216        1196.272
  -1226751.369 9   -950036.51548  22340150.276    22340151.2384   22340157.9414
       101.622          79.186
  -1649073.815 9  -1277365.86748  20936685.211    20936685.9604   20936693.5694
       661.257         515.265
  -5075776.749 9  -3933823.219 9  21926277.158    21926278.246    21926285.217
      2598.872        2025.095
 96 10  7 15 57  0.0000000  0  7 30  6 22 23 26 17 28                0.000680604
   5971884.336 8   4629931.56045  25233902.142    25233903.5034   25233912.7504
     -3396.001       -2646.235
   1963238.756 9   1490840.35448  20864911.348    20864912.1914   20864919.2484
     -1614.339       -1257.926
  -1501338.333 9  -1163786.25647  23682607.527    23682607.6884   23682615.8324
       280.491         218.564
  -3504676.416 9  -2717001.80848  21291509.823    21291510.6024   21291518.0344
      1518.913        1183.569
  -1229478.603 9   -952161.62348  22339631.392    22339632.2204   22339638.9464
        80.127          62.437
  -1668773.066 9  -1292715.92448  20932936.634    20932937.3434   20932944.9224
       651.916         507.986
  -5153556.276 9  -3994430.618 9  21911476.326    21911477.306    21911484.285
      2586.303        2015.301
 96 10  7 15 57 30.0000000  0  7 30  6 22 23 26 17 28                0.000680358
   6073765.473 8   4709319.46845  25253290.079    25253290.9354   25253300.1414
     -3395.625       -2645.941
   2011950.133 9   1528797.26748  20874180.809    20874181.6474   20874188.6984
     -1632.741       -1272.266
  -1509426.140 9  -1170088.43447  23681068.265    23681068.7054   23681076.7794
       259.101         201.897
  -3549981.070 9  -2752304.11848  21282888.758    21282889.4114   21282896.8864
      1501.733        1170.182
  -1231535.563 9   -953764.43948  22339239.436    22339240.7914   22339247.5074
        57.369          44.703
  -1688165.248 9  -1307826.70648  20929246.379    20929247.1304   20929254.7184
       641.241         499.668
  -5230935.461 9  -4054726.067 9  21896751.677    21896752.567    21896759.528
      2572.675        2004.682
 96 10  7 15 58  0.0000000  0  7 30  6 22 23 26 17 28                0.000680184
   6175624.227 8   4788689.90945  25272672.302    25272673.9574   25272683.0874
     -3395.127       -2645.553
   2061201.892 9   1567175.25648  20883553.037    20883553.9464   20883561.0124
     -1650.912       -1286.425
  -1516886.701 9  -1175901.85747  23679649.025    23679649.0164   23679657.1284
       238.279         185.672
  -3594779.075 9  -2787211.63848  21274363.754    21274364.6224   21274372.1044
      1484.675        1156.890
  -1232917.221 9   -954841.03948  22338977.092    22338977.8664   22338984.5704
        34.646          26.997
  -1707248.600 9  -1322696.84348  20925614.939    20925615.6874   20925623.2584
       630.970         491.665
  -5307915.169 9  -4114710.240 9  21882102.903    21882103.845    21882110.733
      2559.186        1994.171
 96 10  7 15 58 30.0000000  0  7 30  6 22 23 26 17 28                0.000680069
   6277472.329 8   4868052.07545  25292053.175    25292055.1164   25292064.0974
     -3394.605       -2645.147
   2111005.255 9   1605983.07048  20893030.224    20893031.2204   20893038.3284
     -1669.682       -1301.051
  -1523732.376 9  -1181236.14447  23678346.527    23678346.3864   23678354.5054
       218.028         169.892
  -3639061.805 9  -2821717.64548  21265937.197    21265937.8894   21265945.3534
      1467.426        1143.449
  -1233618.995 9   -955387.85548  22338843.081    22338844.2964   22338851.0284
        12.031           9.375
  -1726029.120 9  -1337331.00648  20922041.114    20922041.8874   20922049.4514
       620.753         483.704
  -5384488.245 9  -4174377.555 9  21867531.418    21867532.472    21867539.313
      2545.535        1983.534
 96 10  7 15 59  0.0000000  0  7 30  6 22 23 26 17 28                0.000679988
   6379267.870 8   4947373.27745  25311424.595    25311426.1534   25311435.1534
     -3392.357       -2643.395
   2161369.863 9   1645228.21248  20902614.272    20902615.3274   20902622.4034
     -1688.557       -1315.759
  -1529988.010 9  -1186110.66447  23677155.964    23677155.9544   23677164.0674
       198.397         154.595
  -3682846.939 9  -2855835.90948  21257605.250    21257605.8484   21257613.2894
      1451.028        1130.671
  -1233660.215 9   -955419.95848  22338836.168    22338836.4404   22338843.1324
        -9.985          -7.780
  -1744509.627 9  -1351731.39448  20918524.498    20918525.1854   20918532.7054
       610.699         475.869
  -5460667.111 9  -4233737.690 9  21853035.251    21853036.084    21853042.927
      2532.390        1973.291
 96 10  7 15 59 30.0000000  0  7 30  6 22 23 26 17 28                0.000679953
   6480997.877 8   5026643.42345  25330783.818    25330784.9964   25330793.6654
     -3389.624       -2641.265
   2212323.829 9   1684932.59748  20912310.445    20912311.5704   20912318.6074
     -1708.190       -1331.057
  -1535638.862 9  -1190513.91747  23676080.315    23676080.5554   23676088.6714
       178.471         139.068
  -3726131.907 9  -2889564.43948  21249368.314    21249369.0104   21249376.4494
      1434.841        1118.058
  -1233023.830 9   -954924.03948  22338957.806    22338957.5694   22338964.2104
       -32.206         -25.096
  -1762678.188 9  -1365888.70148  20915067.113    20915067.8024   20915075.3094
       600.582         467.986
  -5536434.982 9  -4292777.571 9  21838617.083    21838617.920    21838624.788
      2518.922        1962.796
 96 10  7 16  0  0.0000000  0  7 30  6 22 23 26 17 28                0.000679958
   6582640.448 8   5105845.41645  25350125.585    25350127.0814   25350135.5414
     -3386.732       -2639.012
   2263859.527 9   1725090.27948  20922117.407    20922118.4934   20922125.5684
     -1727.723       -1346.278
  -1540694.995 9  -1194453.76847  23675118.882    23675118.4774   23675126.5284
       158.366         123.402
  -3768936.095 9  -2922918.33448  21241223.035    21241223.6354   21241231.0764
      1418.678        1105.463
  -1231727.164 9   -953913.63048  22339203.998    22339204.2864   22339210.9814
       -54.423         -42.407
  -1780547.265 9  -1379812.64848  20911666.688    20911667.4344   20911674.9164
       590.713         460.296
  -5611800.821 9  -4351504.180 9  21824275.306    21824276.272    21824283.158
      2505.297        1952.179
 96 10  7 16  0 30.0000000  0  7 30  6 22 23 26 17 28                0.000680024
   6684182.838 8   5184969.36046  25369448.819    25369450.1024   25369458.5354
     -3382.934       -2636.052
   2315978.233 9   1765702.24748  20932035.303    20932036.3674   20932043.4364
     -1746.748       -1361.102
  -1545153.650 9  -1197928.03347  23674270.441    23674270.0244   23674278.0954
       138.853         108.197
  -3811264.974 9  -2955901.85948  21233168.057    21233168.7084   21233176.1234
      1403.282        1093.466
  -1229761.055 9   -952381.57448  22339577.849    22339578.4374   22339585.1294
       -76.650         -59.727
  -1798134.200 9  -1393516.74548  20908320.078    20908320.7394   20908328.1974
       581.733         453.298
  -5686763.942 9  -4409916.986 9  21810010.348    21810011.255    21810018.170
      2492.237        1942.003
 96 10  7 16  1  0.0000000  0  7 30  6 22 23 26 17 28                0.000680154
   6785622.805 8   5264013.50346  25388751.888    25388753.4784   25388761.9684
     -3379.926       -2633.709
   2368659.959 9   1806752.93548  20942060.380    20942061.3814   20942068.4114
     -1765.214       -1375.491
  -1549021.160 9  -1200941.66347  23673534.076    23673533.9974   23673542.1354
       119.095          92.801
  -3853127.758 9  -2988522.18948  21225201.724    21225202.4894   21225209.8704
      1387.565        1081.219
  -1227131.358 9   -950332.42748  22340078.129    22340078.8674   22340085.5314
       -98.619         -76.846
  -1815451.258 9  -1407010.54248  20905024.604    20905025.3994   20905032.8684
       572.819         446.352
  -5761330.128 9  -4468020.486 9  21795820.959    21795821.764    21795828.725
      2478.842        1931.565
 96 10  7 16  1 30.0000000  0  7 30  6 22 23 26 17 28                0.000680337
   6886959.490 8   5342977.14846  25408035.886    25408037.2284   25408045.7624
     -3375.713       -2630.426
   2421867.237 9   1848213.14548  20952185.309    20952186.3784   20952193.4314
     -1781.874       -1388.473
  -1552319.927 9  -1203512.13847  23672906.510    23672906.2784   23672914.3514
       100.954          78.665
  -3894541.146 9  -3020792.34048  21217321.161    21217321.8054   21217329.1574
      1373.401        1070.183
  -1223867.327 9   -947788.99948  22340699.009    22340699.9904   22340706.6304
      -118.853         -92.613
  -1832528.326 9  -1420317.33748  20901775.071    20901775.7554   20901783.1864
       565.697         440.803
  -5835518.274 9  -4525829.407 9  21781703.241    21781704.202    21781711.175
      2467.111        1922.424
 96 10  7 16  2  0.0000000  0  7 30  6 22 23 26 17 28                0.000680569
   6988199.548 8   5421865.48846  25427301.327    25427302.7654   25427311.1014
     -3372.939       -2628.264
   2475593.357 9   1890077.64448  20962408.931    20962410.0984   20962417.2304
     -1799.359       -1402.098
  -1555054.646 9  -1205643.09247  23672386.135    23672385.9874   23672393.9374
        81.991          63.889
  -3935494.869 9  -3052704.31248  21209527.873    21209528.5684   21209535.9164
      1357.382        1057.700
  -1219965.772 9   -944748.80248  22341441.749    22341442.4504   22341449.0554
      -140.701        -109.637
  -1849365.830 9  -1433437.45948  20898571.057    20898571.7074   20898579.1074
       557.494         434.411
  -5909329.753 9  -4583344.824 9  21767657.436    21767658.364    21767665.293
      2454.251        1912.403
 96 10  7 16  2 30.0000000  0  7 30  6 22 23 26 17 28                0.000680845
   7089360.651 8   5500692.33446  25446552.145    25446553.1624   25446561.4804
     -3370.938       -2626.705
   2529841.105 9   1932348.60648  20972731.969    20972733.1054   20972740.2594
     -1816.921       -1415.783
  -1557230.004 9  -1207338.16147  23671972.275    23671971.9684   23671979.9794
        63.256          49.290
  -3975967.574 9  -3084241.46648  21201826.088    21201826.8534   21201834.1854
      1341.054        1044.977
  -1215409.417 9   -941198.37048  22342308.985    22342309.4854   22342316.0514
      -162.825        -126.877
  -1865953.039 9  -1446362.54948  20895414.630    20895415.2794   20895422.6344
       548.381         427.310
  -5982756.237 9  -4640560.245 9  21753684.861    21753685.794    21753692.674
      2440.979        1902.062
 96 10  7 16  3  0.0000000  0  7 30  6 22 23 26 17 28                0.000681134
   7190449.734 8   5579463.05546  25465789.317    25465789.8214   25465798.1964
     -3367.954       -2624.380
   2584604.924 9   1975021.70148  20983153.243    20983154.3234   20983161.4534
     -1834.103       -1429.171
  -1558852.623 9  -1208602.54247  23671663.405    23671663.1394   23671671.2144
        45.015          35.077
  -4015955.965 9  -3115401.22948  21194216.615    21194217.3184   21194224.6114
      1324.944        1032.424
  -1210207.413 9   -937144.84248  22343298.538    22343299.3624   22343305.9464
      -183.950        -143.338
  -1882270.940 9  -1459077.78948  20892309.483    20892310.0954   20892317.4404
       539.561         420.437
  -6055792.043 9  -4697471.238 9  21739786.680    21739787.567    21739794.405
      2428.138        1892.056
 96 10  7 16  3 30.0000000  0  7 30  6 22 23 26 17 28                0.000681426
   7291435.440 8   5658153.21846  25485006.505    25485006.7624   25485015.2404
     -3364.188       -2621.445
   2639891.845 9   2018102.40148  20993673.981    20993675.1284   20993682.1954
     -1851.595       -1442.801
  -1559931.065 9  -1209442.89647  23671456.195    23671458.0124   23671465.9774
        26.945          20.996
  -4055467.958 9  -3146189.77248  21186697.796    21186698.4744   21186705.7774
      1309.439        1020.342
  -1204370.366 9   -932596.47648  22344409.653    22344410.1064   22344416.6724
      -205.060        -159.787
  -1898325.001 9  -1471587.44148  20889254.510    20889255.1174   20889262.4614
       530.910         413.696
  -6128446.936 9  -4754085.419 9  21725960.856    21725961.811    21725968.630
      2415.583        1882.272
 96 10  7 16  4  0.0000000  0  7 30  6 22 23 26 17 28                0.000681727
   7392295.894 8   5736745.78145  25504199.631    25504199.8144   25504208.3144
     -3360.416       -2618.506
   2695698.668 9   2061588.23148  21004293.636    21004294.8714   21004301.9214
     -1869.323       -1456.615
  -1560478.999 9  -1209869.86447  23671351.689    23671353.8174   23671361.6544
         9.082           7.077
  -4094523.666 9  -3176622.77048  21179265.743    21179266.4104   21179273.7774
      1293.856        1008.199
  -1197905.279 9   -927558.71448  22345640.033    22345640.3654   22345646.8884
      -226.368        -176.391
  -1914124.215 9  -1483898.50548  20886247.999    20886248.6374   20886255.9754
       521.890         406.668
  -6200727.130 9  -4810407.626 9  21712206.310    21712207.316    21712214.171
      2402.624        1872.175
 96 10  7 16  4 30.0000000  0  7 30  6 22 23 26 17 28                0.000682028
   7493030.353 9   5815240.15546  25523368.673    25523368.8774   25523377.4894
     -3355.689       -2614.823
   2752039.445 9   2105490.12448  21015014.928    21015016.1734   21015023.2974
     -1887.270       -1470.600
  -1560495.922 9  -1209883.04847  23671348.328    23671350.5444   23671358.4144
        -8.528          -6.645
  -4133129.331 9  -3206705.08448  21171919.268    21171919.9804   21171927.3734
      1279.505         997.017
  -1190811.373 9   -922030.98048  22346990.079    22346990.2694   22346996.8114
      -246.979        -192.451
  -1929657.742 9  -1496002.54548  20883292.063    20883292.6924   20883300.0404
       513.187         399.886
  -6272620.413 9  -4866428.346 9  21698525.633    21698526.447    21698533.325
      2389.705        1862.108
 96 10  7 16  5  0.0000000  0  6  6 22 23 26 17 28                   0.000682343
   2808921.031 9   2149813.42848  21025839.109    21025840.3984   21025847.5484
     -1904.815       -1484.271
  -1559973.340 9  -1209475.83647  23671448.018    23671450.0034   23671457.8834
       -26.357         -20.538
  -4171304.606 9  -3236452.03048  21164654.767    21164655.4764   21164662.8664
      1265.492         986.098
  -1183104.206 9   -916025.37948  22348455.589    22348456.9324   22348463.4514
      -266.797        -207.894
  -1944940.543 9  -1507911.21248  20880383.825    20880384.4954   20880391.8634
       505.676         394.033
  -6344123.565 9  -4922145.065 9  21684919.096    21684919.838    21684926.725
      2377.151        1852.325
 96 10  7 16  5 30.0000000  0  6  6 22 23 26 17 28                   0.000682690
   2866329.521 9   2194547.30548  21036763.685    21036764.9134   21036772.0064
     -1922.475       -1498.032
  -1558908.780 9  -1208646.30247  23671651.504    23671652.6314   23671660.4774
       -44.773         -34.888
  -4209066.003 9  -3265876.47648  21157468.970    21157469.6874   21157477.0944
      1251.796         975.425
  -1174801.076 9   -909555.38748  22350035.534    22350037.0224   22350043.5174
      -286.956        -223.602
  -1959995.850 9  -1519642.60948  20877518.920    20877519.5814   20877526.9244
       497.779         387.880
  -6415245.577 9  -4977564.798 9  21671384.867    21671385.782    21671392.633
      2364.104        1842.159
 96 10  7 16  6  0.0000000  0  6  6 22 23 26 17 28                   0.000683064
   2924254.660 9   2239683.76648  21047786.558    21047787.7364   21047794.7844
     -1939.413       -1511.231
  -1557300.315 9  -1207392.94947  23671957.896    23671958.6624   23671966.6244
       -62.787         -48.925
  -4246415.269 9  -3294979.78048  21150361.522    21150362.3344   21150369.7924
      1237.842         964.552
  -1165896.243 9   -902616.53548  22351730.419    22351731.5854   22351738.0364
      -306.845        -239.100
  -1974815.431 9  -1531190.32548  20874698.844    20874699.5164   20874706.8404
       489.987         381.808
  -6485976.784 9  -5032680.005 9  21657925.270    21657926.090    21657932.896
      2351.158        1832.071
 96 10  7 16  6 30.0000000  0  6  6 22 23 26 17 28                   0.000683468
   2982687.340 9   2285215.71448  21058905.992    21058907.1144   21058914.2074
     -1955.819       -1524.015
  -1555143.958 9  -1205712.66447  23672367.589    23672369.0134   23672377.0034
       -80.711         -62.892
  -4283349.149 9  -3323759.40248  21143333.234    21143334.0554   21143341.4994
      1224.512         954.165
  -1156395.302 9   -895213.18948  22353538.783    22353539.5194   22353545.9574
      -326.293        -254.254
  -1989409.389 9  -1542562.23448  20871921.771    20871922.4134   20871929.6934
       483.110         376.449
  -6556323.130 9  -5087495.321 9  21644538.923    21644539.638    21644546.406
      2338.778        1822.424
 96 10  7 16  7  0.0000000  0  6  6 22 23 26 17 28                   0.000683911
   3041618.615 9   2331136.18348  21070120.336    21070121.4134   21070128.5094
     -1972.739       -1537.199
  -1552437.680 9  -1203603.87347  23672882.983    23672884.0304   23672892.0254
       -99.430         -77.478
  -4319856.514 9  -3352206.67448  21136386.114    21136386.9284   21136394.3434
      1209.417         942.403
  -1146297.810 9   -887345.00048  22355460.134    22355461.0104   22355467.4074
      -346.878        -270.295
  -2003783.938 9  -1553763.16548  20869186.339    20869187.0174   20869194.3204
       475.184         370.273
  -6626285.036 9  -5142011.072 9  21631225.641    21631226.353    21631233.073
      2325.467        1812.052
 96 10  7 16  7 30.0000000  0  6  6 22 23 26 17 28                   0.000684384
   3101052.143 9   2377448.01248  21081430.267    21081431.2724   21081438.3294
     -1989.506       -1550.264
  -1549184.617 9  -1201069.01847  23673502.065    23673503.1044   23673511.0514
      -117.296         -91.399
  -4355919.843 9  -3380307.94248  21129523.556    21129524.2964   21129531.6724
      1194.753         930.976
  -1135575.164 9   -878989.67848  22357500.469    22357501.4554   22357507.8554
      -367.929        -286.698
  -2017916.396 9  -1564775.45548  20866496.988    20866497.7114   20866504.9674
       466.909         363.825
  -6695854.193 9  -5196220.786 9  21617986.898    21617987.805    21617994.476
      2312.449        1801.908
 96 10  7 16  8  0.0000000  0  6  6 22 23 26 17 28                   0.000684881
   3160994.061 9   2424155.98648  21092836.777    21092837.7994   21092844.8674
     -2006.597       -1563.582
  -1545396.694 9  -1198117.38847  23674223.059    23674223.8694   23674231.8864
      -135.256        -105.394
  -4391530.446 9  -3408056.44248  21122747.027    21122747.8084   21122755.1944
      1179.329         918.958
  -1124210.962 9   -870134.44848  22359663.252    22359663.9674   22359670.3484
      -389.536        -303.535
  -2031794.856 9  -1575589.83148  20863856.040    20863856.7454   20863864.0084
       458.329         357.139
  -6765025.567 9  -5250120.537 9  21604823.979    21604824.906    21604831.610
      2299.048        1791.466
 96 10  7 16  8 30.0000000  0  7  6 22 23  3 26 17 28                0.000685403
   3221445.378 9   2471260.89948  21104340.190    21104341.2914   21104348.3944
     -2023.310       -1576.605
  -1541074.099 9  -1194749.13747  23675045.562    23675046.4244   23675054.4744
      -152.700        -118.987
  -4426695.344 9  -3435457.64248  21116055.363    21116056.1764   21116063.5384
      1165.025         907.812
  -1159797.82319   -888875.60156  25406211.785    25406213.0685   25406221.2555
      3549.617        2765.935
  -1112201.981 9   -860776.78748  22361948.111    22361949.1974   22361955.5374
      -411.052        -320.300
  -2045418.299 9  -1586205.48948  20861263.568    20861264.2944   20861271.5444
       449.831         350.518
  -6833803.500 9  -5303713.709 9  21591736.118    21591736.873    21591743.619
      2286.139        1781.407
 96 10  7 16  9  0.0000000  0  7  6 22 23  3 26 17 28                0.000685946
   3282401.471 9   2518759.14448  21115939.747    21115940.8834   21115947.9684
     -2039.741       -1589.409
  -1536224.322 9  -1190970.08247  23675969.063    23675969.2834   23675977.3544
      -169.981        -132.453
  -4461416.899 9  -3462513.37948  21109448.062    21109448.8754   21109456.2304
      1150.524         896.512
  -1266238.445 9   -971816.35046  25385957.123    25385958.0664   25385966.1904
      3547.316        2764.142
  -1099532.289 9   -850904.29248  22364359.244    22364360.1224   22364366.4474
      -432.935        -337.352
  -2058765.215 9  -1596605.67248  20858723.779    20858724.4884   20858731.7124
       440.747         343.439
  -6902180.328 9  -5356994.337 9  21578724.420    21578725.172    21578731.933
      2272.999        1771.168
 96 10  7 16  9 30.0000000  0  7  6 22 23  3 26 17 28                0.000686496
   3343844.400 9   2566636.74148  21127632.015    21127633.1054   21127640.1664
     -2056.311       -1602.320
  -1530860.831 9  -1186790.74947  23676990.075    23676989.9874   23676997.9444
      -187.463        -146.075
  -4495714.842 9  -3489239.02848  21102921.436    21102922.1964   21102929.5084
      1136.082         885.259
  -1372628.898 9  -1054717.99646  25365711.349    25365712.7344   25365720.7564
      3545.535        2762.755
  -1086211.858 9   -840524.72848  22366893.799    22366894.9134   22366901.1964
      -454.617        -354.247
  -2071844.522 9  -1606797.33348  20856234.902    20856235.6024   20856242.7804
       431.583         336.298
  -6970165.401 9  -5409969.697 9  21565787.354    21565788.063    21565794.793
      2259.471        1760.627
 96 10  7 16 10  0.0000000  0  7  6 22 23  3 26 17 28                0.000687055
   3405775.305 9   2614894.58148  21139417.148    21139418.1804   21139425.2064
     -2072.425       -1614.877
  -1524976.701 9  -1182205.71847  23678109.336    23678109.7304   23678117.6514
      -204.923        -159.680
  -4529583.806 9  -3515630.40748  21096476.360    21096477.1464   21096484.4644
      1121.817         874.143
  -1478985.843 9  -1137593.55846  25345472.114    25345473.6944   25345481.7074
      3544.836        2762.210
  -1072262.936 9   -829655.42748  22369548.162    22369549.3404   22369555.6144
      -475.233        -370.311
  -2084669.163 9  -1616790.54848  20853794.392    20853795.1554   20853802.3244
       423.437         329.951
  -7037752.226 9  -5462634.736 9  21552925.920    21552926.720    21552933.411
      2246.285        1750.352
 96 10  7 16 10 30.0000000  0  7  6 22 23  3 26 17 28                0.000687635
   3468191.684 9   2663530.71148  21151294.632    21151295.6254   21151302.6484
     -2088.551       -1627.442
  -1518560.794 9  -1177206.30947  23679329.841    23679330.6344   23679338.5634
      -222.610        -173.462
  -4563026.340 9  -3541689.50748  21090112.437    21090113.2444   21090120.5834
      1107.570         863.042
  -1585322.794 9  -1220453.50846  25325237.440    25325238.3704   25325246.4574
      3544.168        2761.689
  -1057701.396 9   -818308.76748  22372319.167    22372320.2974   22372326.6114
      -495.387        -386.016
  -2097250.021 9  -1626593.80848  20851400.335    20851401.1134   20851408.2414
       415.499         323.765
  -7104940.791 9  -5514989.445 9  21540140.387    21540141.138    21540147.815
      2232.963        1739.971
 96 10  7 16 11  0.0000000  0  7  6 22 23  3 26 17 28                0.000688234
   3531093.254 9   2712544.91648  21163264.448    21163265.3764   21163272.4524
     -2105.297       -1640.491
  -1511614.421 9  -1171793.54447  23680651.945    23680652.5334   23680660.4424
      -240.862        -187.685
  -4596030.970 9  -3567407.38148  21083831.921    21083832.6874   21083840.0024
      1092.522         851.316
  -1691638.522 9  -1303296.92746  25305006.249    25305007.0534   25305015.2454
      3543.147        2760.894
  -1042546.272 9   -806499.57248  22375203.554    22375204.2284   22375210.5494
      -515.110        -401.384
  -2109602.367 9  -1636219.00248  20849049.786    20849050.5244   20849057.6704
       407.760         317.735
  -7171726.382 9  -5567030.146 9  21527431.367    21527432.226    21527438.930
      2219.106        1729.174
 96 10  7 16 11 30.0000000  0  7  6 22 23  3 26 17 28                0.000688847
   3594493.642 9   2761947.80848  21175329.008    21175330.0354   21175337.1544
     -2121.746       -1653.309
  -1504132.509 9  -1165963.48847  23682075.871    23682076.3584   23682084.1734
      -258.229        -201.217
  -4628600.274 9  -3592786.03448  21077634.203    21077634.9754   21077642.2524
      1078.363         840.283
  -1797932.065 9  -1386123.04046  25284779.126    25284779.9764   25284788.2834
      3542.524        2760.408
  -1026822.304 9   -794247.12548  22378195.710    22378196.3514   22378202.7284
      -533.413        -415.646
  -2121734.649 9  -1645672.71848  20846741.099    20846741.7974   20846748.9764
       400.786         312.301
  -7238108.789 9  -5618756.678 9  21514799.027    21514800.085    21514806.762
      2206.057        1719.005
 96 10  7 16 12  0.0000000  0  7  6 22 23  3 26 17 28                0.000689474
   3658406.025 9   2811749.65248  21187491.176    21187492.1594   21187499.2944
     -2139.012       -1666.763
  -1496113.292 9  -1159714.75647  23683601.828    23683602.4134   23683610.1854
      -276.350        -215.338
  -4660725.823 9  -3617818.91148  21071520.892    21071521.6554   21071528.9544
      1063.452         828.664
  -1904183.978 9  -1468916.72746  25264559.818    25264560.9174   25264569.1504
      3540.829        2759.088
  -1010530.556 9   -781552.25548  22381295.226    22381296.5664   22381302.9724
      -552.996        -430.906
  -2133641.994 9  -1654951.16248  20844475.233    20844475.9234   20844483.0994
       392.909         306.163
  -7304084.436 9  -5670166.253 9  21502244.430    21502245.337    21502251.995
      2192.295        1708.282
 96 10  7 16 12 30.0000000  0  7  6 22 23  3 26 17 28                0.000690124
   3722824.455 9   2861945.82048  21199749.617    21199750.6034   21199757.7534
     -2155.623       -1679.706
  -1487558.373 9  -1153048.58647  23685230.210    23685230.3474   23685238.1354
      -293.875        -228.994
  -4692411.076 9  -3642508.69548  21065491.362    21065492.1584   21065499.4744
      1048.763         817.218
  -2010375.665 9  -1551663.45546  25244352.597    25244353.3764   25244361.5194
      3538.503        2757.275
   -993646.997 9   -768396.23548  22384507.544    22384509.4474   22384515.8574
      -572.744        -446.294
  -2145312.513 9  -1664045.05948  20842254.424    20842255.1174   20842262.2864
       385.077         300.060
  -7369650.628 9  -5721256.768 9  21489767.496    21489768.478    21489775.139
      2178.684        1697.676
 96 10  7 16 13  0.0000000  0  7  6 22 23  3 26 17 28                0.000690782
   3787738.135 9   2912527.90448  21212102.456    21212103.2984   21212110.4574
     -2171.572       -1692.134
  -1478491.534 9  -1145983.52947  23686955.468    23686955.8184   23686963.5314
      -310.249        -241.752
  -4723658.028 9  -3666856.94748  21059545.372    21059546.0954   21059553.3694
      1034.862         806.386
  -2116494.515 9  -1634353.44246  25224158.945    25224159.6504   25224167.7124
      3536.463        2755.685
   -976172.469 9   -754779.71848  22387833.176    22387834.7614   22387841.1554
      -591.931        -461.245
  -2156755.030 9  -1672961.29648  20840076.983    20840077.6774   20840084.8334
       378.140         294.655
  -7434811.777 9  -5772031.662 9  21477367.769    21477368.670    21477375.386
      2165.718        1687.572
 96 10  7 16 13 30.0000000  0  7  6 22 23  3 26 17 28                0.000691449
   3853131.792 9   2963483.99048  21224546.347    21224547.3324   21224554.4874
     -2187.705       -1704.705
  -1468929.915 9  -1138532.90447  23688774.879    23688775.3874   23688783.0934
      -327.008        -254.811
  -4754482.185 9  -3690875.75148  21053679.686    21053680.4334   21053687.7054
      1020.138         794.913
  -2222543.728 9  -1716989.18046  25203978.747    25203979.0714   25203987.1304
      3533.618        2753.468
   -958102.077 9   -740698.88748  22391271.698    22391273.4294   22391279.8384
      -612.655        -477.394
  -2167990.093 9  -1681715.88048  20837938.951    20837939.6804   20837946.8254
       371.087         289.159
  -7499574.970 9  -5822496.464 9  21465043.699    21465044.633    21465051.338
      2151.941        1676.837
 96 10  7 16 14  0.0000000  0  7  6 22 23  3 26 17 28                0.000692132
   3918985.121 9   3014798.26148  21237077.777    21237078.8194   21237085.9634
     -2202.580       -1716.296
  -1458884.302 9  -1130705.15347  23690686.248    23690686.9564   23690694.7414
      -342.994        -267.268
  -4784874.496 9  -3714558.05648  21047896.176    21047896.9324   21047904.2024
      1005.972         783.874
  -2328523.056 9  -1799570.46146  25183811.358    25183811.8044   25183819.7974
      3531.429        2751.763
   -939415.481 9   -726137.90448  22394828.006    22394829.3994   22394835.7914
      -633.319        -493.495
  -2179036.422 9  -1690323.40448  20835836.864    20835837.6464   20835844.7744
       365.057         284.460
  -7563936.510 9  -5872648.292 9  21452796.047    21452797.030    21452803.732
      2138.612        1666.451
 96 10  7 16 14 30.0000000  0  7  6 22 23  3 26 17 28                0.000692833
   3985284.101 9   3066459.80248  21249694.088    21249695.1114   21249702.2554
     -2217.238       -1727.718
  -1448348.160 9  -1122495.17647  23692691.368    23692691.9624   23692699.7194
      -359.152        -279.859
  -4814834.650 9  -3737903.60448  21042195.000    21042195.7054   21042202.9634
       991.563         772.646
  -2434426.488 9  -1882092.58046  25163658.811    25163658.9414   25163666.9294
      3529.025        2749.890
   -920105.617 9   -711091.24848  22398502.305    22398503.9624   22398510.3284
      -653.593        -509.293
  -2189892.953 9  -1698783.02148  20833770.934    20833771.7094   20833778.8354
       358.883         279.649
  -7627889.957 9  -5922482.116 9  21440626.211    21440627.072    21440633.786
      2125.147        1655.959
 96 10  7 16 15  0.0000000  0  7  6 22 23  3 26 17 28                0.000693540
   4052017.286 9   3118459.68148  21262392.951    21262394.0324   21262401.1974
     -2231.800       -1739.065
  -1437330.484 9  -1113909.98247  23694788.336    23694788.5954   23694796.2934
      -375.801        -292.832
  -4844376.753 9  -3760923.40448  21036573.407    21036574.0324   21036581.2854
       977.735         761.871
  -2540266.362 9  -1964565.17846  25143517.904    25143518.2294   25143526.2034
      3526.675        2748.058
   -900198.576 9   -695579.26748  22402290.696    22402292.1734   22402298.4794
      -673.877        -525.099
  -2200565.243 9  -1707099.07748  20831740.039    20831740.8304   20831747.9434
       352.092         274.357
  -7691443.760 9  -5972004.533 9  21428532.403    21428533.173    21428539.891
      2111.465        1645.297
 96 10  7 16 15 30.0000000  0  7  6 22 23  3 26 17 28                0.000694254
   4119165.678 9   3170783.08748  21275170.992    21275171.9734   21275179.1384
     -2244.914       -1749.284
  -1425815.401 9  -1104937.19247  23696979.284    23696979.8134   23696987.5384
      -391.990        -305.447
  -4873523.566 9  -3783635.18948  21031026.955    21031027.5854   21031034.8144
       965.272         752.160
  -2646058.258 9  -2047000.37746  25123386.000    25123386.7654   25123394.6654
      3525.895        2747.451
   -879689.528 9   -679598.19648  22406193.375    22406194.9224   22406201.2454
      -693.302        -540.235
  -2211031.769 9  -1715254.80548  20829748.370    20829749.1414   20829756.2224
       345.340         269.096
  -7754600.001 9  -6021217.173 9  21416514.039    21416514.955    21416521.653
      2098.840        1635.460
 96 10  7 16 16  0.0000000  0  7  6 22 23  3 26 17 28                0.000694964
   4186729.337 9   3223430.09248  21288028.086    21288028.9414   21288036.0764
     -2259.048       -1760.297
  -1413795.080 9  -1095570.71047  23699266.862    23699267.1784   23699274.9254
      -409.039        -318.732
  -4902283.581 9  -3806045.56248  21025554.100    21025554.7314   21025561.9164
       952.554         742.250
  -2751805.941 9  -2129401.13446  25103262.876    25103263.7224   25103271.4874
      3524.239        2746.160
   -858592.706 9   -663159.11548  22410207.247    22410209.5664   22410215.8594
      -712.736        -555.379
  -2221259.745 9  -1723224.64448  20827802.071    20827802.8274   20827809.8964
       336.842         262.474
  -7817359.095 9  -6070120.339 9  21404571.383    21404572.312    21404578.962
      2085.480        1625.049
 96 10  7 16 16 30.0000000  0  7  6 22 23  3 26 17 28                0.000695683
   4254740.111 9   3276425.48548  21300970.195    21300971.0184   21300978.0954
     -2274.847       -1772.608
  -1401242.322 9  -1085789.35647  23701655.414    23701655.9504   23701663.7324
      -427.273        -332.940
  -4930651.143 9  -3828150.13948  21020155.896    21020156.5654   21020163.7634
       938.816         731.545
  -2857481.917 9  -2211745.99846  25083153.391    25083154.4084   25083162.0824
      3521.099        2743.714
   -836904.838 9   -646259.48348  22414334.933    22414336.6674   22414342.9574
      -732.790        -571.005
  -2231207.953 9  -1730976.48948  20825908.998    20825909.7534   20825916.7984
       326.781         254.635
  -7879702.951 9  -6118699.950 9  21392707.646    21392708.681    21392715.299
      2071.005        1613.770
 96 10  7 16 17  0.0000000  0  7  6 22 23  3 26 17 28                0.000696416
   4323213.283 9   3329781.19548  21314000.099    21314001.0624   21314008.1334
     -2289.846       -1784.296
  -1388161.276 9  -1075596.33047  23704145.347    23704145.1254   23704152.9844
      -444.517        -346.377
  -4958623.723 9  -3849946.93048  21014832.879    21014833.5614   21014840.7354
       926.141         721.668
  -2963071.980 9  -2294023.92746  25063060.015    25063061.3874   25063068.9364
      3518.454        2741.652
   -814619.360 9   -628894.17748  22418575.900    22418577.4494   22418583.7204
      -752.745        -586.555
  -2240871.309 9  -1738506.36648  20824070.120    20824070.8684   20824077.9084
       317.773         247.615
  -7941621.151 9  -6166947.878 9  21380925.031    21380926.039    21380932.627
      2057.112        1602.944
 96 10  7 16 17 30.0000000  0  7  6 22 23  3 26 17 28                0.000697149
   4392138.243 9   3383488.94248  21327116.015    21327117.0514   21327124.1324
     -2304.966       -1796.077
  -1374581.550 9  -1065014.74247  23706729.166    23706729.2124   23706737.1214
      -460.310        -358.683
  -4986214.134 9  -3871445.93348  21009582.571    21009583.2744   21009590.4404
       913.380         711.725
  -3068592.911 9  -2376247.99846  25042980.000    25042981.4954   25042988.9014
      3516.555        2740.173
   -791749.542 9   -611073.54248  22422928.143    22422929.3794   22422935.6474
      -771.456        -601.135
  -2250282.299 9  -1745839.59648  20822279.265    20822279.9854   20822287.0504
       310.175         241.695
  -8003133.570 9  -6214879.618 9  21369219.494    21369220.608    21369227.212
      2043.946        1592.685
 96 10  7 16 18  0.0000000  0  7  6 22 23  3 26 17 28                0.000697862
   4461520.776 9   3437553.24348  21340319.087    21340320.0974   21340327.2284
     -2319.968       -1807.767
  -1360540.605 9  -1054073.75647  23709400.966    23709401.1304   23709409.0124
      -475.169        -370.262
  -5013410.141 9  -3892637.60248  21004407.457    21004408.0694   21004415.2074
       900.216         701.467
  -3174042.977 9  -2458416.84846  25022913.021    25022915.0824   25022922.4754
      3514.132        2738.285
   -768321.228 9   -592817.71548  22427386.252    22427387.6044   22427393.9084
      -789.958        -615.552
  -2259478.227 9  -1753005.24348  20820529.337    20820530.0814   20820537.1044
       303.589         236.563
  -8064246.440 9  -6262500.016 9  21357590.112    21357591.206    21357597.806
      2030.818        1582.456
 96 10  7 16 18 30.0000000  0  7  6 22 23  3 26 17 28                0.000698559
   4531361.927 9   3491974.91148  21353609.406    21353610.4354   21353617.5824
     -2335.609       -1819.955
  -1346044.032 9  -1042777.73647  23712159.444    23712159.7034   23712167.6554
      -490.864        -382.491
  -5040196.298 9  -3913509.91248  20999310.088    20999310.8234   20999317.9864
       885.825         690.253
  -3279411.246 9  -2540521.92746  25002862.063    25002864.0954   25002871.5714
      3510.940        2735.797
   -744324.944 9   -574119.31248  22431952.517    22431953.9594   22431960.2424
      -809.341        -630.655
  -2268473.482 9  -1760014.52248  20818817.681    20818818.3524   20818825.3804
       296.542         231.072
  -8124953.542 9  -6309804.229 9  21346037.922    21346039.041    21346045.621
      2016.694        1571.450
 96 10  7 16 19  0.0000000  0  7  6 22 23  3 26 17 28                0.000699224
   4601640.087 9   3546737.10448  21366982.883    21366983.9044   21366991.0964
     -2349.840       -1831.044
  -1331107.201 9  -1031138.64547  23715000.845    23715002.0034   23715010.0184
      -505.275        -393.721
  -5066573.779 9  -3934063.77448  20994290.673    20994291.3464   20994298.5124
       872.414         679.803
  -3384713.592 8  -2622575.65046  24982824.447    24982825.6494   24982833.1994
      3509.109        2734.371
   -719769.611 9   -554985.28648  22436625.432    22436626.7554   22436632.9694
      -827.846        -645.075
  -2277285.382 9  -1766880.93148  20817140.847    20817141.5044   20817148.5344
       290.630         226.465
  -8185259.628 9  -6356795.970 9  21334561.973    21334563.188    21334569.747
      2003.505        1561.173
 96 10  7 16 19 30.0000000  0  7  6 22 23  3 26 17 28                0.000699862
   4672363.912 9   3601846.57048  21380441.125    21380442.1894   21380449.4054
     -2365.223       -1843.031
  -1315727.785 9  -1019154.69147  23717927.879    23717928.6204   23717936.6634
      -520.340        -405.460
  -5092534.755 9  -3954293.08648  20989350.437    20989351.1474   20989358.2964
       858.169         668.703
  -3489961.877 8  -2704587.25546  24962796.539    24962797.4484   24962805.1324
      3507.148        2732.843
   -694660.273 9   -535419.55948  22441403.842    22441404.9384   22441411.1354
      -846.339        -659.485
  -2285908.316 9  -1773600.08648  20815500.032    20815500.6394   20815507.6464
       283.944         221.255
  -8245157.416 9  -6403469.549 9  21323163.843    21323164.999    21323171.564
      1989.374        1550.162
 96 10  7 16 20  0.0000000  0  7  6 22 23  3 26 17 28                0.000700469
   4743530.622 9   3657301.13548  21393983.656    21393984.7704   21393991.9844
     -2379.305       -1854.004
  -1299899.695 9  -1006821.11147  23720940.145    23720940.6224   23720948.6844
      -535.087        -416.951
  -5118082.771 9  -3974200.60948  20984488.841    20984489.5334   20984496.6664
       845.071         658.497
  -3595157.152 8  -2786557.55646  24942779.190    24942779.3724   24942787.0574
      3505.858        2731.837
   -669002.019 9   -515426.10848  22446286.363    22446287.5634   22446293.7414
      -864.278        -673.463
  -2294339.808 9  -1780170.07348  20813895.601    20813896.1964   20813903.1864
       277.959         216.591
  -8304639.256 9  -6449819.018 9  21311844.770    21311845.977    21311852.541
      1976.073        1539.797
 96 10  7 16 20 30.0000000  0  7  6 22 23  3 26 17 28                0.000701060
   4815132.118 9   3713094.50548  21407608.982    21407610.0824   21407617.2724
     -2394.167       -1865.585
  -1283610.796 9   -994128.47047  23724039.540    23724040.2884   23724048.3804
      -550.883        -429.259
  -5143237.236 9  -3993801.47548  20979701.968    20979702.7764   20979709.9064
       831.854         648.198
  -3700314.142 8  -2868498.01145  24922768.397    24922768.5474   24922776.5284
      3504.475        2730.760
   -642793.145 9   -495003.60848  22451273.940    22451274.9804   22451281.1604
      -883.113        -688.140
  -2302576.487 9  -1786588.25448  20812328.182    20812328.7924   20812335.7904
       271.171         211.302
  -8363714.074 9  -6495851.330 9  21300603.274    21300604.426    21300610.975
      1962.201        1528.988
 96 10  7 16 21  0.0000000  0  7  6 22 23  3 26 17 28                0.000701655
   4887172.358 9   3769229.74348  21421317.919    21421318.9014   21421326.0754
     -2408.661       -1876.879
  -1266860.127 9   -981076.02047  23727227.144    23727227.8654   23727235.9384
      -565.971        -441.016
  -5168007.165 9  -4013102.69748  20974988.519    20974989.2194   20974996.3344
       819.554         638.614
  -3805436.680 8  -2950411.61645  24902764.014    24902764.4054   24902772.1984
      3503.555        2730.043
   -616017.669 9   -474139.59548  22456369.155    22456370.1684   22456376.3844
      -901.961        -702.827
  -2310620.803 9  -1792856.54248  20810797.413    20810798.0114   20810805.0094
       265.122         206.589
  -8422379.546 9  -6541564.669 9  21289439.640    21289440.728    21289447.298
      1948.804        1518.549
 96 10  7 16 21 30.0000000  0  7  6 22 23  3 26 17 28                0.000702274
   4959661.637 9   3825714.88548  21435112.355    21435113.2124   21435120.3344
     -2423.869       -1888.729
  -1249642.961 9   -967660.03947  23730503.693    23730504.1924   23730512.2554
      -581.931        -453.453
  -5192409.453 9  -4032117.44548  20970344.879    20970345.6524   20970352.7304
       807.204         628.990
  -3910522.129 8  -3032296.33145  24882767.382    24882767.2404   24882775.1114
      3501.863        2728.724
   -588675.501 9   -452834.00848  22461572.530    22461573.1904   22461579.4204
      -920.989        -717.654
  -2318482.593 9  -1798982.59848  20809301.366    20809301.9804   20809308.9414
       258.793         201.657
  -8480638.462 9  -6586961.213 9  21278353.331    21278354.411    21278360.971
      1935.026        1507.812
 96 10  7 16 22  0.0000000  0  7  6 22 23  3 26 17 28                0.000702949
   5032590.211 9   3882542.33948  21448990.112    21448991.0684   21448998.2154
     -2437.854       -1899.626
  -1231945.099 9   -953869.50847  23733871.009    23733872.0044   23733880.0384
      -597.734        -465.767
  -5216440.553 9  -4050842.95448  20965771.802    20965772.6744   20965779.7564
       795.008         619.487
  -4015548.698 8  -3114135.16645  24862781.185    24862781.3554   24862789.1494
      3499.992        2727.266
   -560756.424 9   -431078.88248  22466885.006    22466886.0224   22466892.2194
      -940.088        -732.536
  -2326146.756 9  -1804954.66348  20807842.842    20807843.5604   20807850.4944
       252.282         196.583
  -8538487.026 9  -6632037.999 9  21267345.158    21267346.197    21267352.740
      1921.682        1497.415
 96 10  7 16 22 30.0000000  0  7  6 22 23  3 26 17 28                0.000703608
   5105938.847 9   3939697.11248  21462947.736    21462948.8524   21462956.0164
     -2451.756       -1910.459
  -1213772.606 9   -939709.12547  23737329.500    23737330.1744   23737338.1934
      -613.419        -477.989
  -5240105.265 9  -4069282.96848  20961268.540    20961269.4354   20961276.4994
       782.734         609.923
  -4120508.754 8  -3195922.14145  24842807.572    24842808.1124   24842815.7964
      3497.367        2725.221
   -532255.997 9   -408870.75048  22472308.152    22472309.4644   22472315.6714
      -959.613        -747.750
  -2333607.765 9  -1810768.42448  20806423.132    20806423.7844   20806430.7274
       245.460         191.268
  -8595927.302 9  -6676796.641 9  21256414.579    21256415.662    21256422.205
      1907.772        1486.576
 96 10  7 16 23  0.0000000  0  7  6 22 23  3 26 17 28                0.000704269
   5179692.433 9   3997167.42348  21476982.653    21476983.7214   21476990.8904
     -2465.424       -1921.110
  -1195135.742 9   -925186.90247  23740876.038    23740876.7154   23740884.7004
      -629.265        -490.336
  -5263406.068 9  -4087439.41648  20956834.547    20956835.4244   20956842.4764
       770.417         600.325
  -4225388.838 8  -3277646.81245  24822848.597    24822849.9814   24822857.9054
      3494.364        2722.881
   -503186.673 9   -386219.32648  22477839.998    22477841.1884   22477847.3504
      -978.437        -762.418
  -2340869.066 9  -1816426.57248  20805041.322    20805042.0164   20805048.9134
       238.238         185.640
  -8652951.281 9  -6721230.898 9  21245563.241    21245564.347    21245570.882
      1893.516        1475.467
 96 10  7 16 23 30.0000000  0  7  6 22 23  3 26 17 28                0.000704917
   5253842.289 9   4054946.52148  21491092.973    21491094.0114   21491101.1514
     -2477.754       -1930.717
  -1176031.687 9   -910300.64447  23744511.765    23744512.0804   23744520.0564
      -644.174        -501.954
  -5286335.134 9  -4105306.19848  20952471.306    20952472.1314   20952479.2024
       758.184         590.793
  -4330180.853 8  -3359302.88545  24802907.041    24802908.5534   24802916.6414
      3491.859        2720.929
   -473564.686 9   -363137.25348  22483476.545    22483478.0924   22483484.2224
      -996.326        -776.358
  -2347907.154 9  -1821910.78548  20803702.010    20803702.7114   20803709.6004
       230.975         179.981
  -8709552.108 9  -6765335.427 9  21234792.495    21234793.578    21234800.102
      1879.899        1464.856
 96 10  7 16 24  0.0000000  0  7  6 22 23  3 26 17 28                0.000705532
   5328363.007 9   4113014.59848  21505273.919    21505274.8704   21505281.9984
     -2490.335       -1940.521
  -1156481.066 9   -895066.40047  23748232.233    23748232.4724   23748240.4504
      -658.974        -513.486
  -5308884.997 9  -4122877.50348  20948180.129    20948181.0014   20948188.1004
       745.369         580.807
  -4434885.950 8  -3440891.19145  24782982.421    24782983.8564   24782991.7754
      3488.715        2718.479
   -443392.686 9   -339626.60048  22489218.351    22489219.6054   22489225.7624
     -1014.989        -790.901
  -2354715.714 9  -1827216.14348  20802406.387    20802407.0694   20802413.9944
       223.313         174.010
  -8765735.015 9  -6809114.302 9  21224101.282    21224102.337    21224108.837
      1865.776        1453.851
 96 10  7 16 24 30.0000000  0  7  6 22 23  3 26 17 28                0.000706111
   5403256.154 9   4171372.88348  21519525.549    21519526.5814   21519533.7204
     -2502.949       -1950.350
  -1136512.507 9   -879506.49447  23752032.083    23752032.3674   23752040.3824
      -672.518        -524.040
  -5331076.230 9  -4140169.35248  20943957.286    20943958.1324   20943965.2264
       733.833         571.818
  -4539514.372 8  -3522419.74945  24763072.465    24763073.6574   24763081.7794
      3486.421        2716.692
   -412674.688 9   -315690.49748  22495063.608    22495065.0524   22495071.2244
     -1032.975        -804.916
  -2361319.129 9  -1832361.65048  20801149.766    20801150.4884   20801157.4204
       216.555         168.744
  -8821507.532 9  -6852573.385 9  21213488.138    21213489.174    21213495.681
      1852.118        1443.209
 96 10  7 16 25  0.0000000  0  7  6 22 23  3 26 17 28                0.000706663
   5478551.770 9   4230044.77848  21533853.859    21533854.8754   21533862.0244
     -2516.398       -1960.830
  -1116122.400 9   -863618.11347  23755911.885    23755912.5524   23755920.5504
      -686.549        -534.973
  -5352905.848 9  -4157179.42448  20939803.326    20939804.0714   20939811.1844
       721.834         562.468
  -4644064.163 8  -3603887.05645  24743177.336    24743178.4674   24743186.5254
      3484.009        2714.812
   -381409.268 9   -291327.82648  22501013.579    22501014.6714   22501020.8134
     -1051.115        -819.051
  -2367698.106 9  -1837332.26648  20799935.891    20799936.6224   20799943.5294
       209.078         162.918
  -8876852.977 9  -6895699.690 9  21202956.231    21202957.287    21202963.782
      1837.958        1432.175
 96 10  7 16 25 30.0000000  0  7  6 22 23  3 26 17 28                0.000707195
   5554262.510 9   4289040.14548  21548261.060    21548262.1654   21548269.3164
     -2530.608       -1971.902
  -1095306.845 9   -847398.22347  23759873.077    23759873.6474   23759881.5764
      -700.907        -546.161
  -5374363.539 9  -4173899.68448  20935719.963    20935720.8094   20935727.9234
       709.028         552.489
  -4748533.304 8  -3685291.50145  24723296.288    24723298.4984   24723306.4164
      3480.922        2712.407
   -349588.746 9   -266532.60648  22507069.041    22507069.9374   22507076.0344
     -1069.851        -833.650
  -2373852.726 9  -1842128.05648  20798764.705    20798765.4464   20798772.3294
       201.806         157.251
  -8931766.491 9  -6938489.428 9  21192506.656    21192507.613    21192514.074
      1823.265        1420.726
 96 10  7 16 26  0.0000000  0  7  6 22 23  3 26 17 28                0.000707715
   5630388.152 9   4348358.81548  21562747.230    21562748.4114   21562755.5684
     -2544.217       -1982.507
  -1074077.768 9   -830856.08847  23763913.701    23763913.4394   23763921.3694
      -714.259        -556.565
  -5395459.939 9  -4190338.41348  20931705.522    20931706.3064   20931713.3904
       697.521         543.523
  -4852930.890 8  -3766640.17545  24703430.562    24703432.2794   24703440.2544
      3479.141        2711.019
   -317224.849 9   -241313.97848  22513227.219    22513228.5464   22513234.6384
     -1087.553        -847.444
  -2379821.303 9  -1846778.88348  20797629.024    20797629.6814   20797636.5544
       196.336         152.989
  -8986254.391 9  -6980947.512 9  21182137.952    21182138.889    21182145.369
      1809.388        1409.913
 96 10  7 16 26 30.0000000  0  7  6 22 23  3 26 17 28                0.000708219
   5706919.603 9   4407993.69848  21577310.679    21577311.8814   21577319.0264
     -2557.167       -1992.598
  -1052433.701 9   -813990.60647  23768031.601    23768032.1904   23768040.1224
      -728.270        -567.483
  -5416202.622 9  -4206501.52048  20927758.292    20927759.1184   20927766.1384
       685.725         534.331
  -4957273.827 8  -3847946.27545  24683575.505    24683576.2814   24683584.4204
      3477.531        2709.764
   -284332.792 9   -215683.79748  22519486.363    22519487.7034   22519493.7434
     -1104.562        -860.698
  -2385625.388 9  -1851301.52948  20796524.533    20796525.2064   20796532.0474
       191.053         148.872
  -9040319.030 9  -7023075.785 9  21171849.725    21171850.731    21171857.203
      1795.460        1399.060
 96 10  7 16 27  0.0000000  0  7  6 22 23  3 26 17 28                0.000708700
   5783833.598 9   4467926.66448  21591946.912    21591948.1564   21591955.2874
     -2570.219       -2002.768
  -1030351.530 9   -796783.73447  23772233.648    23772234.3004   23772242.2624
      -743.792        -579.578
  -5436573.760 9  -4222375.11848  20923881.882    20923882.6484   20923889.6424
       672.304         523.873
  -5061559.383 8  -3929207.69445  24663731.476    24663731.5594   24663739.4764
      3474.730        2707.582
   -250932.213 9   -189657.36748  22525842.233    22525843.6444   22525849.6704
     -1122.099        -874.363
  -2391271.910 9  -1855701.40548  20795450.020    20795450.6874   20795457.5074
       185.591         144.616
  -9093962.009 9  -7064875.493 9  21161641.876    21161642.815    21161649.256
      1780.880        1387.699
 96 10  7 16 27 30.0000000  0  7  6 22 23  3 26 17 28                0.000709169
   5861129.543 9   4528157.25948  21606655.948    21606657.1004   21606664.2364
     -2582.629       -2012.438
  -1007807.267 9   -779216.78947  23776524.251    23776524.3454   23776532.3144
      -758.840        -591.304
  -5456538.604 9  -4237932.11548  20920082.728    20920083.4984   20920090.4464
       658.950         513.467
  -5165755.418 8  -4010399.32945  24643903.495    24643903.7254   24643911.5294
      3471.809        2705.306
   -217007.562 9   -163222.56248  22532298.153    22532299.3674   22532305.3494
     -1139.431        -887.868
  -2396762.529 9  -1859979.79948  20794405.224    20794405.8634   20794412.6634
       180.452         140.612
  -9147173.454 9  -7106338.935 9  21151516.034    21151517.033    21151523.420
      1766.731        1376.674
 96 10  7 16 28  0.0000000  0  7  6 22 23  3 26 17 28                0.000709613
   5938791.360 9   4588672.94048  21621434.536    21621435.6874   21621442.8414
     -2594.732       -2021.869
   -984813.926 9   -761299.92747  23780899.443    23780899.8574   23780907.8584
      -773.916        -603.051
  -5476107.137 9  -4253180.30448  20916358.946    20916359.7044   20916366.6854
       645.749         503.181
  -5269864.101 8  -4091522.90745  24624091.670    24624092.4684   24624100.2084
      3468.805        2702.965
   -182552.945 9   -136374.80248  22538854.559    22538855.8614   22538861.8434
     -1157.407        -901.875
  -2402085.561 9  -1864127.60448  20793392.198    20793392.9214   20793399.7024
       174.375         135.877
  -9199959.598 9  -7147470.980 9  21141471.152    21141472.197    21141478.531
      1752.461        1365.554
 96 10  7 16 28 30.0000000  0  7  6 22 23  3 26 17 28                0.000710038
   6016815.644 9   4649471.07048  21636282.197    21636283.2294   21636290.4004
     -2607.065       -2031.479
   -961368.066 9   -743030.44847  23785361.384    23785361.4304   23785369.4774
      -789.117        -614.896
  -5495284.124 9  -4268123.39148  20912709.649    20912710.4114   20912717.4074
       632.796         493.088
  -5373876.238 8  -4172571.26645  24604298.530    24604299.4844   24604307.4864
      3465.268        2700.209
   -147563.927 9   -109110.62948  22545513.044    22545514.0534   22545520.0484
     -1175.152        -915.703
  -2407219.034 9  -1868127.69848  20792415.350    20792416.0394   20792422.8284
       167.716         130.688
  -9252318.664 9  -7188270.230 9  21131507.531    21131508.601    21131514.947
      1738.075        1354.344
 96 10  7 16 29  0.0000000  0  7  6 22 23  3 26 17 28                0.000710442
   6095218.232 9   4710563.97648  21651201.697    21651202.7934   21651209.9634
     -2620.024       -2041.577
   -937484.406 9   -724419.81647  23789906.593    23789906.3684   23789914.4244
      -803.204        -625.873
  -5514088.609 9  -4282776.21548  20909131.200    20909132.0074   20909139.0104
       620.828         483.762
  -5477791.128 8  -4253543.83045  24584523.554    24584524.8874   24584533.2264
      3462.142        2697.773
   -112045.397 9    -81433.83448  22552271.988    22552272.9754   22552278.9994
     -1192.973        -929.589
  -2412150.810 9  -1871970.62448  20791476.875    20791477.5464   20791484.3424
       160.825         125.318
  -9304250.466 9  -7228736.546 9  21121625.227    21121626.286    21121632.666
      1723.798        1343.219
 96 10  7 16 29 30.0000000  0  7  6 22 23  3 26 17 28                0.000710830
   6174012.995 9   4771962.47448  21666195.870    21666197.0124   21666204.1424
     -2632.293       -2051.137
   -913188.549 9   -705487.99947  23794530.238    23794529.7644   23794537.7944
      -815.891        -635.759
  -5532546.142 9  -4297158.69548  20905618.755    20905619.6124   20905626.6644
       610.375         475.617
  -5581617.398 8  -4334447.34545  24564766.294    24564767.3584   24564775.6774
      3460.388        2696.406
    -75982.591 9    -53332.93748  22559134.228    22559135.4574   22559141.5374
     -1210.529        -943.269
  -2416860.663 9  -1875640.62448  20790580.581    20790581.2854   20790588.0834
       153.853         119.885
  -9355749.951 9  -7268865.995 9  21111825.305    21111826.272    21111832.637
      1710.089        1332.537
 96 10  7 16 30  0.0000000  0  7  6 22 23  3 26 17 28                0.000711199
   6253198.340 9   4833665.31548  21681264.356    21681265.5094   21681272.5954
     -2646.132       -2061.921
   -888487.648 9   -686240.56647  23799229.987    23799230.1994   23799238.2424
      -830.245        -646.944
  -5550672.552 9  -4311283.15348  20902169.426    20902170.2704   20902177.3134
       598.603         466.444
  -5685369.403 8  -4415293.00345  24545023.387    24545023.9494   24545032.3084
      3457.027        2693.787
    -39374.514 9    -24807.15448  22566100.792    22566101.7544   22566107.8364
     -1229.234        -957.845
  -2421344.799 9  -1879134.74448  20789727.296    20789728.0134   20789734.7934
       145.751         113.572
  -9406813.259 9  -7308655.567 9  21102108.284    21102109.231    21102115.618
      1694.717        1320.559
 96 10  7 16 30 30.0000000  0  7  6 22 23  3 26 17 28                0.000711555
   6332784.691 9   4895680.63348  21696409.232    21696410.3254   21696417.3814
     -2659.212       -2072.113
   -863380.819 9   -666676.80847  23804008.371    23804007.8444   23804015.9824
      -843.180        -657.023
  -5568463.590 9  -4325146.28048  20898783.889    20898784.7414   20898791.7714
       587.777         458.008
  -5789037.283 8  -4496073.10445  24525296.226    24525296.7024   24525305.0014
      3454.494        2691.814
     -2225.789 9      4139.91248  22573169.663    22573170.8664   22573177.0504
     -1246.927        -971.631
  -2425603.686 9  -1882453.34548  20788916.847    20788917.5594   20788924.3314
       138.594         107.995
  -9457432.384 9  -7348099.024 9  21092475.746    21092476.725    21092483.110
      1680.207        1309.252
 96 10  7 16 31  0.0000000  0  7  6 22 23  3 26 17 28                0.000711890
   6412762.783 9   4958001.19848  21711628.602    21711629.6754   21711636.7464
     -2672.519       -2082.482
   -837884.382 9   -646809.48247  23808859.205    23808859.7014   23808867.7994
      -856.702        -667.560
  -5585920.191 9  -4338748.81048  20895462.025    20895462.8354   20895469.8784
       575.923         448.771
  -5892621.143 9  -4576787.74046  24505584.991    24505585.3534   24505593.5454
      3451.001        2689.092
     35462.810 9     33507.66148  22580341.271    22580342.7534   22580348.9404
     -1265.667        -986.234
  -2429648.263 9  -1885604.94748  20788147.187    20788147.9044   20788154.6464
       131.142         102.189
  -9507611.641 9  -7387199.728 9  21082927.035    21082927.912    21082934.289
      1665.066        1297.454
 96 10  7 16 31 30.0000000  0  7  6 22 23  3 26 17 28                0.000712222
   6493139.586 9   5020632.45148  21726923.670    21726924.8894   21726931.9634
     -2685.638       -2092.705
   -811966.512 9   -626613.75747  23813791.124    23813791.6954   23813799.8604
      -871.033        -678.727
  -5602993.971 9  -4352053.03348  20892213.042    20892213.8214   20892220.8384
       562.572         438.368
  -5996085.187 9  -4657409.02146  24485896.403    24485896.8634   24485905.0024
      3446.839        2685.849
     73724.234 9     63321.75748  22587621.588    22587623.6374   22587629.8254
     -1284.748       -1001.102
  -2433465.778 9  -1888579.62448  20787420.760    20787421.4404   20787428.1674
       123.820          96.483
  -9557326.052 9  -7425938.215 9  21073466.745    21073467.568    21073473.948
      1649.469        1285.301
 96 10  7 16 32  0.0000000  0  7  6 22 23  3 26 17 28                0.000712547
   6573902.151 9   5083564.29848  21742292.131    21742293.5314   21742300.5894
     -2698.651       -2102.845
   -785630.030 9   -606091.83547  23818802.717    23818803.3644   23818811.5184
      -884.926        -689.553
  -5619681.724 9  -4365056.45648  20889037.559    20889038.2624   20889045.2484
       549.886         428.483
  -6099432.263 9  -4737939.15446  24466230.123    24466230.6724   24466238.7394
      3442.812        2682.711
    112536.724 9     93565.26548  22595008.186    22595009.4604   22595015.6004
     -1302.839       -1015.199
  -2437088.708 9  -1891402.67448  20786731.296    20786732.0114   20786738.7074
       117.568          91.611
  -9606585.107 9  -7464321.881 9  21064093.000    21064093.882    21064100.248
      1634.329        1273.503
 96 10  7 16 32 30.0000000  0  7  6 22 23  3 26 17 28                0.000712860
   6655048.125 9   5146794.90148  21757733.846    21757735.1594   21757742.2064
     -2711.118       -2112.559
   -758882.525 9   -585249.64547  23823892.471    23823893.3224   23823901.3974
      -898.488        -700.120
  -5635998.313 9  -4377770.66048  20885932.658    20885933.3244   20885940.2944
       537.793         419.059
  -6202670.207 9  -4818384.24846  24446584.676    24446585.1724   24446593.1424
      3439.648        2680.245
    151883.736 9    124225.28148  22602495.529    22602497.0054   22602503.0634
     -1320.296       -1028.802
  -2440527.702 9  -1894082.40048  20786076.921    20786077.5994   20786084.2844
       111.803          87.119
  -9655394.398 9  -7502355.087 9  21054804.850    21054805.768    21054812.137
      1619.520        1261.964
 96 10  7 16 33  0.0000000  0  7  6 22 23  3 26 17 28                0.000713164
   6736574.882 9   5210322.22548  21773247.977    21773249.2254   21773256.2684
     -2723.886       -2122.508
   -731710.226 9   -564076.43347  23829064.037    23829064.0674   23829072.0854
      -912.918        -711.365
  -5651940.421 9  -4390193.05948  20882898.963    20882899.6194   20882906.5674
       525.145         409.204
  -6305810.832 9  -4898753.50746  24426957.896    24426958.1164   24426966.0554
      3436.575        2677.851
    191759.981 9    155297.68248  22610083.672    22610085.2254   22610091.2394
     -1337.948       -1042.557
  -2443790.485 9  -1896624.81748  20785456.096    20785456.7294   20785463.3734
       105.740          82.395
  -9703747.677 9  -7540032.958 9  21045603.598    21045604.452    21045610.808
      1604.143        1249.982
 96 10  7 16 33 30.0000000  0  7  6 22 23  3 26 17 28                0.000713451
   6818481.607 9   5274145.62748  21788834.411    21788835.5564   21788842.6284
     -2736.721       -2132.510
   -704106.986 9   -542567.42647  23834317.700    23834316.7884   23834324.8264
      -927.396        -722.646
  -5667507.190 9  -4402322.99148  20879936.674    20879937.3664   20879944.2794
       512.593         399.423
  -6408856.649 9  -4979048.89346  24407348.489    24407349.0624   24407357.0024
      3432.959        2675.033
    232156.148 9    186775.21848  22617771.146    22617772.3954   22617778.4014
     -1355.279       -1056.062
  -2446865.124 9  -1899020.63148  20784871.027    20784871.6524   20784878.2854
        98.975          77.123
  -9751636.370 9  -7577348.812 9  21036490.700    21036491.518    21036497.892
      1588.267        1237.611
 96 10  7 16 34  0.0000000  0  7  6 22 23  3 26 17 28                0.000713718
   6900764.588 9   5338262.21948  21804492.499    21804493.5024   21804500.6214
     -2749.236       -2142.262
   -676081.494 9   -520729.39947  23839650.333    23839649.8804   23839657.9054
      -941.354        -733.523
  -5682724.310 9  -4414180.46748  20877040.907    20877041.6454   20877048.5424
       501.354         390.665
  -6511807.254 9  -5059270.08946  24387757.281    24387758.1804   24387766.1384
      3429.918        2672.663
    273058.400 9    218647.10448  22625554.878    22625555.8514   22625561.8154
     -1372.007       -1069.096
  -2449742.263 9  -1901262.54548  20784323.516    20784324.1644   20784330.7824
        92.212          71.853
  -9799061.464 9  -7614303.421 9  21027465.968    21027466.834    21027473.175
      1572.933        1225.662
 96 10  7 16 34 30.0000000  0  7  6 22 23  3 26 17 28                0.000713951
   6983410.430 9   5402661.55848  21820219.487    21820220.4974   21820227.6654
     -2760.730       -2151.218
   -647646.319 9   -498572.13147  23845060.094    23845060.9734   23845068.9564
      -954.732        -743.947
  -5697600.144 9  -4425772.00748  20874210.188    20874210.8844   20874217.7484
       489.916         381.753
  -6614665.414 9  -5139419.25446  24368183.638    24368184.7834   24368192.7454
      3426.751        2670.196
    314458.831 9    250907.19048  22633432.758    22633434.0854   22633440.0244
     -1388.336       -1081.820
  -2452405.446 9  -1903337.74548  20783816.710    20783817.3844   20783824.0074
        85.001          66.234
  -9846028.932 9  -7650901.438 9  21018528.446    21018529.235    21018535.540
      1557.878        1213.931
 96 10  7 16 35  0.0000000  0  7  6 22 23  3 26 17 28                0.000714161
   7066415.019 9   5467340.43548  21836014.552    21836015.7234   21836022.9434
     -2773.209       -2160.942
   -618795.623 9   -476091.07647  23850551.762    23850551.0474   23850559.1024
      -968.812        -754.918
  -5712115.116 9  -4437082.35948  20871448.089    20871448.7874   20871455.6334
       477.608         372.162
  -6717398.919 9  -5219471.29346  24348633.633    24348635.2084   24348643.0764
      3421.734        2666.286
    356368.280 9    283563.89748  22641407.715    22641409.1844   22641415.1184
     -1405.774       -1095.408
  -2454828.618 9  -1905225.92148  20783355.618    20783356.2744   20783362.8984
        76.330          59.478
  -9892526.927 9  -7687133.634 9  21009680.158    21009680.961    21009687.242
      1541.765        1201.375
 96 10  7 16 35 30.0000000  0  7  6 22 23  3 26 17 28                0.000714348
   7149782.518 9   5532302.10748  21851878.854    21851880.0304   21851887.2604
     -2784.766       -2169.948
   -589537.073 9   -453292.23247  23856118.351    23856118.7924   23856126.8574
      -981.814        -765.050
  -5726275.185 9  -4448116.16048  20868753.571    20868754.2334   20868761.0314
       466.294         363.346
  -6819978.341 9  -5299403.25546  24329113.373    24329114.9214   24329122.8314
      3416.755        2662.406
    398786.576 9    316617.11648  22649479.850    22649481.1434   22649487.0574
     -1422.219       -1108.223
  -2457005.078 9  -1906921.85048  20782941.475    20782942.1274   20782948.7324
        68.784          53.598
  -9938552.501 9  -7722997.707 9  21000921.634    21000922.581    21000928.852
      1526.512        1189.490
 96 10  7 16 36  0.0000000  0  7  6 22 23  3 26 17 28                0.000714515
   7233503.452 9   5597539.18548  21867810.495    21867811.5994   21867818.8264
     -2797.143       -2179.592
   -559883.313 9   -430185.41447  23861761.562    23861761.8134   23861769.7504
      -995.551        -775.754
  -5740090.870 9  -4458881.61248  20866124.514    20866125.1934   20866131.9934
       454.142         353.877
  -6922407.809 9  -5379218.38346  24309621.923    24309623.2884   24309631.0844
      3411.463        2658.283
    441702.649 9    350058.21248  22657646.865    22657647.8204   22657653.7414
     -1439.375       -1121.591
  -2458953.503 9  -1908440.09748  20782570.746    20782571.3544   20782577.9414
        60.589          47.212
  -9984116.972 9  -7758502.482 9  20992250.962    20992251.973    20992258.229
      1510.616        1177.103
 96 10  7 16 36 30.0000000  0  7  6 22 23  3 26 17 28                0.000714667
   7317589.217 9   5663060.53748  21883811.712    21883812.6594   21883819.8094
     -2808.920       -2188.769
   -529819.721 9   -406759.24547  23867484.025    23867482.6954   23867490.6454
     -1009.072        -786.290
  -5753537.684 9  -4469359.63448  20863565.697    20863566.3554   20863573.1494
       442.038         344.445
  -7024679.935 9  -5458910.90146  24290160.224    24290161.4984   24290169.2264
      3406.345        2654.295
    485133.698 9    383900.58448  22665911.355    22665912.4474   22665918.3984
     -1456.173       -1134.680
  -2460659.316 9  -1909769.29848  20782246.086    20782246.7504   20782253.3034
        53.036          41.327
 -10029203.516 9  -7793634.846 9  20983671.389    20983672.296    20983678.550
      1494.872        1164.835
 96 10  7 16 37  0.0000000  0  7  6 22 23  3 26 17 28                0.000714814
   7402046.644 9   5728871.50048  21899883.529    21899884.4304   21899891.5184
     -2821.575       -2198.630
   -499341.807 9   -383010.22847  23873284.614    23873282.4314   23873290.4494
     -1022.650        -796.870
  -5766622.466 9  -4479555.55148  20861075.752    20861076.4074   20861083.1854
       430.375         335.357
  -7126791.605 9  -5538478.39346  24270729.315    24270730.3134   24270737.9574
      3401.305        2650.368
    529079.069 9    418143.73248  22674273.868    22674274.9744   22674280.9864
     -1473.471       -1148.159
  -2462145.681 9  -1910927.49648  20781963.260    20781963.8874   20781970.4674
        46.142          35.955
 -10073811.661 9  -7828394.430 9  20975182.768    20975183.651    20975189.901
      1479.025        1152.487
 96 10  7 16 37 30.0000000  0  7  6 22 23  3 26 17 28                0.000714963
   7486889.646 9   5794982.91748  21916028.660    21916029.5844   21916036.6074
     -2834.912       -2209.022
   -468449.513 9   -358938.33047  23879162.733    23879161.0724   23879169.0614
     -1037.125        -808.149
  -5779345.435 9  -4489469.53648  20858654.590    20858655.3254   20858662.0804
       417.354         325.211
  -7228760.174 9  -5617934.36546  24251325.563    24251326.3004   24251333.8834
      3396.271        2646.445
    573556.013 9    452801.09648  22682737.496    22682738.6024   22682744.6484
     -1492.099       -1162.675
  -2463424.663 9  -1911924.09548  20781719.933    20781720.5434   20781727.0494
        38.687          30.146
 -10117937.084 9  -7862777.869 9  20966785.976    20966786.875    20966793.107
      1462.308        1139.461
 96 10  7 16 38  0.0000000  0  7  6 22 23  3 26 17 28                0.000715112
   7572116.686 9   5861393.57648  21932246.960    21932247.7974   21932254.7994
     -2846.738       -2218.237
   -437140.009 9   -334541.31847  23885119.778    23885119.0554   23885127.0594
     -1050.017        -818.195
  -5791688.095 9  -4499087.17848  20856305.879    20856306.5804   20856313.3384
       405.670         316.106
  -7330596.566 9  -5697287.36646  24231946.784    24231947.4784   24231955.0004
      3392.960        2643.865
    618582.890 9    487886.96248  22691305.709    22691306.8854   22691312.9574
     -1509.579       -1176.295
  -2464489.313 9  -1912753.68648  20781517.328    20781517.9334   20781524.4454
        32.437          25.276
 -10161572.360 9  -7896779.376 9  20958482.418    20958483.348    20958489.614
      1446.836        1127.405
 96 10  7 16 38 30.0000000  0  7  6 22 23  3 26 17 28                0.000715264
   7657724.777 9   5928101.16148  21948537.819    21948538.5024   21948545.4844
     -2859.965       -2228.544
   -405422.621 9   -309826.47647  23891155.298    23891154.6394   23891162.6914
     -1063.938        -829.043
  -5803657.105 9  -4508413.66648  20854028.187    20854028.9604   20854035.7024
       392.818         306.092
  -7432303.145 9  -5776539.19246  24212592.354    24212593.3074   24212600.7754
      3387.848        2639.881
    664164.363 9    523404.99948  22699979.467    22699980.7084   22699986.8384
     -1528.446       -1190.997
  -2465350.695 9  -1913424.88948  20781353.402    20781353.9914   20781360.4974
        25.597          19.946
 -10204715.890 9  -7930397.702 9  20950272.405    20950273.395    20950279.700
      1429.968        1114.261
 96 10  7 16 39  0.0000000  0  7  6 22 23  3 26 17 28                0.000715420
   7743713.400 9   5995105.25948  21964900.994    21964901.5764   21964908.6024
     -2872.670       -2238.444
   -373315.834 9   -284808.21747  23897265.549    23897264.4204   23897272.3924
     -1076.717        -839.000
  -5815263.923 9  -4517457.92748  20851819.536    20851820.2624   20851826.9994
       380.710         296.657
  -7533870.440 9  -5855682.50046  24193264.378    24193265.6324   24193273.1594
      3383.112        2636.191
    710289.358 9    559346.54448  22708756.708    22708757.9814   22708764.1594
     -1546.840       -1205.330
  -2466027.286 9  -1913952.09848  20781224.675    20781225.2644   20781231.7454
        19.130          14.906
 -10247372.663 9  -7963636.738 9  20942155.138    20942156.059    20942162.386
      1413.534        1101.455
 96 10  7 16 39 30.0000000  0  7  6 22 23  3 26 17 28                0.000715567
   7830063.484 9   6062391.01648  21981332.825    21981333.4134   21981340.5224
     -2884.481       -2247.648
   -340829.499 9   -259494.20647  23903447.948    23903446.4024   23903454.3394
     -1089.449        -848.921
  -5826501.914 9  -4526214.79048  20849680.953    20849681.6894   20849688.4704
       368.067         286.805
  -7635298.067 9  -5934716.96346  24173963.267    24173964.5574   24173972.0534
      3378.005        2632.212
    756958.736 9    595712.29048  22717637.715    22717638.8544   22717645.0564
     -1564.728       -1219.269
  -2466508.135 9  -1914326.77948  20781133.130    20781133.7454   20781140.2424
        12.447           9.699
 -10289536.709 9  -7996491.832 9  20934131.576    20934132.506    20934138.822
      1396.958        1088.539
 96 10  7 16 40  0.0000000  0  7  6 22 23  3 26 17 28                0.000715696
   7916761.632 9   6129948.00248  21997830.802    21997831.4884   21997838.6494
     -2895.821       -2256.484
   -307965.655 9   -233886.01647  23909701.466    23909700.1624   23909708.1324
     -1101.934        -858.650
  -5837374.150 9  -4534686.64948  20847611.998    20847612.7604   20847619.5514
       356.495         277.788
  -7736565.946 9  -6013626.95346  24154692.763    24154693.8554   24154701.3284
      3372.718        2628.092
    804153.649 9    632487.53948  22726618.770    22726619.7754   22726625.9484
     -1581.837       -1232.600
  -2466788.702 9  -1914545.39848  20781079.753    20781080.3524   20781086.8424
         5.951           4.637
 -10331204.682 9  -8028960.374 9  20926202.454    20926203.340    20926209.675
      1380.556        1075.758
 96 10  7 16 40 30.0000000  0  7  6 22 23  3 26 17 28                0.000715818
   8003811.584 9   6197779.11548  22014395.834    22014396.5894   22014403.7154
     -2907.595       -2265.658
   -274717.976 9   -207978.74247  23916027.379    23916026.9654   23916034.9724
     -1114.776        -868.657
  -5847894.326 9  -4542884.17448  20845610.058    20845610.8084   20845617.6014
       344.706         268.602
  -7837664.175 9  -6092404.74946  24135454.447    24135455.4374   24135462.9044
      3367.011        2623.645
    851862.281 9    669663.08548  22735698.190    22735698.4904   22735704.6254
     -1598.649       -1245.701
  -2466869.167 9  -1914608.09548  20781064.490    20781065.0854   20781071.5504
        -0.804          -0.626
 -10372374.556 9  -8061040.790 9  20918368.074    20918368.983    20918375.301
      1364.033        1062.883
 96 10  7 16 41  0.0000000  0  7  6 22 23  3 26 17 28                0.000715936
   8091222.034 9   6265891.13148  22031029.593    22031030.2654   22031037.4084
     -2919.347       -2274.816
   -241070.111 9   -181759.64247  23922430.528    23922429.9914   23922437.9894
     -1128.267        -879.169
  -5858049.695 9  -4550797.43648  20843677.582    20843678.2964   20843685.0574
       332.571         259.146
  -7938579.526 9  -6171040.05446  24116250.924    24116251.8784   24116259.3234
      3361.156        2619.082
    900085.106 9    707239.29848  22744874.639    22744875.0444   22744881.1514
     -1615.950       -1259.182
  -2466724.030 9  -1914494.99548  20781092.154    20781092.7014   20781099.1514
        -8.594          -6.697
 -10413035.355 9  -8092724.526 9  20910630.578    20910631.508    20910637.803
      1346.944        1049.567
 96 10  7 16 41 30.0000000  0  7  6 22 23  3 26 17 28                0.000716037
   8178969.372 9   6334265.65648  22047727.338    22047728.0624   22047735.1784
     -2931.136       -2284.002
   -207020.873 9   -155227.77447  23928909.625    23928909.3754   23928917.3664
     -1142.244        -890.060
  -5867852.635 9  -4558436.07648  20841812.177    20841812.8434   20841819.6174
       320.430         249.686
  -8039338.552 9  -6249553.52646  24097077.660    24097078.0614   24097085.5874
      3355.376        2614.579
    948810.994 9    745207.50748  22754147.018    22754147.3344   22754153.4204
     -1632.992       -1272.461
  -2466353.879 9  -1914206.56248  20781162.595    20781163.1114   20781169.5704
       -16.575         -12.915
 -10453196.468 9  -8124018.895 9  20902988.066    20902989.124    20902995.393
      1329.949        1036.324
 96 10  7 16 42  0.0000000  0  7  6 22 23  3 26 17 28                0.000716133
   8267070.356 9   6402915.75448  22064492.151    22064493.1104   22064500.2424
     -2942.561       -2292.905
   -172556.597 9   -128372.50547  23935466.982    23935467.7474   23935475.6894
     -1155.633        -900.493
  -5877307.599 9  -4565803.56848  20840012.954    20840013.6634   20840020.3774
       309.588         241.237
  -8139932.630 9  -6327938.48246  24077935.374    24077935.6964   24077943.1814
      3350.572        2610.835
    998046.086 9    783572.49748  22763515.697    22763516.4834   22763522.5624
     -1649.560       -1285.371
  -2465745.371 9  -1913732.40048  20781278.435    20781278.9434   20781285.3504
       -24.281         -18.920
 -10492852.390 9  -8154919.610 9  20895441.782    20895442.865    20895449.134
      1313.531        1023.531
 96 10  7 16 42 30.0000000  0  7  6 22 23  3 26 17 28                0.000716229
   8355529.312 9   6471844.79148  22081325.345    22081326.3314   22081333.4204
     -2954.650       -2302.325
   -137683.936 9   -101199.00847  23942102.213    23942103.8174   23942111.7254
     -1169.169        -911.041
  -5886424.394 9  -4572907.55348  20838278.061    20838278.7774   20838285.5024
       298.026         232.228
  -8240374.109 9  -6406204.53646  24058822.115    24058822.3164   24058829.7664
      3345.323        2606.745
   1047788.179 9    822332.55248  22772981.592    22772982.0764   22772988.1814
     -1666.597       -1298.647
  -2464894.218 9  -1913069.16348  20781440.324    20781440.9004   20781447.3064
       -32.666         -25.454
 -10532004.666 9  -8185427.870 9  20887991.494    20887992.433    20887998.694
      1296.556        1010.303
 96 10  7 16 43  0.0000000  0  7  6 22 23  3 26 17 28                0.000716309
   8444323.673 9   6541035.17548  22098222.488    22098223.3624   22098230.4234
     -2965.285       -2310.612
   -102424.442 9    -73724.09147  23948811.959    23948813.5044   23948821.3444
     -1181.711        -920.814
  -5895212.139 9  -4579755.13948  20836605.745    20836606.5164   20836613.2144
       287.516         224.038
  -8340670.387 9  -6484357.44846  24039736.276    24039736.5884   24039744.0684
      3340.771        2603.198
   1098028.046 9    861480.48248  22782541.722    22782542.4354   22782548.4904
     -1682.996       -1311.425
  -2463801.338 9  -1912217.56748  20781648.303    20781648.8804   20781655.2894
       -40.373         -31.459
 -10570661.281 9  -8215549.902 9  20880635.449    20880636.321    20880642.587
      1280.210         997.566
 96 10  7 16 43 30.0000000  0  7  6 22 23  3 26 17 28                0.000716377
   8533455.316 9   6610488.38648  22115183.619    22115184.5374   22115191.6054
     -2977.320       -2319.990
    -66780.591 9    -45949.67147  23955595.475    23955596.3404   23955604.1594
     -1194.896        -931.088
  -5903669.413 9  -4586345.20948  20834996.468    20834997.1674   20835003.8264
       275.819         214.924
  -8440809.089 9  -6562387.56846  24020680.214    24020680.8854   24020688.3074
      3334.410        2598.242
   1148771.141 9    901020.54348  22792197.886    22792198.5334   22792204.5764
     -1700.339       -1324.939
  -2462466.424 9  -1911177.37548  20781902.329    20781902.9044   20781909.3334
       -49.078         -38.242
 -10608813.969 9  -8245279.264 9  20873375.170    20873376.101    20873382.347
      1262.788         983.991
 96 10  7 16 44  0.0000000  0  7  6 22 23  3 26 17 28                0.000716443
   8622940.654 9   6680217.19848  22132211.976    22132213.0374   22132220.1354
     -2988.660       -2328.826
    -30758.114 9    -17880.22547  23962450.240    23962451.1874   23962459.0534
     -1206.855        -940.406
  -5911783.269 9  -4592667.68648  20833452.381    20833453.1754   20833459.8144
       264.653         206.223
  -8540755.239 9  -6640267.66746  24001661.060    24001661.8104   24001669.1994
      3328.322        2593.498
   1200028.762 9    940961.51847  22801951.473    22801952.5324   22801958.5554
     -1717.056       -1337.966
  -2460879.638 9  -1909940.91848  20782204.260    20782204.8484   20782211.3004
       -56.906         -44.342
 -10646447.261 9  -8274603.904 9  20866213.689    20866214.715    20866220.963
      1245.797         970.751
 96 10  7 16 44 30.0000000  0  7  6 22 23  3 26 17 28                0.000716496
   8712769.082 9   6750213.35648  22149305.839    22149306.8164   22149313.9774
     -2999.929       -2337.607
      5621.921 9     10467.84147  23969373.130    23969374.0044   23969381.9634
     -1218.738        -949.666
  -5919545.782 9  -4598716.39548  20831975.137    20831976.0264   20831982.6234
       252.676         196.890
  -8640509.683 9  -6717998.37246  23982678.318    23982679.1904   23982686.5404
      3321.785        2588.404
   1251783.097 9    981289.55847  22811800.204    22811801.0254   22811807.1204
     -1733.469       -1350.755
  -2459064.220 9  -1908526.30848  20782549.713    20782550.3254   20782556.7754
       -64.198         -50.024
 -10683568.337 9  -8303529.413 9  20859149.888    20859150.810    20859157.067
      1228.802         957.508
 96 10  7 16 45  0.0000000  0  7  6 22 23  3 26 17 28                0.000716545
   8802945.636 9   6820480.78348  22166465.868    22166466.8794   22166474.0574
     -3011.219       -2346.404
     42380.136 9     39110.58647  23976368.286    23976368.8644   23976376.8244
     -1231.205        -959.381
  -5926927.480 9  -4604468.35648  20830570.539    20830571.3164   20830577.9434
       240.098         187.089
  -8740046.816 9  -6795559.73746  23963737.142    23963737.9034   23963745.2144
      3314.881        2583.024
   1304051.275 9   1022017.99047  22821746.770    22821747.3144   22821753.4584
     -1750.448       -1363.985
  -2457022.075 9  -1906935.02248  20782938.380    20782938.9544   20782945.4104
       -71.311         -55.567
 -10720160.314 9  -8332042.638 9  20852186.776    20852187.602    20852193.825
      1211.301         943.871
 96 10  7 16 45 30.0000000  0  7  6 22 23  3 26 17 28                0.000716579
   8893458.968 9   6891010.62348  22183689.984    22183690.9874   22183698.2074
     -3022.608       -2355.279
     79509.044 9     68042.19347  23983433.650    23983434.3014   23983442.2464
     -1243.756        -969.161
  -5933936.163 9  -4609929.67148  20829236.930    20829237.6064   20829244.2384
       227.490         177.265
  -8839383.700 9  -6872965.07746  23944833.731    23944834.6854   23944841.9444
      3307.921        2577.601
   1356825.380 9   1063140.65047  22831788.958    22831789.8654   22831796.0574
     -1767.576       -1377.332
  -2454768.397 9  -1905178.91148  20783367.264    20783367.8284   20783374.2714
       -78.744         -61.359
 -10756229.408 9  -8360148.427 9  20845323.070    20845323.904    20845330.119
      1193.626         930.098
 96 10  7 16 46  0.0000000  0  7  6 22 23  3 26 17 28                0.000716606
   8984311.350 9   6961804.66647  22200978.670    22200979.6484   22200986.9144
     -3033.657       -2363.889
    117013.818 9     97266.67947  23990570.268    23990571.2194   23990579.2424
     -1256.136        -978.807
  -5940560.286 9  -4615091.31148  20827976.386    20827977.0484   20827983.6994
       214.681         167.284
  -8938516.281 9  -6950211.21446  23925969.713    23925970.3214   23925977.5974
      3301.570        2572.652
   1410120.478 9   1104669.28447  22841930.453    22841931.6324   22841937.7984
     -1784.877       -1390.813
  -2452287.476 9  -1903245.72548  20783839.429    20783839.9394   20783846.3684
       -86.230         -67.192
 -10791767.360 9  -8387840.334 9  20838560.370    20838561.257    20838567.484
      1176.051         916.403
 96 10  7 16 46 30.0000000  0  7  6 22 23  3 26 17 28                0.000716622
   9075499.849 9   7032860.62047  22218331.421    22218332.2774   22218339.5614
     -3045.389       -2373.030
    154907.267 9    126794.03047  23997781.269    23997782.0884   23997790.1754
     -1269.962        -989.581
  -5946800.520 9  -4619953.82648  20826788.828    20826789.5484   20826796.1974
       201.581         157.076
  -9037459.678 9  -7027309.93446  23907141.163    23907141.9404   23907149.2044
      3294.767        2567.351
   1463939.423 9   1146606.10547  22852171.911    22852173.0814   22852179.2164
     -1802.950       -1404.896
  -2449563.945 9  -1901123.49148  20784357.638    20784358.2084   20784364.6424
       -95.313         -74.270
 -10826770.414 9  -8415115.439 9  20831899.590    20831900.419    20831906.622
      1157.570         902.003
 96 10  7 16 47  0.0000000  0  7  6 22 23  3 26 17 28                0.000716630
   9167016.555 9   7104172.31547  22235746.684    22235747.3924   22235754.6534
     -3056.125       -2381.396
    193193.875 9    156627.73647  24005066.722    24005067.8024   24005075.8864
     -1282.651        -999.468
  -5952678.262 9  -4624533.87848  20825670.342    20825671.0044   20825677.6694
       190.015         148.064
  -9136220.932 9  -7104266.72646  23888347.542    23888348.2444   23888355.4784
      3288.968        2562.832
   1518283.099 9   1188951.80547  22862513.137    22862514.3484   22862520.5174
     -1820.132       -1418.285
  -2446577.981 9  -1898796.76348  20784925.816    20784926.4134   20784932.8644
      -104.168         -81.170
 -10861237.753 9  -8441973.104 9  20825340.698    20825341.533    20825347.719
      1139.941         888.266
 96 10  7 16 47 30.0000000  0  7  6 22 23  3 26 17 28                0.000716631
   9258864.069 9   7175741.78847  22253224.492    22253225.4184   22253232.6714
     -3067.193       -2390.021
    231858.022 9    186755.62347  24012424.918    24012425.4094   24012433.4844
     -1295.008       -1009.097
  -5958211.601 9  -4628845.56548  20824617.355    20824618.0374   20824624.7214
       178.754         139.289
  -9234799.070 9  -7181080.81946  23869589.058    23869589.3914   23869596.6174
      3282.587        2557.860
   1573136.812 9   1231694.95047  22872951.816    22872952.6784   22872958.8314
     -1836.791       -1431.266
  -2443316.122 9  -1896255.05548  20785546.571    20785547.1374   20785553.5664
      -113.203         -88.210
 -10895173.551 9  -8468416.581 9  20818882.932    20818883.764    20818889.968
      1122.403         874.600
 96 10  7 16 48  0.0000000  0  7  6 22 23  3 26 17 28                0.000716627
   9351056.481 9   7247580.01047  22270768.117    22270769.0564   22270776.3124
     -3079.192       -2399.370
    270898.213 9    217176.52747  24019853.785    24019854.5034   24019862.6014
     -1307.800       -1019.065
  -5963396.803 9  -4632885.98048  20823630.716    20823631.3374   20823638.0154
       166.840         130.005
  -9333176.095 9  -7257738.20746  23850868.188    23850868.8754   23850876.0694
      3275.677        2552.476
   1628487.255 9   1274825.14747  22883485.017    22883485.5784   22883491.6614
     -1853.281       -1444.115
  -2439788.337 9  -1893506.13448  20786217.895    20786218.4594   20786224.8814
      -122.053         -95.106
 -10928580.304 9  -8494447.818 9  20812525.801    20812526.661    20812532.880
      1104.533         860.675
 96 10  7 16 48 30.0000000  0  8  1  6 22 23  3 26 17 28             0.000716635
  -2088681.02919  -1343878.53156  25368455.778    25368457.3405   25368466.9155
      3663.168        2854.417
   9443615.683 9   7319704.04747  22288381.573    22288382.4994   22288389.7544
     -3091.455       -2408.926
    310330.409 9    247902.90547  24027357.488    24027358.1874   24027366.2944
     -1320.890       -1029.265
  -5968227.523 9  -4636650.16848  20822711.413    20822712.1144   20822718.7484
       155.025         120.799
  -9431328.982 9  -7334220.94746  23832189.880    23832191.0194   23832198.1324
      3267.717        2546.273
   1684329.633 9   1318338.68147  22894111.380    22894112.0774   22894118.1474
     -1869.648       -1456.869
  -2435995.526 9  -1890550.69648  20786939.639    20786940.2174   20786946.6354
      -130.691        -101.837
 -10961443.610 9  -8520055.586 9  20806272.177    20806272.985    20806279.204
      1086.332         846.492
 96 10  7 16 49  0.0000000  0  8  1  6 22 23  3 26 17 28             0.000716659
  -2198625.859 8  -1429549.80946  25347534.429    25347535.5634   25347545.0654
      3666.142        2856.734
   9536543.009 9   7392114.93047  22306064.930    22306066.0184   22306073.2484
     -3103.957       -2418.668
    350135.277 9    278919.67147  24034932.313    24034932.8394   24034940.9184
     -1332.982       -1038.687
  -5972698.090 9  -4640133.71748  20821860.707    20821861.4174   20821868.0304
       142.685         111.183
  -9529233.867 9  -7410510.43646  23813558.965    23813560.3384   23813567.3914
      3259.075        2539.539
   1740663.907 9   1362235.49947  22904831.555    22904832.1464   22904838.1944
     -1886.147       -1469.725
  -2431962.342 9  -1887407.95748  20787707.127    20787707.7304   20787714.1314
      -138.395        -107.840
 -10993764.758 9  -8545240.895 9  20800121.702    20800122.498    20800128.705
      1068.115         832.297
 96 10  7 16 49 30.0000000  0  8  1  6 22 23  3 26 17 28             0.000716689
  -2308667.189 8  -1515296.28446  25326594.792    25326595.3774   25326604.8984
      3669.608        2859.435
   9629831.366 9   7464807.12947  22323817.169    22323818.1874   22323825.4104
     -3115.545       -2427.697
    390289.402 9    310208.58547  24042573.566    24042573.8964   24042581.9964
     -1344.342       -1047.539
  -5976803.525 9  -4643332.75148  20821079.458    20821080.2144   20821086.7984
       130.617         101.779
  -9626893.696 9  -7486608.97647  23794974.931    23794976.3174   23794983.3064
      3251.254        2533.445
   1797477.114 9   1406505.50947  22915642.666    22915643.3804   22915649.4114
     -1901.888       -1481.991
  -2427716.278 9  -1884099.33948  20788515.134    20788515.7094   20788522.1434
      -144.945        -112.944
 -11025548.253 9  -8570007.257 9  20794073.478    20794074.307    20794080.521
      1050.418         818.508
 96 10  7 16 50  0.0000000  0  8  1  6 22 23  3 26 17 28             0.000716711
  -2418800.108 9  -1601114.12746  25305637.101    25305637.7264   25305647.2724
      3672.258        2861.500
   9723456.458 9   7537761.72447  22341633.376    22341634.4754   22341641.6624
     -3126.128       -2435.944
    430789.834 9    341767.35647  24050280.741    24050280.8874   24050288.9954
     -1355.832       -1056.492
  -5980540.655 9  -4646244.79148  20820368.331    20820369.0794   20820375.6134
       118.534          92.364
  -9724319.372 9  -7562525.05647  23776435.347    23776436.8564   23776443.8784
      3243.751        2527.598
   1854770.268 9   1451149.51247  22926545.080    22926545.9644   22926552.0014
     -1917.751       -1494.351
  -2423267.859 9  -1880633.03848  20789361.659    20789362.2234   20789368.6334
      -151.861        -118.333
 -11056793.802 9  -8594354.434 9  20788127.678    20788128.496    20788134.701
      1032.443         804.501
 96 10  7 16 50 30.0000000  0  8  1  6 22 23  3 26 17 28             0.000716721
  -2529008.075 8  -1686990.45746  25284665.182    25284665.7144   25284675.4364
      3674.692        2863.396
   9817397.042 9   7610962.15047  22359509.680    22359510.8394   22359517.9774
     -3136.563       -2444.075
    471640.443 9    373598.98847  24058054.225    24058054.5284   24058062.5874
     -1367.635       -1065.690
  -5983919.979 9  -4648878.01948  20819725.343    20819726.0394   20819732.5444
       106.503          82.989
  -9821519.852 9  -7638265.65147  23757938.951    23757940.2214   23757947.2324
      3236.225        2521.734
   1912546.975 9   1496170.31647  22937539.649    22937540.5154   22937546.5684
     -1934.042       -1507.046
  -2418606.012 9  -1877000.42948  20790248.806    20790249.3714   20790255.7724
      -159.033        -123.922
 -11087494.919 9  -8618277.380 9  20782285.530    20782286.298    20782292.462
      1014.165         790.258
 96 10  7 16 51  0.0000000  0  8  1  6 22 23  3 26 17 28             0.000716705
  -2639299.047 8  -1772931.46046  25263677.695    25263677.9434   25263687.8114
      3677.814        2865.829
   9911631.337 9   7684391.44347  22377441.789    22377443.0814   22377450.1674
     -3145.704       -2451.198
    512827.149 9    405692.51747  24065891.639    24065892.1334   24065900.1944
     -1378.404       -1074.081
  -5986949.452 9  -4651238.64248  20819148.929    20819149.5574   20819156.0424
        95.479          74.399
  -9918521.014 9  -7713850.95147  23739480.850    23739481.4774   23739488.5104
      3230.592        2517.344
   1970797.526 9   1541560.33947  22948624.351    22948625.2584   22948631.2984
     -1949.251       -1518.897
  -2413740.374 9  -1873209.02348  20791174.739    20791175.2634   20791181.6914
      -165.546        -128.997
 -11117661.406 9  -8641783.738 9  20776545.192    20776545.831    20776551.986
       996.844         776.762
 96 10  7 16 51 30.0000000  0  8  1  6 22 23  3 26 17 28             0.000716660
  -2749656.568 9  -1858924.32446  25242677.649    25242677.6854   25242687.5074
      3679.978        2867.515
  10006151.344 9   7758043.37247  22395428.676    22395429.7044   22395436.7024
     -3155.186       -2458.586
    554369.513 9    438063.16947  24073797.167    24073797.3994   24073805.4424
     -1390.621       -1083.601
  -5989629.501 9  -4653326.98648  20818638.956    20818639.5544   20818646.0514
        83.787          65.288
 -10015337.283 9  -7789292.16947  23721057.695    23721057.9284   23721065.0014
      3224.389        2512.511
   2029523.116 9   1587320.52247  22959799.199    22959800.3404   22959806.4284
     -1965.310       -1531.410
  -2408646.354 9  -1869239.66248  20792143.979    20792144.5854   20792151.0544
      -173.545        -135.230
 -11147288.754 9  -8664869.989 9  20770907.110    20770907.937    20770914.086
       978.882         762.765
 96 10  7 16 52  0.0000000  0  8  1  6 22 23  3 26 17 28             0.000716599
  -2860073.117 8  -1944963.20146  25221665.736    25221666.1764   25221675.9474
      3681.394        2868.619
  10100968.680 9   7831926.98847  22413471.873    22413472.8894   22413479.9074
     -3165.790       -2466.849
    596291.851 9    470729.91147  24081774.881    24081774.9884   24081782.9724
     -1403.746       -1093.828
  -5991952.706 9  -4655137.26548  20818196.952    20818197.4664   20818203.9494
        71.515          55.726
 -10111955.985 9  -7864579.44147  23702672.209    23702672.0194   23702679.0554
      3217.183        2506.896
   2088740.651 9   1633464.04447  22971067.612    22971069.0414   22971075.1734
     -1982.209       -1544.578
  -2403296.416 9  -1865070.88148  20793162.151    20793162.6934   20793169.1244
      -182.788        -142.432
 -11176369.022 9  -8687529.934 9  20765373.303    20765374.149    20765380.289
       960.151         748.170
 96 10  7 16 52 30.0000000  0  8  1  6 22 23  3 26 17 28             0.000716541
  -2970544.846 8  -2031045.04046  25200644.066    25200644.2844   25200653.9234
      3683.425        2870.201
  10196118.816 9   7906069.92347  22431578.322    22431579.3604   22431586.3714
     -3177.141       -2475.694
    638592.686 9    503691.58947  24089824.683    24089824.6704   24089832.5814
     -1415.921       -1103.315
  -5993910.577 9  -4656662.87248  20817824.423    20817824.8834   20817831.3714
        59.098          46.050
 -10208363.650 9  -7939702.26446  23684326.832    23684326.2234   23684333.2734
      3210.037        2501.328
   2148468.537 9   1680005.25247  22982433.457    22982434.8794   22982440.9884
     -1999.377       -1557.956
  -2397673.901 9  -1860689.70048  20794232.078    20794232.6294   20794239.0464
      -191.837        -149.483
 -11204892.872 9  -8709756.309 9  20759945.308    20759946.228    20759952.388
       941.654         733.756
 96 10  7 16 53  0.0000000  0  8  1  6 22 23  3 26 17 28             0.000716474
  -3081077.777 8  -2117174.56046  25179611.038    25179610.5774   25179620.2804
      3685.147        2871.543
  10291588.961 9   7980462.22447  22449745.478    22449746.7194   22449753.8014
     -3187.846       -2484.036
    681241.193 9    536924.17247  24097940.441    24097940.4824   24097948.3534
     -1427.579       -1112.399
  -5995502.109 9  -4657903.02148  20817521.420    20817521.9854   20817528.5284
        46.982          36.609
 -10304552.693 9  -8014654.74847  23666022.669    23666021.9964   23666029.0274
      3202.259        2495.267
   2208699.893 9   1726938.76247  22993895.344    22993896.5364   22993902.6244
     -2016.284       -1571.130
  -2391781.367 9  -1856098.11348  20795353.418    20795353.9344   20795360.3524
      -201.302        -156.859
 -11232871.383 9  -8731557.750 9  20754621.224    20754622.095    20754628.256
       923.320         719.470
 96 10  7 16 53 30.0000000  0  8  1  6 22 23  3 26 17 28             0.000716406
  -3191669.695 8  -2203350.03245  25158565.743    25158565.6174   25158575.2314
      3687.498        2873.375
  10387377.891 9   8055102.91747  22467973.696    22467974.7444   22467981.9154
     -3198.398       -2492.258
    724233.159 9    570424.38647  24106121.372    24106121.5834   24106129.4254
     -1438.792       -1121.137
  -5996747.455 9  -4658873.41348  20817284.396    20817284.9954   20817291.5584
        35.915          27.986
 -10400508.048 9  -8089425.13047  23647762.742    23647762.2504   23647769.2914
      3194.437        2489.172
   2269429.707 9   1774260.68547  23005451.481    23005452.9934   23005459.1604
     -2032.537       -1583.795
  -2385607.589 9  -1851287.38148  20796528.274    20796528.8054   20796535.1884
      -210.312        -163.879
 -11260306.940 9  -8752936.107 9  20749400.410    20749401.262    20749407.445
       905.456         705.550
 96 10  7 16 54  0.0000000  0  8  1  6 22 23  3 26 17 28             0.000716347
  -3302337.083 8  -2289584.27745  25137505.905    25137506.2054   25137515.7754
      3690.094        2875.398
  10483485.418 9   8129991.87547  22486262.084    22486263.3944   22486270.6014
     -3208.617       -2500.221
    767561.446 9    604186.67747  24114366.121    24114366.7204   24114374.5224
     -1449.769       -1129.690
  -5997670.632 9  -4659592.76748  20817108.750    20817109.3184   20817115.8874
        25.710          20.034
 -10496221.617 9  -8164007.10747  23629549.017    23629548.5854   23629555.6174
      3186.478        2482.970
   2330643.834 9   1821959.98847  23017100.591    23017101.6494   23017107.8744
     -2048.451       -1596.196
  -2379174.879 9  -1846274.88348  20797752.437    20797752.9474   20797759.3034
      -218.518        -170.274
 -11287202.428 9  -8773893.630 9  20744282.456    20744283.226    20744289.408
       887.501         691.559
 96 10  7 16 54 30.0000000  0  8  1  6 22 23  3 26 17 28             0.000716297
  -3413067.353 8  -2375867.50345  25116433.763    25116434.6914   25116444.5564
      3692.329        2877.139
  10579890.993 9   8205113.06847  22504607.840    22504608.8344   22504616.0174
     -3217.775       -2507.357
    811226.710 9    638211.53847  24122675.538    24122675.9604   24122683.7454
     -1460.933       -1138.389
  -5998288.422 9  -4660074.15648  20816991.168    20816991.7604   20816998.3174
        15.968          12.443
 -10591691.705 9  -8238399.35247  23611381.826    23611381.2624   23611388.2024
      3178.603        2476.834
   2392340.976 9   1870035.67647  23028841.049    23028842.2384   23028848.4074
     -2063.932       -1608.259
  -2372499.151 9  -1841073.01948  20799022.806    20799023.3034   20799029.6844
      -226.061        -176.151
 -11313552.692 9  -8794426.305 9  20739268.302    20739268.979    20739275.132
       869.622         677.628
 96 10  7 16 55  0.0000000  0  8  1  6 22 23  3 26 17 28             0.000716254
  -3523850.471 8  -2462191.88845  25095352.070    25095353.2614   25095363.2714
      3694.035        2878.469
  10676579.519 9   8280454.75147  22523006.918    22523008.0734   22523015.2804
     -3227.535       -2514.962
    855252.936 9    672517.66947  24131053.717    24131053.8944   24131061.6784
     -1473.493       -1148.176
  -5998614.232 9  -4660328.03148  20816929.153    20816929.7824   20816936.3134
         6.539           5.095
 -10686913.500 9  -8312598.13347  23593261.049    23593261.1414   23593268.0684
      3170.468        2470.495
   2454495.806 9   1918468.00847  23040668.616    23040669.9634   23040676.0644
     -2079.022       -1620.017
  -2365587.908 9  -1835687.64148  20800337.938    20800338.4734   20800344.8714
      -233.836        -182.210
 -11339351.906 9  -8814529.589 9  20734358.927    20734359.582    20734365.706
       851.060         663.164
 96 10  7 16 55 30.0000000  0  8  1  6 22 23  3 26 17 28             0.000716222
  -3634697.577 8  -2548566.11245  25074258.726    25074259.8064   25074269.7224
      3696.338        2880.263
  10773555.224 9   8356020.20947  22541460.558    22541461.9624   22541469.1814
     -3236.825       -2522.201
    899646.425 9    707109.98247  24139501.659    24139501.6254   24139509.4994
     -1485.452       -1157.495
  -5998665.982 9  -4660368.35448  20816919.390    20816919.9374   20816926.4264
        -2.699          -2.103
 -10781909.850 9  -8386621.23047  23575183.664    23575183.9264   23575190.8134
      3163.064        2464.725
   2517092.410 9   1967244.56347  23052580.819    23052581.7384   23052587.8234
     -2093.480       -1631.283
  -2358466.476 9  -1830138.47748  20801693.140    20801693.6554   20801700.0524
      -240.377        -187.307
 -11364607.187 9  -8834209.030 9  20729552.940    20729553.690    20729559.781
       833.157         649.213
 96 10  7 16 56  0.0000000  0  8  1  6 22 23  3 26 17 28             0.000716188
  -3745605.852 8  -2634988.00245  25053153.077    25053154.6234   25053164.5274
      3697.814        2881.414
  10870808.207 9   8431801.72147  22559967.441    22559968.6454   22559975.8674
     -3246.352       -2529.625
    944395.933 9    741979.71147  24148017.205    24148017.1994   24148025.1804
     -1497.245       -1166.684
  -5998426.372 9  -4660181.64348  20816965.044    20816965.5544   20816972.0314
       -12.903         -10.054
 -10876675.147 9  -8460464.29847  23557150.132    23557150.6624   23557157.5424
      3155.031        2458.466
   2580123.105 9   2016359.38747  23064575.057    23064576.1134   23064582.1424
     -2108.078       -1642.658
  -2351146.101 9  -1824434.29548  20803086.100    20803086.6924   20803093.0604
      -247.333        -192.727
 -11389317.156 9  -8853463.555 9  20724850.873    20724851.558    20724857.645
       814.682         634.817
 96 10  7 16 56 30.0000000  0  8  1  6 22 23  3 26 17 28             0.000716150
  -3856554.300 8  -2721441.21045  25032039.690    25032041.7364   25032051.5794
      3699.119        2882.430
  10968359.970 9   8507816.05947  22578531.187    22578532.1874   22578539.3124
     -3256.619       -2537.625
    989488.678 9    777116.89247  24156598.019    24156598.1754   24156606.0974
     -1508.219       -1175.236
  -5997868.204 9  -4659746.70448  20817071.273    20817071.7764   20817078.2294
       -23.931         -18.648
 -10971191.204 9  -8534113.14347  23539164.412    23539164.8914   23539171.7124
      3146.435        2451.767
   2643589.078 9   2065813.38147  23076652.106    23076653.3094   23076659.3304
     -2122.337       -1653.769
  -2343605.181 9  -1818558.25548  20804521.070    20804521.6644   20804528.0554
      -254.829        -198.568
 -11413467.822 9  -8872282.255 9  20720255.143    20720255.854    20720261.933
       795.946         620.218
 96 10  7 16 57  0.0000000  0  8  1  6 22 23  3 26 17 28             0.000716093
  -3967555.842 8  -2807935.78345  25010918.037    25010918.6064   25010928.5854
      3700.415        2883.440
  11066216.295 9   8584067.70547  22597152.738    22597153.6544   22597160.7644
     -3267.409       -2546.033
   1034884.438 9    812490.19347  24165236.308    24165236.6464   24165244.6194
     -1518.379       -1183.152
  -5996978.016 9  -4659053.05048  20817240.612    20817241.1564   20817247.6234
       -35.839         -27.926
 -11065453.968 9  -8607564.61647  23521226.785    23521227.2224   23521234.0734
      3137.390        2444.719
   2707476.053 9   2115595.42547  23088809.473    23088810.5384   23088816.6084
     -2137.369       -1665.482
  -2335846.888 9  -1812512.84048  20805997.442    20805998.0384   20806004.4394
      -262.818        -204.793
 -11437067.561 9  -8890671.667 9  20715764.193    20715764.966    20715771.031
       777.011         605.463
 96 10  7 16 57 30.0000000  0  8  1  6 22 23  3 26 17 28             0.000716027
  -4078587.398 8  -2894453.78945  24989788.834    24989789.8794   24989799.8254
      3701.884        2884.585
  11164389.992 9   8660566.66447  22615834.311    22615835.5224   22615842.6104
     -3277.229       -2553.685
   1080574.778 9    848093.03547  24173930.981    24173931.1994   24173939.2034
     -1527.403       -1190.184
  -5995720.213 9  -4658072.94048  20817480.058    20817480.5164   20817486.9744
       -47.743         -37.202
 -11159431.556 9  -8680793.87647  23503343.207    23503343.8504   23503350.7124
      3127.938        2437.354
   2771830.834 9   2165741.99647  23101055.961    23101056.8724   23101062.9604
     -2152.622       -1677.368
  -2327831.615 9  -1806267.17748  20807522.738    20807523.2804   20807529.6924
      -271.371        -211.458
 -11460095.317 9  -8908615.375 9  20711382.132    20711382.920    20711389.007
       758.411         590.970
 96 10  7 16 58  0.0000000  0  8  1  6 22 23  3 26 17 28             0.000715936
  -4189674.106 8  -2981014.79645  24968648.894    24968650.8394   24968660.5414
      3703.651        2885.962
  11262846.348 9   8737285.87347  22634569.886    22634571.1744   22634578.2484
     -3286.860       -2561.190
   1126516.708 9    883891.92047  24182673.435    24182673.7444   24182681.7034
     -1535.907       -1196.811
  -5994124.485 9  -4656829.51448  20817783.701    20817784.1754   20817790.6154
       -58.990         -45.966
 -11253139.465 9  -8753813.00047  23485511.397    23485511.8484   23485518.6904
      3118.990        2430.382
   2836634.974 9   2216238.72147  23113387.934    23113388.7164   23113394.7874
     -2168.043       -1689.384
  -2319570.632 9  -1799830.05048  20809094.737    20809095.3044   20809101.7184
      -279.710        -217.956
 -11482577.306 9  -8926133.810 9  20707103.993    20707104.767    20707110.870
       740.037         576.652
 96 10  7 16 58 30.0000000  0  8  1  6 22 23  3 26 17 28             0.000715833
  -4300786.056 8  -3067595.45445  24947505.426    24947506.8274   24947516.7184
      3703.751        2886.040
  11361592.054 9   8814230.54647  22653360.995    22653361.9204   22653368.9284
     -3296.229       -2568.490
   1172736.306 9    919907.17847  24191469.142    24191469.0574   24191476.9974
     -1545.766       -1204.493
  -5992173.013 9  -4655308.88648  20818154.951    20818155.5404   20818161.9474
       -71.270         -55.535
 -11346572.013 9  -8826617.56447  23467731.403    23467732.2024   23467739.0004
      3109.581        2423.050
   2901927.306 9   2267115.85347  23125812.167    23125813.4094   23125819.4564
     -2184.942       -1702.552
  -2311042.708 9  -1793184.92048  20810717.422    20810718.1074   20810724.5574
      -289.027        -225.216
 -11504494.645 9  -8943212.259 9  20702933.227    20702934.071    20702940.134
       720.871         561.718
 96 10  7 16 59  0.0000000  0  8  1  6 22 23  3 26 17 28             0.000715721
  -4411907.186 8  -3154183.28545  24926358.335    24926360.9734   24926370.9454
      3704.110        2886.319
  11460600.169 9   8891379.69447  22672201.885    22672202.5774   22672209.5964
     -3304.925       -2575.266
   1219257.707 9    956157.59447  24200321.561    24200321.7794   24200329.6664
     -1556.334       -1212.728
  -5989871.367 9  -4653515.39348  20818592.940    20818593.5524   20818599.9364
       -82.660         -64.410
 -11439730.600 9  -8899208.63847  23450003.578    23450004.6714   23450011.4694
      3100.630        2416.075
   2967720.047 9   2318382.90547  23138332.105    23138333.3434   23138339.4204
     -2201.613       -1715.543
  -2302238.836 9  -1786324.76548  20812392.862    20812393.4434   20812399.8824
      -298.525        -232.617
 -11525846.018 9  -8959849.695 9  20698870.223    20698871.041    20698877.094
       701.989         547.004
 96 10  7 16 59 30.0000000  0  8  1  6 22 23  3 26 17 28             0.000715600
  -4523042.136 8  -3240781.88845  24905210.290    24905212.8554   24905222.6244
      3704.089        2886.303
  11559860.521 9   8968725.39247  22691090.325    22691091.1954   22691098.2364
     -3313.502       -2581.950
   1266102.339 9    992659.88747  24209235.660    24209236.0514   24209243.9624
     -1567.679       -1221.568
  -5987236.332 9  -4651462.11848  20819094.320    20819094.9594   20819101.3684
       -93.951         -73.209
 -11532632.746 9  -8971599.89147  23432324.728    23432325.9634   23432332.7674
      3092.025        2409.370
   3033993.607 9   2370024.63547  23150943.477    23150944.8034   23150950.8974
     -2217.259       -1727.734
  -2293152.684 9  -1779244.65348  20814121.869    20814122.5144   20814128.9124
      -307.933        -239.948
 -11546638.197 9  -8976051.398 9  20694913.636    20694914.466    20694920.495
       683.136         532.314
 96 10  7 17  0  0.0000000  0  8  1  6 22 23  3 26 17 28             0.000715475
  -4634181.128 8  -3327383.63845  24884061.905    24884063.9344   24884073.4174
      3705.051        2887.053
  11659392.088 9   9046282.42247  22710030.484    22710031.4424   22710038.5194
     -3321.951       -2588.533
   1313301.955 9   1029438.78947  24218217.287    24218217.8594   24218225.8614
     -1578.982       -1230.376
  -5984260.206 9  -4649143.06048  20819660.707    20819661.3034   20819667.7174
      -104.573         -81.485
 -11625282.624 9  -9043794.58147  23414694.235    23414695.2294   23414702.0714
      3084.558        2403.552
   3100726.638 9   2422024.38247  23163642.549    23163643.6814   23163649.8044
     -2231.476       -1738.812
  -2283795.513 9  -1771953.36048  20815902.538    20815903.1674   20815909.5144
      -316.020        -246.249
 -11566858.469 9  -8991807.465 9  20691065.849    20691066.686    20691072.709
       664.705         517.952
 96 10  7 17  0 30.0000000  0  8  1  6 22 23  3 26 17 28             0.000715324
  -4745343.529 8  -3414003.66245  24862909.654    24862910.3904   24862919.7784
      3705.811        2887.645
  11759172.977 9   9124033.73147  22729017.978    22729019.1414   22729026.2334
     -3330.510       -2595.203
   1360841.075 9   1066482.24547  24227263.994    24227264.2874   24227272.2414
     -1590.307       -1239.200
  -5980961.902 9  -4646572.95048  20820288.277    20820288.9624   20820295.3674
      -115.305         -89.848
 -11717702.289 9  -9115809.87947  23397107.736    23397108.2904   23397115.1674
      3076.460        2397.242
   3167872.280 9   2474345.64447  23176419.796    23176421.0374   23176427.2074
     -2244.793       -1749.189
  -2274186.948 9  -1764466.17348  20817731.024    20817731.6304   20817737.9524
      -324.765        -253.064
 -11586521.552 9  -9007129.345 9  20687324.032    20687324.922    20687330.930
       645.980         503.361
 96 10  7 17  1  0.0000000  0  8  1  6 22 23  3 26 17 28             0.000715182
  -4856547.991 8  -3500656.46445  24841747.663    24841748.7104   24841758.1204
      3707.501        2888.962
  11859238.807 9   9202007.07947  22748059.853    22748061.0444   22748068.1134
     -3341.015       -2603.388
   1408713.073 9   1103785.06747  24236373.623    24236373.9984   24236381.9114
     -1601.481       -1247.907
  -5977345.713 9  -4643755.14148  20820976.435    20820977.1184   20820983.5294
      -126.209         -98.345
 -11809876.358 9  -9187633.81447  23379567.629    23379568.1044   23379574.9844
      3068.194        2390.801
   3235404.032 9   2526967.76547  23189270.292    23189271.8904   23189278.0344
     -2257.768       -1759.300
  -2264310.996 9  -1756770.63148  20819610.326    20819610.9714   20819617.3004
      -333.921        -260.198
 -11605618.059 9  -9022009.743 9  20683690.115    20683690.993    20683696.985
       626.749         488.376
 96 10  7 17  1 30.0000000  0  8  1  6 22 23  3 26 17 28             0.000714998
  -4967804.345 8  -3587349.67945  24820576.620    24820577.4004   24820586.8314
      3709.389        2890.433
  11959618.849 9   9280225.25947  22767161.446    22767162.6924   22767169.8334
     -3350.925       -2611.110
   1456909.167 9   1141340.44847  24245545.110    24245545.4214   24245553.3604
     -1611.624       -1255.811
  -5973400.669 9  -4640681.07648  20821727.128    20821727.8024   20821734.2224
      -136.634        -106.468
 -11901805.725 9  -9259267.06647  23362073.788    23362074.4514   23362081.3894
      3060.270        2384.626
   3303321.831 9   2579890.71547  23202195.245    23202196.3534   23202202.3474
     -2270.162       -1768.957
  -2254173.369 9  -1748871.18448  20821539.522    20821540.0834   20821546.4664
      -341.778        -266.321
 -11624137.418 9  -9036440.414 9  20680165.966    20680166.848    20680172.890
       607.851         473.650
 96 10  7 17  2  0.0000000  0  8  1  6 22 23  3 26 17 28             0.000714795
  -5079097.929 8  -3674071.96245  24799398.787    24799398.9184   24799408.2834
      3710.265        2891.116
  12060306.913 9   9358683.45347  22786321.729    22786323.0234   22786330.1474
     -3361.158       -2619.084
   1505412.220 9   1179135.01247  24254775.164    24254775.3134   24254783.2714
     -1621.572       -1263.562
  -5969143.742 9  -4637363.99348  20822537.177    20822537.8334   20822544.2544
      -146.825        -114.409
 -11993475.390 9  -9330697.96247  23344629.318    23344630.2674   23344637.2344
      3051.085        2377.469
   3371636.672 9   2633123.03847  23215195.267    23215196.2924   23215202.2414
     -2284.079       -1779.802
  -2243793.492 9  -1740782.97948  20823514.733    20823515.3064   20823521.7114
      -350.130        -272.829
 -11642076.313 9  -9050418.781 9  20676752.327    20676753.208    20676759.221
       588.340         458.447
 96 10  7 17  2 30.0000000  0  8  1  6 22 23  3 26 17 28             0.000714585
  -5190419.962 8  -3760816.37145  24778215.226    24778214.9934   24778224.2924
      3711.142        2891.799
  12161289.318 9   9437371.01247  22805538.309    22805539.4274   22805546.5044
     -3370.920       -2626.691
   1554202.228 9   1217153.18347  24264059.273    24264059.7014   24264067.6324
     -1631.137       -1271.016
  -5964579.069 9  -4633807.09948  20823405.848    20823406.4604   20823412.8934
      -157.428        -122.671
 -12084862.280 9  -9401908.49047  23327238.824    23327239.8934   23327246.9184
      3041.407        2369.928
   3440375.371 9   2686685.63147  23228275.802    23228276.7964   23228282.7774
     -2298.796       -1791.270
  -2233163.271 9  -1732499.69848  20825537.540    20825538.1504   20825544.5564
      -358.445        -279.308
 -11659436.379 9  -9063946.111 9  20673448.805    20673449.715    20673455.718
       569.029         443.399
 96 10  7 17  3  0.0000000  0  8  1  6 22 23  3 26 17 28             0.000714371
  -5301775.816 8  -3847587.15445  24757024.846    24757024.8984   24757034.0934
      3711.979        2892.451
  12262547.011 9   9516273.07147  22824807.117    22824808.2034   22824815.2084
     -3379.773       -2633.589
   1603272.934 9   1255390.08747  24273397.335    24273397.5374   24273405.4774
     -1640.662       -1278.438
  -5959710.818 9  -4630013.65748  20824332.224    20824332.8354   20824339.2584
      -167.579        -130.581
 -12175969.411 9  -9472901.03847  23309901.637    23309902.7394   23309909.8204
      3031.848        2362.479
   3509562.586 9   2740597.72547  23241441.485    23241442.6844   23241448.6794
     -2314.217       -1803.286
  -2222302.098 9  -1724036.45148  20827604.335    20827604.9414   20827611.3394
      -365.917        -285.130
 -11676228.190 9  -9077030.641 9  20670253.422    20670254.352    20670260.387
       550.035         428.599
 96 10  7 17  3 30.0000000  0  8  1  6 22 23  3 26 17 28             0.000714172
  -5413128.679 8  -3934355.60345  24735834.877    24735835.0744   24735844.2534
      3711.416        2892.012
  12364051.272 9   9595367.26447  22844123.008    22844123.8674   22844130.7824
     -3387.259       -2639.423
   1652638.188 9   1293856.49247  24282791.326    24282791.5694   24282799.4814
     -1650.477       -1286.086
  -5954531.678 9  -4625977.96248  20825317.807    20825318.4114   20825324.8414
      -177.751        -138.507
 -12266769.380 9  -9543654.24047  23292622.950    23292624.0844   23292631.1874
      3021.174        2354.162
   3579226.654 9   2794881.39747  23254697.961    23254699.3614   23254705.3514
     -2330.071       -1815.640
  -2211213.556 9  -1715396.03948  20829714.418    20829715.0594   20829721.4264
      -373.572        -291.095
 -11692445.938 9  -9089667.856 9  20667167.454    20667168.244    20667174.249
       531.005         413.770
 96 10  7 17  4  0.0000000  0  8  1  6 22 23  3 26 17 28             0.000713994
  -5524460.178 8  -4021107.39145  24714648.845    24714649.3664   24714658.6664
      3710.907        2891.616
  12465781.632 9   9674637.63547  22863481.776    22863482.6054   22863489.4784
     -3394.862       -2645.347
   1702299.086 9   1332553.27247  24292241.384    24292241.6974   24292249.6884
     -1660.410       -1293.826
  -5949039.904 9  -4621698.65248  20826362.900    20826363.4654   20826369.9044
      -188.603        -146.963
 -12357236.155 9  -9614147.80247  23275407.971    23275408.8244   23275415.9364
      3009.972        2345.433
   3649375.973 9   2849543.18547  23268046.849    23268048.3334   23268054.3314
     -2346.443       -1828.397
  -2199877.207 9  -1706562.52648  20831871.717    20831872.3354   20831878.6814
      -382.389        -297.965
 -11708087.307 9  -9101855.941 9  20664190.986    20664191.785    20664197.790
       511.668         398.702
 96 10  7 17  4 30.0000000  0  8  1  6 22 23  3 26 17 28             0.000713825
  -5635787.993 8  -4107856.32445  24693462.670    24693464.5214   24693473.5494
      3710.969        2891.664
  12567735.701 9   9754082.33147  22882883.079    22882883.8804   22882890.7154
     -3402.168       -2651.040
   1752255.816 9   1371480.56447  24301747.736    24301748.1054   24301756.0764
     -1670.129       -1301.399
  -5943218.317 9  -4617162.34948  20827470.665    20827471.2794   20827477.7164
      -199.443        -155.410
 -12447378.419 9  -9684388.50247  23258254.360    23258255.2904   23258262.3964
      2999.560        2337.319
   3719996.241 9   2904571.94247  23281485.738    23281486.9624   23281492.9324
     -2361.468       -1840.105
  -2188276.145 9  -1697522.74248  20834079.405    20834079.9524   20834086.2894
      -390.931        -304.622
 -11723155.328 9  -9113597.262 9  20661323.552    20661324.413    20661330.465
       492.777         383.982
 96 10  7 17  5  0.0000000  0  8  1  6 22 23  3 26 17 28             0.000713655
  -5747119.268 8  -4194607.94145  24672275.982    24672278.8144   24672287.7744
      3711.222        2891.861
  12669911.726 9   9833699.96747  22902326.669    22902327.3954   22902334.1414
     -3409.474       -2656.733
   1802503.126 9   1410634.29547  24311309.508    24311309.9454   24311317.8484
     -1679.449       -1308.662
  -5937086.293 9  -4612384.15048  20828637.515    20828638.1484   20828644.5814
      -209.215        -163.025
 -12537207.600 9  -9754385.24947  23241160.282    23241161.3094   23241168.4354
      2989.165        2329.219
   3791051.613 9   2959939.73847  23295007.174    23295008.3454   23295014.3324
     -2375.182       -1850.791
  -2176417.196 9  -1688282.01348  20836336.104    20836336.6624   20836342.9814
      -399.603        -311.379
 -11737654.628 9  -9124895.422 9  20658564.447    20658565.284    20658571.345
       473.965         369.323
 96 10  7 17  5 30.0000000  0  8  1  6 22 23  3 26 17 28             0.000713481
  -5858446.509 8  -4281356.39146  24651092.142    24651094.0634   24651103.0494
      3710.856        2891.576
  12772322.236 9   9913500.31547  22921814.972    22921815.5244   22921822.2464
     -3417.877       -2663.281
   1853029.421 9   1450005.40647  24320924.094    24320924.7784   24320932.8014
     -1688.774       -1315.928
  -5930653.755 9  -4607371.78148  20829861.676    20829862.2454   20829868.6634
      -219.492        -171.033
 -12626720.435 9  -9824135.48847  23224126.495    23224127.5174   23224134.6394
      2978.598        2320.985
   3862515.587 9   3015625.93347  23308606.314    23308607.4764   23308613.4794
     -2388.944       -1861.515
  -2164285.238 9  -1678828.54848  20838644.724    20838645.2824   20838651.6074
      -409.068        -318.754
 -11751580.186 9  -9135746.514 9  20655914.503    20655915.353    20655921.381
       454.510         354.164
 96 10  7 17  6  0.0000000  0  8  1  6 22 23  3 26 17 28             0.000713293
  -5969787.972 8  -4368115.90845  24629905.170    24629906.4424   24629915.4214
      3712.262        2892.672
  12874983.689 9   9993496.22247  22941350.513    22941351.3574   22941358.0864
     -3426.039       -2669.641
   1903818.766 9   1489581.49147  24330589.116    24330589.6784   24330597.6794
     -1696.962       -1322.308
  -5923927.037 9  -4602130.18448  20831141.748    20831142.3374   20831148.7274
      -228.693        -178.202
 -12715941.156 9  -9893658.10047  23207148.565    23207149.2924   23207156.5184
      2969.807        2314.135
   3934379.912 9   3071624.08847  23322281.704    23322282.8554   23322288.8864
     -2401.625       -1871.396
  -2151885.672 9  -1669166.55548  20841004.233    20841004.8244   20841011.1414
      -417.150        -325.052
 -11764933.291 9  -9146151.537 9  20653373.423    20653374.339    20653380.380
       436.011         339.749
 96 10  7 17  6 30.0000000  0  8  1  6 22 23  3 26 17 28             0.000713086
  -6081152.606 8  -4454893.45446  24608713.199    24608714.4264   24608723.4144
      3712.370        2892.756
  12977906.936 9  10073696.11547  22960936.043    22960937.0004   22960943.7734
     -3435.123       -2676.719
   1954870.279 9   1529361.85247  24340304.415    24340304.5234   24340312.4674
     -1706.028       -1329.372
  -5916913.145 9  -4596664.81848  20832476.485    20832477.0704   20832483.4164
      -238.550        -185.883
 -12804883.205 9  -9962963.56647  23190223.415    23190224.0954   23190231.4324
      2959.957        2306.460
   4006634.333 9   3127926.21247  23336031.023    23336032.4564   23336038.5364
     -2415.050       -1881.857
  -2139237.652 9  -1659310.96248  20843411.116    20843411.7014   20843418.0124
      -425.677        -331.696
 -11777717.595 9  -9156113.342 9  20650940.725    20650941.575    20650947.592
       416.571         324.601
 96 10  7 17  7  0.0000000  0  8  1  6 22 23  3 26 17 28             0.000712863
  -6192526.605 8  -4541678.30346  24587519.091    24587520.5694   24587529.6094
      3712.610        2892.943
  13081086.692 9  10154095.89447  22980570.473    22980571.4644   22980578.3364
     -3443.566       -2683.298
   2006180.318 9   1569343.68947  24350067.985    24350068.4584   24350076.5244
     -1714.565       -1336.025
  -5909611.280 9  -4590975.04948  20833865.945    20833866.5554   20833872.9424
      -248.443        -193.592
 -12893541.342 9 -10032047.81147  23173351.910    23173353.0084   23173360.2994
      2950.582        2299.155
   4079288.263 9   3184539.64147  23349856.684    23349858.0464   23349864.1374
     -2428.447       -1892.296
  -2126342.143 9  -1649262.51948  20845865.052    20845865.6514   20845871.9744
      -433.993        -338.176
 -11789926.421 9  -9165626.719 9  20648617.458    20648618.335    20648624.308
       397.393         309.657
 96 10  7 17  7 30.0000000  0  8  1  6 22 23  3 26 17 28             0.000712625
  -6303900.477 9  -4628463.03546  24566325.480    24566326.7374   24566335.9134
      3711.678        2892.217
  13184523.644 9  10234696.07747  23000253.841    23000254.7964   23000261.8224
     -3452.607       -2690.343
   2057751.632 9   1609529.10247  24359881.966    24359882.1034   24359890.2254
     -1724.228       -1343.554
  -5901988.560 9  -4585035.26848  20835316.509    20835317.1094   20835323.5224
      -260.195        -202.749
 -12981909.685 9 -10100906.24247  23156536.309    23156537.0984   23156544.3244
      2940.174        2291.045
   4152353.834 9   3241473.82247  23363760.535    23363762.0154   23363768.0764
     -2442.976       -1903.618
  -2113193.044 9  -1639016.47348  20848367.253    20848367.8354   20848374.1674
      -443.048        -345.232
 -11801553.208 9  -9174686.560 9  20646405.132    20646405.856    20646411.818
       377.238         293.952
 96 10  7 17  8  0.0000000  0  8  1  6 22 23  3 26 17 28             0.000712382
  -6415245.525 9  -4715225.30546  24545137.202    24545138.4614   24545147.6984
      3711.359        2891.968
  13288223.601 9  10315501.20547  23019987.269    23019988.2254   23019995.3754
     -3460.542       -2696.526
   2109620.344 9   1649946.23846  24369752.427    24369752.5264   24369760.3804
     -1733.619       -1350.872
  -5894018.021 9  -4578824.46348  20836833.240    20836833.8474   20836840.2394
      -271.108        -211.253
 -13069970.138 9 -10169524.75547  23139779.118    23139779.7714   23139786.8964
      2930.435        2283.456
   4225845.060 9   3298739.68847  23377745.741    23377746.9584   23377753.0354
     -2456.211       -1913.931
  -2099778.941 9  -1628563.93348  20850919.922    20850920.4884   20850926.8074
      -451.331        -351.686
 -11812580.330 9  -9183279.129 9  20644306.773    20644307.456    20644313.467
       357.954         278.925
 96 10  7 17  8 30.0000000  0  8  1  6 22 23  3 26 17 28             0.000712129
  -6526556.192 9  -4801960.77046  24523955.622    24523956.6454   24523965.9544
      3709.719        2890.690
  13392169.377 9  10396497.86447  23039767.281    23039768.4244   23039775.6364
     -3468.490       -2702.719
   2161784.376 9   1690593.51646  24379678.953    24379678.9294   24379686.8654
     -1743.374       -1358.473
  -5885702.116 9  -4572344.53948  20838415.740    20838416.3154   20838422.7054
      -282.768        -220.339
 -13157711.840 9 -10237894.89847  23123082.540    23123083.1244   23123090.1454
      2919.577        2274.995
   4299740.113 9   3356320.23247  23391807.425    23391808.6854   23391814.7694
     -2469.711       -1924.450
  -2086085.815 9  -1617893.97548  20853525.619    20853526.2344   20853532.5494
      -461.098        -359.297
 -11823010.947 9  -9191406.893 9  20642321.934    20642322.604    20642328.571
       337.895         263.295
 96 10  7 17  9  0.0000000  0  8  1  6 22 23  3 26 17 28             0.000711862
  -6637823.571 9  -4888662.51346  24502782.482    24502783.0434   24502792.5074
      3707.919        2889.288
  13496342.795 9  10477671.91847  23059591.046    23059592.0234   23059599.2324
     -3476.668       -2709.092
   2214229.603 9   1731459.90046  24389658.560    24389658.9484   24389666.8984
     -1753.249       -1366.168
  -5877046.195 9  -4565599.67148  20840062.869    20840063.4654   20840069.8874
      -294.284        -229.312
 -13245141.182 9 -10306021.64047  23106445.151    23106445.8444   23106452.7914
      2908.821        2266.614
   4374035.433 9   3414212.66347  23405945.673    23405946.6614   23405952.7164
     -2483.441       -1935.149
  -2072102.725 9  -1606998.06748  20856186.518    20856187.1124   20856193.4364
      -471.278        -367.230
 -11832847.519 9  -9199071.760 9  20640449.960    20640450.755    20640456.749
       317.754         247.601
 96 10  7 17  9 30.0000000  0  8  1  6 22 23  3 26 17 28             0.000711585
  -6749057.780 9  -4975338.42546  24481615.367    24481615.7324   24481625.2644
      3707.399        2888.882
  13600743.082 9  10559022.74747  23079457.794    23079458.8504   23079466.0194
     -3483.604       -2714.497
   2266955.497 9   1772544.97546  24399692.359    24399692.4684   24399700.3214
     -1762.173       -1373.122
  -5868080.864 9  -4558613.69948  20841768.988    20841769.5374   20841775.9064
      -303.478        -236.476
 -13332266.432 9 -10373911.42147  23089865.746    23089866.4234   23089873.3314
      2899.215        2259.129
   4448725.952 9   3472413.04247  23420158.668    23420159.8184   23420165.8374
     -2496.332       -1945.194
  -2057833.821 9  -1595879.45148  20858901.859    20858902.4384   20858908.7544
      -480.373        -374.317
 -11842101.987 9  -9206283.039 9  20638688.837    20638689.697    20638695.725
       298.866         232.883
 96 10  7 17 10  0.0000000  0  8  1  6 22 23  3 26 17 28             0.000711301
  -6860276.253 9  -5062002.06246  24460450.856    24460451.4314   24460461.0714
      3706.885        2888.482
  13705358.187 9  10640540.98147  23099365.072    23099366.5254   23099373.7814
     -3491.078       -2720.321
   2319953.356 9   1813841.98746  24409777.265    24409777.5904   24409785.4474
     -1771.097       -1380.076
  -5858843.306 9  -4551415.60448  20843526.802    20843527.4364   20843533.7624
      -312.713        -243.672
 -13419098.121 9 -10441572.45947  23073341.950    23073342.8914   23073349.7524
      2889.140        2251.278
   4523816.763 9   3530925.33447  23434447.909    23434449.1144   23434455.1854
     -2510.132       -1955.947
  -2043275.748 9  -1584535.50848  20861672.144    20861672.7764   20861679.0624
      -490.518        -382.222
 -11850780.989 9  -9213045.906 9  20637037.256    20637038.133    20637044.182
       279.389         217.706
 96 10  7 17 10 30.0000000  0  8  1  6 22 23  3 26 17 28             0.000711016
  -6971485.260 9  -5148658.36346  24439288.051    24439289.0154   24439298.5544
      3706.664        2888.310
  13810196.087 9  10722232.80447  23119315.571    23119316.6294   23119323.8484
     -3498.398       -2726.024
   2373206.730 9   1855338.09447  24419910.917    24419911.4034   24419919.2764
     -1779.515       -1386.635
  -5849328.352 9  -4544001.36148  20845337.532    20845338.0824   20845344.4154
      -321.923        -250.849
 -13505627.370 9 -10508997.83247  23056876.296    23056876.9854   23056883.8034
      2879.125        2243.474
   4599327.571 9   3589764.89147  23448817.378    23448818.3514   23448824.4504
     -2524.266       -1966.961
  -2028423.218 9  -1572962.11848  20864498.573    20864499.1674   20864505.4494
      -499.765        -389.427
 -11858878.140 9  -9219355.384 9  20635496.372    20635497.310    20635503.341
       260.093         202.670
 96 10  7 17 11  0.0000000  0  8  1  6 22 23  3 26 17 28             0.000710735
  -7082682.580 9  -5235305.54746  24418128.027    24418128.8854   24418138.3784
      3706.301        2888.027
  13915262.796 9  10804102.92247  23139309.054    23139310.2244   23139317.4174
     -3506.322       -2732.199
   2426722.578 9   1897038.71846  24430095.059    24430095.3204   24430103.1584
     -1788.359       -1393.526
  -5839531.896 9  -4536367.76348  20847201.732    20847202.3184   20847208.6074
      -331.335        -258.183
 -13591846.180 9 -10576181.30147  23040469.529    23040470.1584   23040476.9324
      2868.474        2235.175
   4675269.446 9   3648940.34247  23463268.259    23463269.6074   23463275.7284
     -2538.629       -1978.152
  -2013301.293 9  -1561178.80648  20867376.152    20867376.7904   20867383.0714
      -508.442        -396.189
 -11866391.458 9  -9225209.924 9  20634066.740    20634067.609    20634073.627
       240.576         187.462
 96 10  7 17 11 30.0000000  0  8  1  6 22 23  3 26 17 28             0.000710455
  -7193875.009 9  -5321948.94646  24396969.434    24396969.6214   24396979.0204
      3706.500        2888.182
  14020557.229 9  10886150.49347  23159345.766    23159347.1334   23159354.3224
     -3513.194       -2737.554
   2480483.678 9   1938930.46846  24440325.307    24440325.5954   24440333.5604
     -1795.541       -1399.123
  -5829458.723 9  -4528518.53548  20849118.580    20849119.2144   20849125.4404
      -340.360        -265.216
 -13677740.317 9 -10643111.78247  23024124.084    23024125.0054   23024131.8094
      2857.742        2226.812
   4751626.929 9   3708439.65747  23477798.541    23477799.9664   23477806.0504
     -2551.701       -1988.338
  -1997935.096 9  -1549205.15748  20870300.216    20870300.8974   20870307.1734
      -515.967        -402.052
 -11873325.474 9  -9230613.059 9  20632747.310    20632748.127    20632754.118
       221.711         172.762
 96 10  7 17 12  0.0000000  0  8  1  6 22 23  3 26 17 28             0.000710155
  -7305070.434 9  -5408594.68946  24375809.889    24375809.7814   24375819.0774
      3706.134        2887.897
  14126051.837 9  10968354.03047  23179420.646    23179422.1664   23179429.3484
     -3520.070       -2742.912
   2534449.558 9   1980981.77946  24450594.659    24450595.0614   24450602.8734
     -1802.351       -1404.429
  -5819106.281 9  -4520451.70348  20851088.580    20851089.2334   20851095.4764
      -350.090        -272.797
 -13763307.698 9 -10709787.63347  23007841.214    23007842.0664   23007848.8514
      2846.494        2218.047
   4828360.649 9   3768232.14347  23492400.505    23492401.9544   23492407.9664
     -2564.033       -1997.948
  -1982352.666 9  -1537063.01248  20873265.471    20873266.1704   20873272.4344
      -522.962        -407.503
 -11879695.533 9  -9235576.753 9  20631535.147    20631535.950    20631541.911
       202.794         158.021
 96 10  7 17 12 30.0000000  0  8  1  6 22 23  3 26 17 28             0.000709845
  -7416230.870 9  -5495213.16846  24354656.598    24354656.5564   24354665.8014
      3704.702        2886.781
  14231769.249 9  11050731.18247  23199538.244    23199539.5374   23199546.7264
     -3527.439       -2748.654
   2588632.313 9   2023202.05846  24460905.631    24460905.8114   24460913.5594
     -1809.742       -1410.188
  -5808447.493 9  -4512146.16148  20853116.900    20853117.5224   20853123.7784
      -360.186        -280.664
 -13848518.711 9 -10776185.81647  22991626.369    22991626.9864   22991633.6944
      2834.523        2208.719
   4905472.628 9   3828319.36247  23507074.552    23507075.9154   23507081.9254
     -2576.479       -2007.646
  -1966557.592 9  -1524755.17248  20876271.343    20876271.8914   20876278.1794
      -529.897        -412.907
 -11885483.120 9  -9240086.568 9  20630433.804    20630434.625    20630440.599
       183.292         142.825
 96 10  7 17 13  0.0000000  0  8  1  6 22 23  3 26 17 28             0.000709524
  -7527346.988 9  -5581797.12046  24333511.777    24333511.8134   24333521.0074
      3702.986        2885.444
  14337697.433 9  11133272.57847  23219695.799    23219697.0344   23219704.2374
     -3534.614       -2754.245
   2643031.568 9   2065591.07147  24471257.644    24471257.6064   24471265.5184
     -1816.927       -1415.787
  -5797497.480 9  -4503613.68548  20855200.512    20855201.1984   20855207.5004
      -369.892        -288.228
 -13933374.399 9 -10842307.11647  22975478.886    22975479.5094   22975486.1684
      2822.522        2199.368
   4982951.896 9   3888692.78947  23521818.517    23521819.7754   23521825.8194
     -2588.908       -2017.331
  -1950548.171 9  -1512280.30948  20879317.806    20879318.3854   20879324.7034
      -537.749        -419.025
 -11890688.004 9  -9244142.337 9  20629443.447    20629444.179    20629450.141
       163.545         127.438
 96 10  7 17 13 30.0000000  0  8  1  6 22 23  3 26 17 28             0.000709191
  -7638419.406 9  -5668347.02946  24312375.066    24312375.3824   24312384.5494
      3701.965        2884.648
  14443839.670 9  11215980.76147  23239894.127    23239895.1884   23239902.4624
     -3541.389       -2759.524
   2697645.543 9   2108147.37446  24481650.468    24481650.2614   24481658.1964
     -1824.016       -1421.311
  -5786261.616 9  -4494858.47548  20857338.646    20857339.3044   20857345.6104
      -379.072        -295.381
 -14017879.743 9 -10908155.43047  22959398.141    22959398.7634   22959405.3424
      2811.345        2190.658
   5060804.307 9   3949356.97047  23536633.140    23536634.5804   23536640.7344
     -2601.151       -2026.871
  -1934291.817 9  -1499613.03248  20882411.219    20882411.8564   20882418.1814
      -546.018        -425.469
 -11895300.558 9  -9247736.549 9  20628565.639    20628566.444    20628572.392
       144.069         112.262
 96 10  7 17 14  0.0000000  0  8  1  6 22 23  3 26 17 28             0.000708852
  -7749445.353 9  -5754860.72046  24291247.032    24291247.8514   24291256.9294
      3699.559        2882.773
  14550195.895 9  11298855.69447  23260132.945    23260134.0984   23260141.4054
     -3549.189       -2765.602
   2752497.879 9   2150889.42846  24492088.797    24492088.4134   24492096.2554
     -1833.043       -1428.345
  -5774738.469 9  -4485879.40148  20859531.496    20859532.1054   20859538.4014
      -389.308        -303.357
 -14102049.102 9 -10973741.92547  22943381.267    22943381.9094   22943388.5084
      2799.814        2181.673
   5139040.226 9   4010319.98747  23551521.041    23551522.4434   23551528.5894
     -2614.851       -2037.546
  -1917769.096 9  -1486738.18848  20885555.417    20885556.0314   20885562.3824
      -555.687        -433.003
 -11899316.624 9  -9250865.958 9  20627801.430    20627802.207    20627808.185
       123.462          96.204
 96 10  7 17 14 30.0000000  0  9  1  9  6 22 23  3 26 17 28          0.000708509
  -7860417.838 9  -5841332.73946  24270129.890    24270130.3934   24270139.4664
      3698.504        2881.951
  -1738803.95618  -1341273.72156  25297892.355    25297893.5645   25297901.5145
      2171.311        1691.931
  14656762.020 9  11381894.18246  23280412.048    23280413.0214   23280420.2894
     -3555.323       -2770.381
   2807609.079 9   2193833.20446  24502575.816    24502575.6124   24502583.6634
     -1841.142       -1434.656
  -5762929.851 9  -4476677.88848  20861778.593    20861779.1914   20861785.5334
      -398.128        -310.230
 -14185896.088 9 -11039077.21647  22927425.662    22927426.3104   22927433.0094
      2789.890        2173.940
   5217673.769 9   4071592.85147  23566484.622    23566485.9274   23566492.0484
     -2627.391       -2047.318
  -1900965.186 9  -1473644.23848  20888753.120    20888753.7184   20888760.0734
      -564.768        -440.079
 -11902730.779 9  -9253526.350 9  20627151.808    20627152.539    20627158.484
       104.044          81.073
 96 10  7 17 15  0.0000000  0  9  1  9  6 22 23  3 26 17 28          0.000708154
  -7971353.162 9  -5927775.82946  24249019.736    24249020.0544   24249029.2834
      3697.325        2881.032
  -1803906.492 8  -1392002.96546  25285504.084    25285505.0234   25285512.9714
      2168.999        1690.129
  14763521.417 9  11465083.26347  23300727.465    23300728.7344   23300735.9034
     -3561.900       -2775.506
   2862973.626 9   2236974.37146  24513111.567    24513111.1574   24513119.2724
     -1849.607       -1441.252
  -5750844.353 9  -4467260.62348  20864078.348    20864078.9944   20864085.3224
      -407.409        -317.462
 -14269432.222 9 -11104170.30247  22911529.457    22911529.8854   22911536.5914
      2779.263        2165.659
   5296686.207 9   4133160.94847  23581519.923    23581521.4654   23581527.5604
     -2639.898       -2057.063
  -1883865.953 9  -1460320.17448  20892006.966    20892007.6074   20892013.9554
      -574.916        -447.986
 -11905553.314 9  -9255725.746 9  20626614.779    20626615.467    20626621.371
        84.310          65.696
 96 10  7 17 15 30.0000000  0  9  1  9  6 22 23  3 26 17 28          0.000707783
  -8082256.601 9  -6014194.06146  24227915.058    24227915.8144   24227924.8954
      3695.403        2879.535
  -1868950.425 9  -1442686.57646  25273127.103    25273127.7174   25273135.5584
      2166.552        1688.222
  14870477.624 9  11548425.70946  23321080.220    23321081.8514   23321089.0664
     -3569.056       -2781.082
   2918583.856 9   2280306.97246  24523693.713    24523693.5084   24523701.5094
     -1858.336       -1448.054
  -5738484.035 9  -4457629.20948  20866430.460    20866431.0854   20866437.4294
      -417.300        -325.169
 -14352653.846 9 -11169018.30947  22895692.645    22895693.3094   22895700.0114
      2768.046        2156.919
   5376062.729 9   4195012.75547  23596624.928    23596626.3374   23596632.3974
     -2652.419       -2066.820
  -1866474.891 9  -1446768.70748  20895316.330    20895317.0034   20895323.3524
      -584.960        -455.813
 -11907794.307 9  -9257471.981 9  20626188.323    20626189.053    20626194.961
        64.449          50.220
 96 10  7 17 16  0.0000000  0  9  1  9  6 22 23  3 26 17 28          0.000707404
  -8193094.867 9  -6100561.49846  24206822.770    24206823.9724   24206832.9244
      3692.981        2877.648
  -1933925.975 8  -1493316.86246  25260762.823    25260763.3484   25260771.1654
      2164.273        1686.446
  14977631.023 9  11631921.80346  23341470.632    23341472.4814   23341479.7334
     -3575.353       -2785.989
   2974446.420 9   2323836.22146  24534323.938    24534323.6194   24534331.7784
     -1866.594       -1454.489
  -5725831.018 9  -4447769.71948  20868838.211    20868838.8564   20868845.2144
      -426.951        -332.689
 -14435533.412 9 -11233599.77847  22879921.044    22879921.8354   22879928.5154
      2756.348        2147.804
   5455799.498 9   4257145.25847  23611798.471    23611799.7364   23611805.8394
     -2664.093       -2075.917
  -1848794.144 9  -1432991.51248  20898680.913    20898681.5464   20898687.9034
      -594.470        -463.223
 -11909444.420 9  -9258757.798 9  20625874.382    20625875.059    20625880.961
        44.708          34.837
 96 10  7 17 16 30.0000000  0  9  1  9  6 22 23  3 26 17 28          0.000707020
  -8303862.292 9  -6186873.74246  24185744.078    24185745.5904   24185754.5494
      3690.985        2876.092
  -1998816.192 8  -1543880.62146  25248414.331    25248414.9504   25248422.8884
      2161.210        1684.060
  15084983.361 9  11715572.91846  23361899.609    23361901.0224   23361908.2124
     -3582.116       -2791.259
   3030551.671 9   2367554.56646  24545000.604    24545000.1344   24545008.3224
     -1874.207       -1460.421
  -5712893.049 9  -4437688.19248  20871300.209    20871300.8704   20871307.2164
      -436.109        -339.825
 -14518051.007 9 -11297899.19647  22864218.352    22864219.1874   22864225.8974
      2744.219        2138.352
   5535886.809 9   4319550.90747  23627038.614    23627039.8614   23627046.0374
     -2675.540       -2084.836
  -1830826.120 9  -1418990.46548  20902100.219    20902100.7824   20902107.1344
      -603.909        -470.578
 -11910496.693 9  -9259577.763 9  20625674.080    20625674.801    20625680.722
        24.907          19.408
 96 10  7 17 17  0.0000000  0  9  1  9  6 22 23  3 26 17 28          0.000706631
  -8414570.932 9  -6273140.17546  24164677.187    24164678.5154   24164687.3854
      3688.991        2874.538
  -2063609.161 8  -1594368.62146  25236084.677    25236085.3104   25236093.1564
      2157.662        1681.295
  15192549.834 9  11799390.87846  23382369.194    23382370.2304   23382377.4954
     -3589.514       -2797.024
   3086881.348 9   2411447.78146  24555719.919    24555719.4334   24555727.5374
     -1881.669       -1466.236
  -5699679.467 9  -4427391.89648  20873814.735    20873815.3454   20873821.6524
      -445.353        -347.028
 -14600192.823 9 -11361905.78747  22848587.225    22848588.0644   22848594.8154
      2731.283        2128.272
   5616315.509 9   4382222.59247  23642343.496    23642345.0134   23642351.1644
     -2687.086       -2093.833
  -1812576.506 9  -1404769.99548  20905573.032    20905573.5894   20905579.9474
      -613.214        -477.829
 -11910953.777 9  -9259933.942 9  20625587.024    20625587.834    20625593.768
         4.959           3.864
 96 10  7 17 17 30.0000000  0  9  1  9  6 22 23  3 26 17 28          0.000706232
  -8525237.454 9  -6359373.78646  24143618.372    24143619.4124   24143628.2324
      3688.535        2874.183
  -2128310.479 9  -1644785.16446  25223772.697    25223773.0944   25223780.8264
      2155.472        1679.589
  15300319.558 9  11883367.23046  23402876.966    23402878.1904   23402885.4584
     -3595.091       -2801.370
   3143407.752 9   2455494.31446  24566476.257    24566475.9974   24566484.0974
     -1886.906       -1470.316
  -5686206.332 9  -4416893.35548  20876378.569    20876379.2064   20876385.4914
      -453.159        -353.111
 -14681964.793 9 -11425624.19847  22833026.468    22833027.4134   22833034.1854
      2720.110        2119.566
   5697081.495 9   4445157.09347  23657712.865    23657714.2944   23657720.4464
     -2697.397       -2101.868
  -1794073.691 9  -1390352.22748  20909094.001    20909094.5734   20909100.9354
      -620.461        -483.476
 -11910830.705 9  -9259838.055 9  20625610.448    20625611.230    20625617.210
       -13.389         -10.433
 96 10  7 17 18  0.0000000  0  9  1  9  6 22 23  3 26 17 28          0.000705826
  -8635844.147 9  -6445560.77446  24122570.829    24122571.6594   24122580.4144
      3685.893        2872.124
  -2192897.865 9  -1695112.97146  25211481.999    25211482.6244   25211490.3234
      2150.802        1675.950
  15408290.011 9  11967499.98946  23423422.291    23423424.2444   23423431.6294
     -3602.280       -2806.971
   3200133.954 9   2499696.51846  24577270.347    24577270.6744   24577278.7214
     -1894.181       -1475.985
  -5672449.901 9  -4406174.06448  20878996.270    20878996.9674   20879003.2794
      -463.380        -361.075
 -14763354.910 9 -11489045.05147  22817538.310    22817539.3864   22817546.1734
      2706.643        2109.072
   5778200.138 9   4508366.38247  23673149.468    23673150.6774   23673156.7914
     -2709.969       -2111.664
  -1775308.610 9  -1375730.09248  20912664.860    20912665.4834   20912671.8354
      -629.981        -490.894
 -11910111.854 9  -9259277.922 9  20625747.306    20625748.053    20625753.999
       -33.916         -26.428
 96 10  7 17 18 30.0000000  0  9  1  9  6 22 23  3 26 17 28          0.000705415
  -8746396.332 9  -6531705.29346  24101534.021    24101534.3294   24101542.9354
      3684.362        2870.931
  -2257369.868 9  -1745350.83146  25199213.402    25199214.0494   25199221.7194
      2147.470        1673.353
  15516463.018 9  12051790.57846  23444007.271    23444008.8874   23444016.2364
     -3608.946       -2812.166
   3257053.695 9   2544049.52446  24588102.244    24588102.3314   24588110.2254
     -1900.379       -1480.815
  -5658404.697 9  -4395229.75748  20881668.996    20881669.6914   20881675.9824
      -472.882        -368.479
 -14844367.616 9 -11552171.82247  22802121.915    22802123.1424   22802129.9414
      2694.286        2099.444
   5859684.925 9   4571860.98047  23688655.565    23688656.7914   23688662.9674
     -2722.162       -2121.165
  -1756271.387 9  -1360895.90448  20916287.609    20916288.1974   20916294.5054
      -639.068        -497.975
 -11908799.447 9  -9258255.286 9  20625997.102    20625997.839    20626003.771
       -53.392         -41.604
 96 10  7 17 19  0.0000000  0  9  1  9  6 22 23  3 26 17 28          0.000705006
  -8856877.484 9  -6617794.44646  24080509.963    24080510.4194   24080518.9944
      3681.171        2868.445
  -2321725.109 9  -1795497.73446  25186966.912    25186967.6764   25186975.1974
      2143.098        1669.946
  15624839.496 9  12136239.72346  23464630.981    23464632.2484   23464639.6624
     -3615.768       -2817.482
   3314180.574 9   2588563.95346  24598972.849    24598973.1574   24598981.1574
     -1907.825       -1486.617
  -5644051.641 9  -4384045.56248  20884400.387    20884400.9714   20884407.2874
      -483.645        -376.866
 -14924987.542 9 -11614992.53247  22786780.473    22786781.6744   22786788.5144
      2680.668        2088.832
   5941551.002 9   4635652.68847  23704234.494    23704235.4944   23704241.6544
     -2735.313       -2131.413
  -1736942.683 9  -1345834.58948  20919965.670    20919966.3344   20919972.6234
      -649.268        -505.923
 -11906886.987 9  -9256765.069 9  20626360.965    20626361.773    20626367.734
       -73.869         -57.560
 96 10  7 17 19 30.0000000  0  9  1  9  6 22 23  3 26 17 28          0.000704596
  -8967271.342 9  -6703815.59146  24059502.436    24059503.0844   24059511.6944
      3678.362        2866.256
  -2385965.553 9  -1845555.18046  25174742.617    25174743.1424   25174750.7344
      2139.537        1667.172
  15733384.405 9  12220820.09546  23485286.480    23485287.6944   23485295.1124
     -3620.480       -2821.153
   3371511.657 9   2633237.49846  24609882.257    24609882.9224   24609890.8954
     -1914.268       -1491.637
  -5629394.976 9  -4372624.79248  20887189.417    20887190.0344   20887196.3544
      -493.452        -384.508
 -15005222.908 9 -11677513.57947  22771511.976    22771513.4054   22771520.2194
      2668.509        2079.358
   6023794.368 9   4699738.39447  23719885.111    23719886.0184   23719892.1024
     -2747.428       -2140.853
  -1717327.404 9  -1330549.96648  20923698.334    20923699.0104   20923705.2804
      -658.424        -513.058
 -11904379.980 9  -9254811.572 9  20626838.069    20626838.860    20626844.799
       -93.300         -72.701
 96 10  7 17 20  0.0000000  0  9  1  9  6 22 23  3 26 17 28          0.000704200
  -9077536.558 9  -6789736.50246  24038519.229    24038520.2224   24038528.8804
      3674.598        2863.323
  -2450054.670 9  -1895494.72046  25162546.523    25162547.3374   25162554.8234
      2134.927        1663.579
  15842109.777 9  12305541.09846  23505976.758    23505977.5414   23505984.8974
     -3626.126       -2825.553
   3429086.063 9   2678100.63746  24620838.610    24620839.1654   24620846.8874
     -1922.107       -1497.746
  -5614410.185 9  -4360948.33448  20890040.950    20890041.5944   20890047.8894
      -503.468        -392.313
 -15085057.043 9 -11739721.97547  22756320.176    22756321.4304   22756328.2334
      2655.615        2069.310
   6106435.204 9   4764133.80047  23735611.730    23735612.0614   23735618.1094
     -2760.158       -2150.772
  -1697391.959 9  -1315015.86248  20927491.954    20927492.6054   20927498.8864
      -668.692        -521.059
 -11901246.871 9  -9252370.199 9  20627434.321    20627435.075    20627441.036
      -113.722         -88.615
 96 10  7 17 20 30.0000000  0  9  1  9  6 22 23  3 26 17 28          0.000703799
  -9187709.322 9  -6875585.35146  24017553.230    24017554.9104   24017563.6444
      3670.775        2860.344
  -2514022.650 9  -1945339.88046  25150373.816    25150374.5484   25150382.0954
      2130.148        1659.856
  15950995.934 9  12390387.38246  23526696.918    23526697.9984   23526705.3394
     -3632.385       -2830.430
   3486878.471 9   2723133.66446  24631836.038    24631836.6464   24631844.5634
     -1930.227       -1504.073
  -5599156.009 9  -4349061.96448  20892943.745    20892944.3714   20892950.6664
      -512.860        -399.631
 -15164528.933 9 -11801648.11147  22741197.110    22741198.4414   22741205.2044
      2642.894        2059.398
   6189438.254 9   4828811.46547  23751406.668    23751406.9934   23751413.0754
     -2772.672       -2160.524
  -1677165.877 9  -1299255.28448  20931340.882    20931341.5204   20931347.7904
      -679.092        -529.163
 -11897518.201 9  -9249464.752 9  20628143.805    20628144.607    20628150.586
      -134.348        -104.687
 96 10  7 17 21  0.0000000  0  9  1  9  6 22 23  3 26 17 28          0.000703389
  -9297789.227 9  -6961361.83846  23996606.319    23996607.3444   23996616.0854
      3668.051        2858.222
  -2577862.646 9  -1995085.32746  25138225.381    25138226.1384   25138233.6784
      2125.976        1656.605
  16060035.924 9  12475353.54546  23547446.923    23547447.7094   23547455.0144
     -3636.952       -2833.988
   3544887.120 9   2768335.17946  24642874.822    24642875.3454   24642883.3624
     -1936.855       -1509.238
  -5583645.799 9  -4336976.08948  20895895.308    20895895.8614   20895902.1844
      -520.989        -405.965
 -15243644.535 9 -11863296.61547  22726141.946    22726143.2514   22726149.9674
      2631.669        2050.651
   6272777.466 9   4893751.07547  23767265.660    23767265.9434   23767272.0364
     -2783.129       -2168.672
  -1656663.015 9  -1283279.04048  20935242.496    20935243.0954   20935249.3254
      -687.581        -535.777
 -11893194.011 9  -9246095.266 9  20628966.655    20628967.478    20628973.439
      -153.817        -119.857
 96 10  7 17 21 30.0000000  0  9  1  9  6 22 23  3 26 17 28          0.000702963
  -9407775.326 9  -7047065.23046  23975677.102    23975677.7344   23975686.3464
      3664.482        2855.441
  -2641555.424 8  -2044716.04146  25126104.848    25126105.7644   25126113.3404
      2120.307        1652.187
  16169235.243 9  12560443.85946  23568226.962    23568227.6474   23568235.0234
     -3643.121       -2838.796
   3603113.564 9   2813706.40546  24653955.252    24653955.6744   24653963.5064
     -1944.855       -1515.471
  -5567872.478 9  -4324685.20048  20898896.812    20898897.4294   20898903.7214
      -530.539        -413.407
 -15322409.323 9 -11924671.76447  22711153.563    22711154.8184   22711161.5064
      2619.308        2041.019
   6356448.221 9   4958949.02547  23783187.400    23783187.9944   23783194.0474
     -2794.933       -2177.870
  -1635891.467 9  -1267093.43048  20939195.165    20939195.7654   20939202.0254
      -697.147        -543.231
 -11888267.237 9  -9242256.233 9  20629904.038    20629904.989    20629910.977
      -174.609        -136.059
 96 10  7 17 22  0.0000000  0  9  1  9  6 22 23  3 26 17 28          0.000702514
  -9517695.910 9  -7132717.57146  23954760.139    23954760.6174   23954769.0594
      3663.472        2854.654
  -2705118.699 8  -2094245.84445  25114009.515    25114010.1344   25114017.6654
      2117.233        1649.792
  16278597.714 9  12645661.29846  23589037.685    23589038.6234   23589046.1174
     -3647.830       -2842.465
   3661544.505 9   2859236.99046  24665074.562    24665074.6334   24665082.6064
     -1950.654       -1519.990
  -5551852.708 9  -4312202.27048  20901945.343    20901945.9034   20901952.1664
      -537.620        -418.925
 -15400832.814 9 -11985780.96747  22696230.216    22696231.3544   22696237.9484
      2608.580        2032.660
   6440433.929 9   5024392.38247  23799169.172    23799169.8984   23799176.0394
     -2804.260       -2185.138
  -1614866.618 9  -1250710.44548  20943196.029    20943196.6324   20943202.9384
      -704.620        -549.055
 -11882750.815 9  -9237957.736 9  20630953.711    20630954.754    20630960.722
      -193.279        -150.607
 96 10  7 17 22 30.0000000  0  9  1  9  6 22 23  3 26 17 28          0.000702042
  -9627562.525 9  -7218327.86846  23933853.023    23933853.7154   23933862.0634
      3660.802        2852.573
  -2768565.492 8  -2143684.89446  25101935.776    25101936.4254   25101944.0234
      2112.482        1646.090
  16388127.262 9  12731008.92446  23609880.370    23609881.4594   23609888.9034
     -3654.208       -2847.435
   3720169.666 9   2904918.90546  24676230.586    24676230.5804   24676238.7384
     -1957.937       -1525.665
  -5535582.702 9  -4299524.34648  20905041.407    20905041.9994   20905048.2454
      -547.195        -426.386
 -15478896.843 9 -12046610.05947  22681375.250    22681376.2524   22681382.8614
      2595.354        2022.354
   6524723.339 9   5090072.38547  23815208.817    23815209.5984   23815215.8504
     -2815.190       -2193.655
  -1593591.136 9  -1234132.15848  20947244.591    20947245.2094   20947251.5264
      -713.934        -556.312
 -11876649.814 9  -9233203.719 9  20632114.767    20632115.734    20632121.693
      -213.616        -166.454
 96 10  7 17 23  0.0000000  0  9  1  9  6 22 23  3 26 17 28          0.000701556
  -9737366.084 9  -7303889.03646  23912957.748    23912958.7734   23912967.0414
      3658.925        2851.110
  -2831884.407 8  -2193024.28246  25089886.688    25089887.2854   25089894.8004
      2108.445        1642.944
  16497830.091 9  12816491.57246  23630756.399    23630757.3224   23630764.7344
     -3659.790       -2851.784
   3779000.339 9   2950760.95746  24687425.712    24687425.8154   24687433.9044
     -1964.521       -1530.796
  -5519032.798 9  -4286628.32048  20908190.768    20908191.3314   20908197.6014
      -556.580        -433.699
 -15556566.452 9 -12107131.81747  22666595.158    22666596.1904   22666602.8234
      2582.071        2012.003
   6609335.036 9   5156003.53147  23831309.300    23831310.6834   23831316.9314
     -2826.221       -2202.250
  -1572048.662 9  -1217345.82348  20951343.991    20951344.6404   20951350.9704
      -722.812        -563.230
 -11869950.896 9  -9227983.792 9  20633389.634    20633390.530    20633396.480
      -233.448        -181.907
 96 10  7 17 23 30.0000000  0  9  1  9  6 22 23  3 26 17 28          0.000701077
  -9847102.059 9  -7389397.53646  23892075.317    23892076.6954   23892084.8674
      3657.063        2849.659
  -2895079.547 8  -2242267.28046  25077861.304    25077861.6414   25077869.0504
      2104.902        1640.183
  16607721.677 9  12902121.30546  23651668.754    23651669.0564   23651676.3864
     -3665.960       -2856.592
   3838036.146 9   2996762.86546  24698659.466    24698659.9224   24698668.0194
     -1970.651       -1535.572
  -5502192.224 9  -4273505.80248  20911395.454    20911395.9844   20911402.2404
      -565.828        -440.905
 -15633813.139 9 -12167324.03547  22651895.440    22651896.6304   22651903.2864
      2568.139        2001.147
   6694304.354 9   5222213.34647  23847478.260    23847479.8114   23847486.0854
     -2837.979       -2211.412
  -1550215.467 9  -1200332.95548  20955498.766    20955499.4024   20955505.6944
      -732.365        -570.674
 -11862643.199 9  -9222289.494 9  20634780.250    20634781.153    20634787.102
      -253.351        -197.416
 96 10  7 17 24  0.0000000  0  9  1  9  6 22 23  3 26 17 28          0.000700605
  -9956766.404 9  -7474850.23246  23871207.059    23871208.2684   23871216.4304
      3654.297        2847.504
  -2958163.218 8  -2291423.38545  25065856.702    25065857.2014   25065864.5724
      2101.079        1637.204
  16717805.540 9  12987900.87046  23672616.847    23672617.3774   23672624.7904
     -3672.276       -2861.514
   3897248.056 9   3042901.98246  24709927.170    24709927.5934   24709935.6504
     -1976.223       -1539.914
  -5485067.926 9  -4260162.20348  20914654.052    20914654.6154   20914660.8924
      -575.169        -448.184
 -15710632.236 9 -12227183.06447  22637277.154    22637278.4304   22637285.0704
      2553.788        1989.965
   6779631.099 9   5288701.67947  23863715.890    23863717.0414   23863723.2844
     -2849.600       -2220.468
  -1528089.577 9  -1183092.01848  20959709.132    20959709.8234   20959716.1214
      -742.129        -578.282
 -11854734.525 9  -9216126.909 9  20636285.332    20636286.155    20636292.080
      -273.312        -212.970
 96 10  7 17 24 30.0000000  0  9  1  9  6 22 23  3 26 17 28          0.000700138
 -10066341.909 9  -7560233.69546  23850355.804    23850356.7384   23850364.8864
      3651.043        2844.968
  -3021126.895 8  -2340485.94246  25053875.377    25053875.4184   25053883.0094
      2096.766        1633.844
  16828072.397 9  13073823.02846  23693599.699    23693600.5224   23693607.9874
     -3678.267       -2866.182
   3956625.847 9   3089170.37346  24721226.236    24721226.8394   24721234.9924
     -1981.866       -1544.311
  -5467667.707 9  -4246603.59148  20917965.159    20917965.7614   20917972.0414
      -584.341        -455.331
 -15787022.583 9 -12286707.99347  22622740.545    22622741.8434   22622748.4484
      2539.357        1978.720
   6865301.103 9   5355457.48247  23880018.432    23880019.6054   23880025.8024
     -2861.257       -2229.551
  -1505671.958 9  -1165623.74848  20963975.097    20963975.7194   20963982.0554
      -751.946        -585.932
 -11846229.261 9  -9209499.437 9  20637903.829    20637904.671    20637910.597
      -293.284        -228.533
 96 10  7 17 25  0.0000000  0  9  1  9  6 22 23  3 26 17 28          0.000699682
 -10175801.651 9  -7645526.94346  23829526.114    23829527.1744   23829535.3084
      3646.503        2841.431
  -3083944.629 8  -2389434.82946  25041921.519    25041921.5274   25041929.1744
      2091.301        1629.585
  16938513.462 9  13159880.93846  23714616.009    23714616.8024   23714624.3054
     -3684.035       -2870.677
   4016174.538 9   3135571.90846  24732557.816    24732558.4864   24732566.6854
     -1987.769       -1548.911
  -5449991.738 9  -4232830.11648  20921328.868    20921329.4084   20921335.6744
      -593.808        -462.708
 -15862980.299 9 -12345895.80947  22608286.443    22608287.6204   22608294.1864
      2524.794        1967.372
   6951323.531 9   5422487.89447  23896387.758    23896389.1824   23896395.3514
     -2873.018       -2238.715
  -1482957.451 9  -1147924.15048  20968297.512    20968298.1614   20968304.5104
      -761.961        -593.736
 -11837120.409 9  -9202401.644 9  20639637.151    20639638.022    20639643.980
      -313.637        -244.392
 96 10  7 17 25 30.0000000  0  9  1  9  6 22 23  3 26 17 28          0.000699229
 -10285124.785 9  -7730713.74746  23808721.772    23808723.5594   23808731.7644
      3642.096        2837.997
  -3146594.808 8  -2438253.16346  25029999.327    25029999.6434   25030007.2534
      2085.620        1625.158
  17049110.497 9  13246060.37346  23735662.404    23735662.7304   23735670.2514
     -3688.634       -2874.260
   4075886.280 9   3182100.49646  24743920.205    24743921.2434   24743929.2724
     -1992.701       -1552.754
  -5432049.889 9  -4218849.45748  20924743.036    20924743.6264   20924749.8974
      -601.888        -469.004
 -15938514.776 9 -12404753.83047  22593912.848    22593913.9014   22593920.4724
      2511.429        1956.958
   7037668.161 9   5489769.38347  23912819.172    23912820.0794   23912826.2624
     -2882.730       -2246.283
  -1459957.090 9  -1130001.79648  20972674.391    20972674.9914   20972681.3504
      -770.915        -600.713
 -11827415.321 9  -9194839.246 9  20641484.035    20641484.854    20641490.795
      -332.935        -259.430
 96 10  7 17 26  0.0000000  0  9  1  9  6 22 23  3 26 17 28          0.000698772
 -10394291.636 9  -7815778.76346  23787948.540    23787949.7884   23787957.8974
      3635.851        2833.131
  -3209054.489 8  -2486923.07346  25018113.927    25018114.2024   25018121.5854
      2078.349        1619.493
  17159843.780 9  13332345.98046  23756734.395    23756734.6974   23756742.2384
     -3693.453       -2878.015
   4135771.013 9   3228763.88546  24755316.254    24755317.0494   24755324.8124
     -1999.749       -1558.246
  -5413858.535 9  -4204674.38048  20928204.701    20928205.3274   20928211.5794
      -610.799        -475.947
 -16013636.475 9 -12463290.21547  22579617.645    22579618.7344   22579625.2724
      2496.620        1945.418
   7124303.963 9   5557277.74547  23929305.342    23929306.3364   23929312.5394
     -2893.046       -2254.322
  -1436680.681 9  -1111864.34648  20977103.730    20977104.3684   20977110.7204
      -780.920        -608.509
 -11817118.568 9  -9186815.812 9  20643443.526    20643444.258    20643450.231
      -353.562        -275.503
 96 10  7 17 26 30.0000000  0  9  1  9  6 22 23  3 26 17 28          0.000698319
 -10503293.824 9  -7900715.47146  23767206.291    23767207.3414   23767215.4654
      3630.910        2829.281
  -3271310.453 8  -2535434.21546  25006266.841    25006267.2454   25006274.7144
      2071.900        1614.467
  17270700.323 9  13418727.63446  23777829.465    23777830.0684   23777837.6754
     -3697.136       -2880.885
   4195859.174 9   3275585.79746  24766750.917    24766751.4434   24766759.3724
     -2006.148       -1563.232
  -5395416.933 9  -4190304.30248  20931714.061    20931714.6704   20931720.8784
      -618.895        -482.256
 -16088329.740 9 -12521492.75047  22565404.162    22565405.0994   22565411.6024
      2482.802        1934.651
   7211241.558 9   5625021.28647  23945849.156    23945850.1304   23945856.2534
     -2903.028       -2262.100
  -1413113.881 9  -1093500.61448  20981588.349    20981589.0174   20981595.3424
      -790.309        -615.825
 -11806214.509 9  -9178319.147 9  20645518.405    20645519.231    20645525.240
      -373.492        -291.033
 96 10  7 17 27  0.0000000  0  9  1  9  6 22 23  3 26 17 28          0.000697854
 -10612158.554 9  -7985545.07146  23746489.896    23746491.0044   23746499.1894
      3626.628        2825.944
  -3333374.121 8  -2583795.47646  24994456.690    24994456.9084   24994464.4684
      2065.396        1609.399
  17381666.663 9  13505194.85146  23798945.761    23798946.3734   23798953.9734
     -3701.229       -2884.075
   4256127.695 9   3322548.24346  24778219.687    24778220.2204   24778228.1934
     -2011.937       -1567.743
  -5376731.029 9  -4175743.86348  20935269.872    20935270.4944   20935276.6934
      -627.105        -488.653
 -16162619.075 9 -12579380.53547  22551267.438    22551268.2704   22551274.7914
      2469.497        1924.283
   7298470.896 9   5692992.14747  23962448.559    23962449.3434   23962455.5034
     -2912.607       -2269.564
  -1389264.292 9  -1074916.53848  20986126.804    20986127.4644   20986133.8004
      -799.915        -623.310
 -11794715.363 9  -9169358.789 9  20647706.651    20647707.482    20647713.437
      -393.437        -306.574
 96 10  7 17 27 30.0000000  0  9  1  9  6 22 23  3 26 17 28          0.000697373
 -10720907.259 9  -8070284.27446  23725795.677    23725796.7804   23725804.9314
      3622.768        2822.936
  -3395248.685 8  -2632009.40246  24982682.488    24982682.9364   24982690.1584
      2059.217        1604.585
  17492765.139 9  13591765.01946  23820087.283    23820087.7944   23820095.4384
     -3706.072       -2887.848
   4316559.927 9   3369638.25446  24789720.047    24789720.2024   24789728.0244
     -2017.482       -1572.064
  -5357808.752 9  -4160999.23848  20938870.691    20938871.2904   20938877.4894
      -635.021        -494.822
 -16236513.741 9 -12636960.77547  22537205.354    22537206.5504   22537213.0984
      2456.295        1913.996
   7385990.771 9   5761189.42047  23979103.050    23979103.8044   23979109.9984
     -2922.785       -2277.495
  -1365125.488 9  -1056107.08948  20990720.235    20990720.9074   20990727.2624
      -809.891        -631.084
 -11782620.543 9  -9159934.262 9  20650008.135    20650009.029    20650015.019
      -413.463        -322.179
 96 10  7 17 28  0.0000000  0  9  1  9  6 22 23  3 26 17 28          0.000696876
 -10829565.970 9  -8154953.34646  23705118.609    23705119.6834   23705127.8164
      3620.151        2820.897
  -3456967.248 8  -2680101.78346  24970937.718    24970938.2034   24970945.3734
      2054.235        1600.703
  17603996.871 9  13678439.02946  23841254.354    23841254.6194   23841262.1884
     -3710.490       -2891.291
   4377144.279 9   3416846.81346  24801248.868    24801248.9654   24801256.7534
     -2022.462       -1575.944
  -5338655.983 9  -4146075.00748  20942515.363    20942515.9364   20942522.1314
      -642.957        -501.005
 -16310022.664 9 -12694240.44547  22523217.164    22523218.2704   22523224.8184
      2443.177        1903.774
   7473814.391 9   5829623.35547  23995815.160    23995816.0334   23995822.3464
     -2933.271       -2285.666
  -1340704.213 9  -1037077.53048  20995367.530    20995368.1474   20995374.5014
      -819.317        -638.429
 -11769936.629 9  -9150050.701 9  20652421.871    20652422.713    20652428.690
      -433.210        -337.566
 96 10  7 17 28 30.0000000  0  9  1  9  6 22 23  3 26 17 28          0.000696366
 -10938148.393 9  -8239562.96146  23684456.446    23684457.1094   23684465.2004
      3618.726        2819.786
  -3518522.322 8  -2728066.76146  24959223.959    24959224.7144   24959231.8664
      2049.614        1597.102
  17715382.455 9  13765232.91446  23862450.117    23862450.7304   23862458.2114
     -3714.988       -2894.796
   4437881.441 9   3464174.45146  24812806.815    24812806.8624   24812814.7244
     -2026.558       -1579.136
  -5319253.711 9  -4130956.36148  20946207.446    20946208.0824   20946214.2514
      -650.413        -506.815
 -16383136.932 9 -12751212.58947  22509304.160    22509305.0574   22509311.5984
      2431.177        1894.424
   7561961.956 9   5898309.70847  24012589.240    24012589.9564   24012596.3354
     -2942.948       -2293.206
  -1315986.452 9  -1017816.95148  21000071.221    21000071.8264   21000078.1404
      -828.270        -645.405
 -11756651.980 9  -9139699.034 9  20654949.707    20654950.679    20654956.670
      -452.228        -352.385
 96 10  7 17 29  0.0000000  0  9  1  9  6 22 23  3 26 17 28          0.000695833
 -11046668.004 9  -8324123.63446  23663805.520    23663806.4204   23663814.5884
      3616.515        2818.064
  -3579923.399 8  -2775911.73145  24947539.645    24947540.3794   24947547.5394
      2044.596        1593.192
  17826914.032 9  13852140.56146  23883674.035    23883674.6214   23883681.9944
     -3719.639       -2898.420
   4498756.872 9   3511609.82146  24824390.926    24824391.1094   24824399.0824
     -2031.195       -1582.749
  -5299612.805 9  -4115651.76848  20949945.024    20949945.6314   20949951.8044
      -658.119        -512.820
 -16455867.711 9 -12807885.90947  22495463.852    22495464.8024   22495471.3874
      2418.123        1884.252
   7650406.020 9   5967227.10547  24029420.125    24029420.3364   24029426.7574
     -2952.644       -2300.762
  -1290989.606 9   -998338.90748  21004828.057    21004828.5954   21004834.9084
      -837.409        -652.526
 -11742783.336 9  -9128892.315 9  20657588.869    20657589.808    20657595.789
      -471.625        -367.500
 96 10  7 17 29 30.0000000  0  9  1  9  6 22 23  3 26 17 28          0.000695290
 -11155091.630 9  -8408609.51146  23643173.092    23643173.9794   23643182.2364
      3611.509        2814.163
  -3641163.009 8  -2823630.88046  24935886.246    24935886.6474   24935894.0304
      2037.884        1587.962
  17938584.696 9  13939156.59946  23904924.273    23904924.9274   23904932.1874
     -3725.093       -2902.670
   4559787.078 9   3559165.79546  24836004.269    24836004.8174   24836012.7754
     -2037.677       -1587.800
  -5279732.749 9  -4100160.82248  20953728.094    20953728.7114   20953734.8624
      -667.499        -520.129
 -16528188.192 9 -12864239.52247  22481701.506    22481702.6544   22481709.2614
      2403.036        1872.495
   7739159.546 9   6036385.65147  24046308.937    24046309.6534   24046316.0494
     -2964.287       -2309.834
  -1265716.616 9   -978645.67648  21009637.293    21009637.8784   21009644.2334
      -847.652        -660.508
 -11728321.917 9  -9117623.688 9  20660340.940    20660341.743    20660347.709
      -492.644        -383.878
 96 10  7 17 30  0.0000000  0  9  1  9  6 22 23  3 26 17 28          0.000694745
 -11263392.668 9  -8492999.86846  23622564.099    23622564.8834   23622573.1924
      3608.233        2811.610
  -3702227.903 8  -2871213.88245  24924265.675    24924266.2304   24924273.7874
      2032.605        1583.848
  18050379.872 9  14026269.64746  23926198.615    23926198.9784   23926206.1114
     -3728.116       -2905.025
   4620984.421 9   3606852.01046  24847650.186    24847650.3054   24847658.1974
     -2042.219       -1591.339
  -5259592.128 9  -4084466.83948  20957560.855    20957561.3204   20957567.5074
      -675.371        -526.263
 -16600081.405 9 -12920260.19747  22468020.848    22468021.8424   22468028.4504
      2389.537        1861.977
   7828227.911 9   6105789.52247  24063258.490    24063258.7844   24063265.3004
     -2973.742       -2317.202
  -1240158.322 9   -958730.13748  21014500.932    21014501.4854   21014507.8394
      -856.520        -667.418
 -11713256.499 9  -9105884.414 9  20663207.797    20663208.619    20663214.581
      -511.941        -398.915
 96 10  7 17 30 30.0000000  0  9  1  9  6 22 23  3 26 17 28          0.000694183
 -11371571.013 9  -8577294.62846  23601978.189    23601979.1624   23601987.5064
      3603.477        2807.904
  -3763112.940 8  -2918656.71646  24912679.688    24912680.1954   24912687.8524
      2026.383        1579.000
  18162277.174 9  14113462.26046  23947492.985    23947492.4474   23947499.6184
     -3731.708       -2907.824
   4682322.695 9   3654648.02746  24859322.754    24859322.6064   24859330.5734
     -2047.036       -1595.093
  -5239205.157 9  -4068580.89248  20961440.206    20961440.8104   20961447.0264
      -683.772        -532.809
 -16671557.002 9 -12975955.45747  22454419.291    22454420.4684   22454427.1134
      2375.372        1850.939
   7917583.314 9   6175417.06846  24080261.856    24080262.5154   24080269.1204
     -2983.398       -2324.726
  -1214316.888 9   -938593.96348  21019418.388    21019418.9824   21019425.3504
      -866.208        -674.967
 -11697600.389 9  -9093684.863 9  20666187.111    20666187.895    20666193.862
      -531.847        -414.426
 96 10  7 17 31  0.0000000  0  9  1  9  6 22 23  3 26 17 28          0.000693616
 -11479589.083 9  -8661464.49546  23581423.294    23581423.9574   23581432.2944
      3597.708        2803.409
  -3823806.857 8  -2965950.60546  24901130.101    24901130.7534   24901138.0174
      2019.868        1573.923
  18274284.458 9  14200740.59346  23968807.115    23968806.8654   23968813.8484
     -3735.535       -2910.806
   4743800.504 9   3702552.77746  24871022.057    24871021.4714   24871029.5984
     -2051.485       -1598.560
  -5218560.884 9  -4052494.45348  20965368.711    20965369.3084   20965375.5064
      -692.438        -539.562
 -16742595.684 9 -13031310.26147  22440901.207    22440902.2174   22440908.8684
      2360.450        1839.312
   8007238.250 9   6245278.00546  24097322.309    24097323.2754   24097329.9484
     -2993.677       -2332.735
  -1188185.904 9   -918232.16948  21024390.918    21024391.5564   21024397.9094
      -875.935        -682.547
 -11681344.837 9  -9081018.211 9  20669280.441    20669281.222    20669287.177
      -551.933        -430.078
 96 10  7 17 31 30.0000000  0  9  1  9  6 22 23  3 26 17 28          0.000693037
 -11587453.327 9  -8745514.49946  23560897.505    23560898.0694   23560906.4334
      3593.496        2800.127
  -3884322.056 8  -3013105.26846  24889613.983    24889615.0434   24889622.3614
      2014.701        1569.897
  18386389.144 9  14288094.81546  23990139.926    23990139.7144   23990146.8144
     -3738.101       -2912.806
   4805385.594 9   3750541.11346  24882741.479    24882740.6284   24882748.9364
     -2054.103       -1600.600
  -5197677.522 9  -4036221.70948  20969342.730    20969343.2754   20969349.4964
      -699.702        -545.222
 -16813211.233 9 -13086335.36447  22427463.490    22427464.5334   22427471.1234
      2347.371        1829.120
   8097187.508 9   6315368.28547  24114438.709    24114440.1094   24114446.6964
     -3002.588       -2339.679
  -1161779.923 9   -897656.09448  21029415.898    21029416.4644   21029422.8184
      -884.485        -689.209
 -11664504.804 9  -9067896.124 9  20672484.960    20672485.788    20672491.732
      -570.622        -444.641
 96 10  7 17 32  0.0000000  0  9  1  9  6 22 23  3 26 17 28          0.000692446
 -11695181.027 9  -8829458.10347  23540397.582    23540398.1024   23540406.5324
      3588.939        2796.576
  -3944657.354 8  -3060119.75246  24878132.777    24878133.7784   24878140.9814
      2008.360        1564.956
  18498602.642 9  14375533.83446  24011492.839    24011493.2464   24011500.3734
     -3742.164       -2915.972
   4867083.765 9   3798617.58146  24894481.714    24894481.5004   24894489.6314
     -2058.488       -1604.017
  -5176552.088 9  -4019760.34048  20973362.734    20973363.2954   20973369.5394
      -707.819        -551.547
 -16883402.587 9 -13141029.92247  22414106.394    22414107.6084   22414114.1264
      2332.736        1817.716
   8187426.107 9   6385684.04347  24131610.902    24131612.0294   24131618.5794
     -3012.601       -2347.481
  -1135080.900 9   -876851.67148  21034496.533    21034497.1524   21034503.4824
      -894.643        -697.124
 -11647078.835 9  -9054317.462 9  20675801.025    20675801.826    20675807.767
      -590.393        -460.046
 96 10  7 17 32 30.0000000  0  9  1  9  6 22 23  3 26 17 28          0.000691854
 -11802770.553 9  -8913294.04247  23519924.334    23519924.4464   23519932.8524
      3583.481        2792.323
  -4004818.322 8  -3106998.34346  24866684.238    24866685.4424   24866692.6244
      2002.079        1560.062
  18610932.396 9  14463063.45446  24032868.320    24032868.9404   24032876.0564
     -3746.792       -2919.578
   4928907.441 9   3846791.83446  24906246.622    24906246.1764   24906254.3744
     -2063.457       -1607.889
  -5155199.139 9  -4003121.68348  20977426.056    20977426.6394   20977432.8614
      -716.016        -557.935
 -16953163.348 9 -13195388.94547  22400831.385    22400832.5464   22400839.0504
      2317.689        1805.991
   8277956.757 9   6456227.36347  24148838.377    24148839.5744   24148846.0704
     -3023.032       -2355.609
  -1108092.282 9   -855821.59148  21039632.182    21039632.9034   21039639.2504
      -904.822        -705.056
 -11629071.430 9  -9040285.731 9  20679227.836    20679228.546    20679234.476
      -610.391        -475.629
 96 10  7 17 33  0.0000000  0  9  1  9  6 22 23  3 26 17 28          0.000691277
 -11910199.557 9  -8997004.89747  23499481.526    23499481.2874   23499489.7814
      3578.858        2788.721
  -4064792.229 8  -3153731.24646  24855271.135    24855272.5234   24855280.0694
      1996.354        1555.601
  18723407.988 9  14550706.69046  24054271.827    24054272.3374   24054279.5544
     -3751.128       -2922.957
   4990889.552 9   3895089.52546  24918041.190    24918041.0044   24918049.3464
     -2068.387       -1611.730
  -5133588.378 9  -3986282.14048  20981538.504    20981539.0644   20981545.2534
      -724.318        -564.404
 -17022463.506 9 -13249389.05747  22387644.031    22387645.1534   22387651.6244
      2302.695        1794.308
   8368805.126 9   6527018.26547  24166126.218    24166127.4714   24166133.9874
     -3033.003       -2363.379
  -1080796.911 9   -834552.48348  21044826.364    21044827.0644   21044833.4144
      -914.647        -712.712
 -11610456.811 9  -9025780.849 9  20682770.049    20682770.780    20682776.733
      -630.208        -491.071
 96 10  7 17 33 30.0000000  0  9  1  9  6 22 23  3 26 17 28          0.000690713
 -12017471.118 9  -9080593.07547  23479068.276    23479068.1284   23479076.5984
      3573.532        2784.570
  -4124562.060 8  -3200305.11546  24843897.286    24843898.6464   24843906.1814
      1989.367        1550.156
  18836030.973 9  14638464.77946  24075703.935    24075703.9794   24075711.0594
     -3756.111       -2926.840
   5053048.937 9   3943525.39646  24929869.253    24929869.5544   24929877.9144
     -2074.491       -1616.486
  -5111707.748 9  -3969232.29948  20985702.134    20985702.8044   20985708.9924
      -733.460        -571.527
 -17091301.973 9 -13303029.41248  22374544.642    22374545.6604   22374552.0634
      2287.520        1782.483
   8459962.577 9   6598049.99747  24183472.745    24183474.1754   24183480.7364
     -3042.999       -2371.168
  -1053176.188 9   -813029.85148  21050082.468    21050083.1304   21050089.4764
      -925.711        -721.333
 -11591227.204 9  -9010796.748 9  20686429.146    20686430.066    20686436.028
      -650.704        -507.042
 96 10  7 17 34  0.0000000  0  9  1  9  6 22 23  3 26 17 28          0.000690146
 -12124605.220 9  -9164074.14947  23458680.754    23458681.2134   23458689.6204
      3568.562        2780.698
  -4184139.213 8  -3246728.79246  24832560.066    24832561.3604   24832569.0034
      1982.419        1544.742
  18948788.027 9  14726327.33946  24097160.863    24097161.0644   24097168.0254
     -3760.984       -2930.637
   5115368.873 9   3992086.35746  24941727.882    24941728.7044   24941736.9584
     -2080.053       -1620.821
  -5089565.957 9  -3951978.96248  20989915.605    20989916.2454   20989922.4244
      -742.677        -578.709
 -17159701.095 9 -13356327.42248  22361528.815    22361529.7694   22361536.1364
      2272.395        1770.697
   8551399.109 9   6669299.20147  24200872.561    24200874.0374   24200880.5784
     -3052.738       -2378.757
  -1025242.875 9   -791263.64948  21055397.917    21055398.6974   21055405.0304
      -936.389        -729.654
 -11571404.321 9  -8995350.358 9  20690201.360    20690202.257    20690208.227
      -670.824        -522.720
 96 10  7 17 34 30.0000000  0  9  1  9  6 22 23  3 26 17 28          0.000689575
 -12231585.594 9  -9247435.41947  23438323.175    23438323.5414   23438331.8594
      3563.512        2776.763
  -4243516.558 8  -3292996.88245  24821260.735    24821262.1234   24821269.8804
      1975.933        1539.688
  19061680.429 9  14814295.38246  24118643.707    24118643.8054   24118650.7624
     -3765.062       -2933.814
   5177833.849 9   4040760.31746  24953614.115    24953615.3064   24953623.5604
     -2084.251       -1624.092
  -5067150.306 9  -3934512.22948  20994181.140    20994181.7904   20994187.9914
      -751.593        -585.657
 -17227654.714 9 -13409278.28647  22348597.543    22348598.5934   22348605.0114
      2257.855        1759.368
   8643112.672 9   6740764.27247  24218325.448    24218326.6224   24218333.0614
     -3061.365       -2385.479
   -997000.858 9   -769256.89848  21060772.186    21060773.0114   21060779.3234
      -946.321        -737.393
 -11550985.377 9  -8979439.508 9  20694087.060    20694087.851    20694093.845
      -690.421        -537.990
 96 10  7 17 35  0.0000000  0  9  1  9  6 22 23  3 26 17 28          0.000688989
 -12338422.502 9  -9330684.90947  23417992.664    23417993.1714   23418001.4144
      3558.829        2773.113
  -4302683.423 8  -3339100.87645  24810001.877    24810003.0114   24810010.5824
      1968.424        1533.837
  19174688.111 9  14902353.23546  24140148.087    24140148.4834   24140155.3974
     -3768.763       -2936.698
   5240425.088 9   4089532.67545  24965524.911    24965526.0124   24965534.5044
     -2088.504       -1627.406
  -5044473.624 9  -3916842.09048  20998496.418    20998497.0294   20998503.2114
      -760.037        -592.237
 -17295173.333 9 -13461890.18347  22335749.173    22335750.1804   22335756.6324
      2243.442        1748.137
   8735082.037 9   6812428.67847  24235826.883    24235827.8694   24235834.2604
     -3069.829       -2392.075
   -968464.938 9   -747021.12548  21066202.477    21066203.2234   21066209.5144
      -956.254        -745.133
 -11529981.201 9  -8963072.632 9  20698084.102    20698084.866    20698090.793
      -709.839        -553.121
 96 10  7 17 35 30.0000000  0  9  1  9  6 22 23  3 26 17 28          0.000688392
 -12445103.998 9  -9413813.29547  23397691.513    23397692.3544   23397700.5394
      3553.654        2769.081
  -4361614.423 8  -3385021.09845  24798787.605    24798788.8084   24798796.3804
      1960.835        1527.923
  19287810.923 9  14990500.80146  24161674.020    24161675.0384   24161681.9734
     -3772.379       -2939.516
   5303146.346 9   4138406.34545  24977460.803    24977461.5124   24977470.0064
     -2092.569       -1630.573
  -5021545.194 9  -3898975.78748  21002859.540    21002860.1844   21002866.3624
      -768.215        -598.609
 -17362254.569 9 -13514161.27247  22322984.005    22322985.0234   22322991.4554
      2228.879        1736.789
   8827306.967 9   6884292.21947  24253376.995    24253377.7644   24253384.1154
     -3078.183       -2398.584
   -939619.544 9   -724544.20848  21071691.581    21071692.3164   21071698.6234
      -966.239        -752.913
 -11508389.452 9  -8946247.906 9  20702192.850    20702193.654    20702199.608
      -729.292        -568.279
 96 10  7 17 36  0.0000000  0  9  1  9  6 22 23  3 26 17 28          0.000687783
 -12551628.193 9  -9496819.11047  23377420.446    23377421.4684   23377429.6074
      3547.962        2764.646
  -4420322.345 8  -3430767.51545  24787615.788    24787616.9254   24787624.8104
      1952.988        1521.809
  19401035.949 9  15078728.00446  24183219.780    24183220.9944   24183227.9434
     -3775.835       -2942.209
   5365991.952 9   4187376.89945  24989420.232    24989420.6394   24989429.0394
     -2097.255       -1634.225
  -4998369.908 9  -3880917.13348  21007269.713    21007270.3194   21007276.4424
      -776.637        -605.172
 -17428888.995 9 -13566084.19448  22310303.876    22310304.9004   22310311.3304
      2213.276        1724.631
   8919787.364 9   6956354.82847  24270975.374    24270976.2254   24270982.6044
     -3087.194       -2405.606
   -910482.368 9   -701839.92948  21077236.180    21077236.9604   21077243.2794
      -976.237        -760.704
 -11486209.886 9  -8928965.141 9  20706413.368    20706414.314    20706420.244
      -749.428        -583.970
 96 10  7 17 36 30.0000000  0  9  1  9  6 22 23  3 26 17 28          0.000687169
 -12657982.814 9  -9579692.80247  23357182.130    23357182.8694   23357190.9394
      3542.302        2760.235
  -4478792.709 8  -3476328.82645  24776489.039    24776490.3824   24776498.1624
      1944.977        1515.566
  19514341.159 9  15167017.71646  24204781.361    24204782.3434   24204789.2264
     -3778.108       -2943.980
   5428969.115 9   4236449.97446  25001404.832    25001404.9354   25001413.2124
     -2101.428       -1637.476
  -4974962.703 9  -3862677.75748  21011723.974    21011724.5574   21011730.6994
      -783.823        -610.771
 -17495055.946 9 -13617642.84448  22297712.668    22297713.7184   22297720.2184
      2197.817        1712.585
   9012527.808 9   7028620.07047  24288623.407    24288624.2164   24288630.5944
     -3095.584       -2412.143
   -881054.872 9   -678909.42348  21082836.091    21082836.8454   21082843.1674
      -985.675        -768.058
 -11463429.670 9  -8911214.340 9  20710748.379    20710749.256    20710755.182
      -769.339        -599.485
 96 10  7 17 37  0.0000000  0  9  1  9  6 22 23  3 26 17 28          0.000686522
 -12764186.727 9  -9662449.05547  23336972.385    23336972.9454   23336980.9274
      3537.274        2756.317
  -4537040.450 8  -3521716.65445  24765404.577    24765406.1844   24765413.8244
      1937.811        1509.983
  19627701.987 8  15255350.72945  24226353.463    24226354.2944   24226361.1444
     -3780.081       -2945.518
   5492057.351 9   4285609.59845  25013410.198    25013410.2634   25013418.5204
     -2104.970       -1640.236
  -4951356.657 9  -3844283.44848  21016215.995    21016216.6094   21016222.7864
      -790.608        -616.058
 -17560770.929 9 -13668849.32048  22285207.554    22285208.5724   22285215.0674
      2182.602        1700.729
   9105509.446 9   7101073.24746  24306317.098    24306318.0614   24306324.4314
     -3103.716       -2418.480
   -851358.409 9   -655769.34048  21088487.203    21088487.9464   21088494.2544
      -994.894        -775.242
 -11440067.236 9  -8893009.862 9  20715194.004    20715194.938    20715200.906
      -788.818        -614.663
 96 10  7 17 37 30.0000000  0  9  1  9  6 22 23  3 26 17 28          0.000685875
 -12870230.255 9  -9745080.32347  23316792.950    23316793.5294   23316801.4684
      3531.764        2752.024
  -4595085.162 8  -3566946.29945  24754359.368    24754360.7414   24754368.2474
      1931.353        1504.950
  19741121.250 9  15343729.31145  24247936.698    24247937.2774   24247944.0274
     -3781.796       -2946.854
   5555242.214 9   4334844.50846  25025434.082    25025434.0984   25025442.1384
     -2107.888       -1642.510
  -4927542.133 9  -3825726.68048  21020747.904    21020748.4114   21020754.5544
      -797.598        -621.505
 -17626027.891 9 -13719698.89348  22272789.437    22272790.6154   22272797.1024
      2167.263        1688.776
   9198728.623 9   7173711.52446  24324055.840    24324057.0304   24324063.5364
     -3111.558       -2424.591
   -821387.014 9   -632415.01448  21094190.630    21094191.3194   21094197.6354
     -1003.635        -782.053
 -11416119.851 9  -8874349.576 9  20719751.045    20719751.985    20719757.957
      -808.276        -629.825
 96 10  7 17 38  0.0000000  0  9  1  9  6 22 23  3 26 17 28          0.000685217
 -12976100.355 9  -9827576.46247  23296646.507    23296647.1394   23296654.9484
      3526.201        2747.689
  -4652931.226 8  -3612021.14945  24743351.258    24743352.9424   24743360.5894
      1924.881        1499.907
  19854598.768 9  15432153.25145  24269530.862    24269531.4234   24269538.1964
     -3783.481       -2948.167
   5618520.738 9   4384152.41746  25037475.665    25037475.5664   25037483.8034
     -2110.551       -1644.585
  -4903521.406 9  -3807009.23748  21025318.930    21025319.4084   21025325.5454
      -803.721        -626.276
 -17690815.798 9 -13770182.97648  22260460.706    22260461.8724   22260468.3614
      2151.903        1676.808
   9292194.580 9   7246542.09746  24341841.886    24341842.9364   24341849.6224
     -3119.579       -2430.841
   -791147.730 9   -608851.94948  21099944.971    21099945.6734   21099951.9834
     -1012.491        -788.954
 -11391580.772 9  -8855228.234 9  20724420.725    20724421.640    20724427.586
      -827.653        -644.924
 96 10  7 17 38 30.0000000  0  9  1  9  6 22 23  3 26 17 28          0.000684559
 -13081781.342 9  -9909925.23247  23276536.364    23276536.7644   23276544.4274
      3519.680        2742.608
  -4710563.681 8  -3656929.55345  24732384.070    24732385.4844   24732393.3324
      1917.722        1494.329
  19968150.166 8  15520634.78145  24291139.375    24291139.6224   24291146.3904
     -3786.487       -2950.509
   5681889.168 9   4433530.35646  25049534.351    25049534.1904   25049542.3924
     -2113.659       -1647.007
  -4879298.236 9  -3788134.04848  21029928.417    21029928.9474   21029935.0764
      -810.904        -631.873
 -17755119.255 9 -13820289.56148  22248224.127    22248225.3224   22248231.8354
      2135.506        1664.031
   9385919.068 9   7319574.13046  24359676.947    24359678.0084   24359684.8594
     -3128.344       -2437.671
   -760615.976 9   -585060.98948  21105755.029    21105755.7104   21105761.9864
     -1022.659        -796.877
 -11366446.051 9  -8835642.753 9  20729203.638    20729204.620    20729210.581
      -847.585        -660.456
 96 10  7 17 39  0.0000000  0  9  1  9  6 22 23  3 26 17 28          0.000683809
 -13187272.829 9  -9992126.34147  23256462.195    23256462.4034   23256469.9824
      3513.138        2737.510
  -4767985.754 8  -3701674.01645  24721457.290    24721458.5624   24721466.1634
      1910.465        1488.674
  20081797.033 8  15609190.69545  24312765.646    24312765.9834   24312772.8644
     -3789.924       -2953.188
   5745353.741 9   4482983.23846  25061610.796    25061611.1444   25061619.3104
     -2117.248       -1649.804
  -4854856.363 9  -3769088.43948  21034579.531    21034580.1124   21034586.2454
      -818.576        -637.851
 -17818941.637 9 -13870021.27948  22236079.258    22236080.3494   22236086.8694
      2119.263        1651.374
   9479902.472 9   7392807.92146  24377561.288    24377562.4524   24377569.2944
     -3137.114       -2444.504
   -729775.144 9   -561029.17948  21111623.884    21111624.5444   21111630.8204
     -1033.459        -805.293
 -11340718.703 9  -8815595.486 9  20734099.422    20734100.400    20734106.326
      -867.548        -676.011
 96 10  7 17 39 30.0000000  0  9  1  9  6 22 23  3 26 17 28          0.000683149
 -13292582.926 9 -10074186.10447  23236421.833    23236422.4794   23236430.0774
      3507.081        2732.790
  -4825197.004 8  -3746254.23746  24710569.864    24710571.6864   24710579.2364
      1903.117        1482.948
  20195525.196 8  15697809.97145  24334407.280    24334407.6534   24334414.6294
     -3792.372       -2955.095
   5808909.964 9   4532507.51546  25073704.752    25073705.5684   25073713.7584
     -2120.433       -1652.285
  -4830199.473 9  -3749875.28248  21039271.663    21039272.1754   21039278.3064
      -825.754        -643.445
 -17882287.899 9 -13919381.99248  22224024.848    22224025.9464   22224032.5114
      2103.161        1638.827
   9574135.255 9   7466236.01746  24395493.395    24395494.3034   24395501.2134
     -3145.701       -2451.196
   -698627.995 9   -536758.68948  21117550.963    21117551.6584   21117557.9354
     -1043.610        -813.202
 -11314409.148 9  -8795094.548 9  20739106.072    20739106.942    20739112.862
      -886.971        -691.146
 96 10  7 17 40  0.0000000  0  9  1  9  6 22 23  3 26 17 28          0.000682502
 -13397702.088 9 -10156097.09847  23216418.127    23216418.9324   23216426.5484
      3501.306        2728.290
  -4882158.657 8  -3790639.91346  24699730.335    24699732.2884   24699739.8154
      1894.681        1476.375
  20309346.832 8  15786502.05245  24356067.091    24356067.2614   24356074.3754
     -3795.165       -2957.271
   5872580.887 9   4582121.15646  25085821.333    25085821.8294   25085829.8924
     -2123.910       -1654.995
  -4805308.956 9  -3730480.08148  21044008.132    21044008.6574   21044014.8144
      -833.288        -649.315
 -17945130.626 9 -13968350.35048  22212066.240    22212067.3824   22212073.9094
      2086.681        1625.985
   9668647.132 9   7539881.57946  24413478.607    24413479.3654   24413486.2814
     -3154.619       -2458.145
   -667145.108 9   -512226.58548  21123541.966    21123542.6424   21123548.9374
     -1054.766        -821.896
 -11287497.393 9  -8774124.366 9  20744227.274    20744228.110    20744234.004
      -906.677        -706.502
 96 10  7 17 40 30.0000000  0  9  1  9  6 22 23  3 26 17 28          0.000681847
 -13502664.245 9 -10237885.73147  23196444.859    23196445.2514   23196452.8584
      3496.091        2724.227
  -4938880.168 8  -3834838.47946  24688937.055    24688938.4324   24688946.0054
      1886.668        1470.131
  20423232.177 8  15875243.79145  24377738.294    24377738.9744   24377746.0744
     -3797.113       -2958.789
   5936339.827 9   4631803.40846  25097954.832    25097954.9044   25097962.8814
     -2126.710       -1657.177
  -4780195.308 9  -3710911.01048  21048787.065    21048787.6414   21048793.7494
      -840.954        -655.289
 -18007490.089 9 -14016942.13848  22200199.867    22200200.7904   22200207.2934
      2070.706        1613.537
   9763404.448 9   7613718.39646  24431510.285    24431511.0484   24431518.0764
     -3162.471       -2464.263
   -635348.012 9   -487449.63948  21129592.775    21129593.4114   21129599.7384
     -1065.030        -829.894
 -11260011.032 9  -8752706.438 9  20749457.807    20749458.597    20749464.479
      -925.738        -721.354
 96 10  7 17 41  0.0000000  0  9  1  9  6 22 23  3 26 17 28          0.000681178
 -13607466.375 9 -10319549.68747  23176501.555    23176502.0454   23176509.6164
      3490.392        2719.786
  -4995350.578 8  -3878841.41446  24678190.813    24678192.4164   24678200.1054
      1877.657        1463.109
  20537176.445 8  15964031.42445  24399421.482    24399421.9064   24399429.0814
     -3799.449       -2960.610
   6000183.080 8   4681551.34746  25110103.933    25110103.8114   25110112.0034
     -2129.580       -1659.413
  -4754856.082 9  -3691166.16548  21053608.963    21053609.5564   21053615.6584
      -848.642        -661.279
 -18069371.334 9 -14065161.27948  22188424.231    22188425.1824   22188431.7064
      2054.310        1600.761
   9858399.328 9   7687740.32746  24449586.594    24449587.9534   24449595.0294
     -3170.715       -2470.687
   -603245.310 9   -462434.56448  21135701.663    21135702.3304   21135708.6614
     -1075.359        -837.942
 -11231949.970 9  -8730840.692 9  20754797.618    20754798.458    20754804.335
      -945.264        -736.569
 96 10  7 17 41 30.0000000  0  9  1  9  6 22 23  3 26 17 28          0.000680513
 -13712089.958 9 -10401074.50447  23156592.370    23156592.8424   23156600.4214
      3484.361        2715.086
  -5051542.473 8  -3922627.26345  24667497.747    24667499.3224   24667507.4024
      1868.267        1455.792
  20651191.514 8  16052874.24945  24421117.939    24421118.3564   24421125.6044
     -3801.796       -2962.438
   6064104.241 8   4731359.99945  25122267.553    25122267.6864   25122275.7694
     -2132.034       -1661.325
  -4729277.761 9  -3671235.01048  21058476.277    21058476.9434   21058483.0484
      -856.625        -667.500
 -18130753.291 9 -14112991.36548  22176743.713    22176744.5824   22176751.1284
      2037.800        1587.896
   9953646.738 9   7761959.04046  24467711.507    24467712.9274   24467720.0124
     -3179.042       -2477.176
   -570835.362 9   -437180.07248  21141869.083    21141869.7694   21141876.0954
     -1085.351        -845.728
 -11203299.914 9  -8708515.988 9  20760249.503    20760250.407    20760256.290
      -964.834        -751.819
 96 10  7 17 42  0.0000000  0  9  1  9  6 22 23  3 26 17 28          0.000679848
 -13816524.455 9 -10482451.98947  23136719.156    23136719.5564   23136727.1684
      3477.769        2709.950
  -5107450.277 8  -3966191.81845  24656858.971    24656860.2414   24656868.5254
      1858.800        1448.416
  20765289.633 8  16141781.77145  24442830.169    24442830.4584   24442837.9554
     -3804.667       -2964.676
   6128099.366 8   4781226.27945  25134445.305    25134445.6844   25134453.7424
     -2134.293       -1663.085
  -4703463.663 9  -3651120.13548  21063388.618    21063389.1974   21063395.3224
      -864.345        -673.516
 -18191654.144 9 -14160446.57248  22165154.523    22165155.5264   22165162.0504
      2022.150        1575.701
  10049139.646 9   7836369.05246  24485883.337    24485884.6954   24485891.6784
     -3186.979       -2483.360
   -538123.743 9   -411690.51548  21148094.059    21148094.6224   21148100.9264
     -1095.243        -853.436
 -11174061.275 9  -8685732.651 9  20765813.500    20765814.348    20765820.240
      -984.366        -767.038
 96 10  7 17 42 30.0000000  0  9  1  9  6 22 23  3 26 17 28          0.000679181
 -13920752.683 9 -10563668.74247  23116885.262    23116885.5044   23116893.1154
      3470.601        2704.364
  -5163072.312 8  -4009533.63145  24646274.274    24646275.6304   24646283.9084
      1849.136        1440.885
  20879481.183 8  16230762.08645  24464560.424    24464560.5064   24464567.9094
     -3808.336       -2967.535
   6192164.238 8   4831146.90545  25146636.023    25146636.7184   25146644.9204
     -2136.939       -1665.147
  -4677416.272 9  -3630823.46948  21068345.288    21068345.8384   21068351.9954
      -872.313        -679.724
 -18252086.692 9 -14207536.86648  22153654.499    22153655.5894   22153662.1164
      2006.537        1563.535
  10144863.115 9   7910958.72646  24504098.886    24504100.3274   24504107.2154
     -3194.773       -2489.434
   -505122.214 9   -385975.05748  21154374.049    21154374.6414   21154380.9324
     -1105.222        -861.212
 -11144238.149 9  -8662493.865 9  20771488.802    20771489.530    20771495.388
     -1004.072        -782.394
 96 10  7 17 43  0.0000000  0  9  1  9  6 22 23  3 26 17 28          0.000678508
 -14024780.400 9 -10644729.25847  23097089.567    23097089.6294   23097097.2744
      3464.446        2699.568
  -5218409.145 8  -4052653.22045  24635744.331    24635745.5454   24635753.5794
      1839.989        1433.758
  20993777.856 8  16319824.33445  24486311.040    24486310.5994   24486317.9934
     -3811.553       -2970.041
   6256297.832 8   4881121.07245  25158840.475    25158840.8834   25158849.1874
     -2138.709       -1666.526
  -4651143.038 9  -3610350.83248  21073344.892    21073345.4954   21073351.6204
      -879.343        -685.202
 -18312064.183 9 -14254272.56448  22142241.128    22142242.2304   22142248.7804
      1991.764        1552.024
  10240815.202 9   7985726.53746  24522357.401    24522359.4424   24522366.3924
     -3202.061       -2495.112
   -471826.796 9   -360030.59448  21160709.835    21160710.5574   21160716.8624
     -1114.642        -868.552
 -11113832.867 9  -8638801.454 9  20777274.697    20777275.437    20777281.345
     -1023.071        -797.198
 96 10  7 17 43 30.0000000  0  9  1  9  6 22 23  3 26 17 28          0.000677814
 -14128620.927 9 -10725643.92847  23077329.064    23077329.3814   23077336.9974
      3457.962        2694.516
  -5273477.711 8  -4095563.77745  24625265.547    24625266.5014   24625274.2634
      1831.060        1426.800
  21108163.493 8  16408955.88645  24508077.230    24508077.3724   24508084.7854
     -3814.293       -2972.176
   6320493.748 8   4931143.78145  25171057.255    25171057.1384   25171065.3744
     -2141.326       -1668.566
  -4624660.428 9  -3589715.03648  21078384.449    21078384.9964   21078391.0964
      -886.310        -690.631
 -18371598.988 9 -14300663.31948  22130912.009    22130913.1474   22130919.6774
      1976.958        1540.487
  10336977.503 9   8060658.14446  24540656.530    24540658.6584   24540665.5124
     -3208.920       -2500.457
   -438246.338 9   -333864.02148  21167100.069    21167100.7184   21167107.0124
     -1124.254        -876.042
 -11082859.986 9  -8614666.758 9  20783168.718    20783169.387    20783175.298
     -1042.067        -812.000
 96 10  7 17 44  0.0000000  0 10  1  9  6 22 23  3 26 31 17 28       0.000677101
 -14232258.155 9 -10806400.16047  23057607.273    23057607.8004   23057615.4204
      3451.022        2689.108
  -5328281.812 9  -4138268.27746  24614836.610    24614837.6844   24614845.3344
      1822.341        1420.006
  21222629.080 8  16498149.76145  24529858.677    24529859.6204   24529866.9664
     -3816.735       -2974.079
   6384775.891 8   4981233.70745  25183289.804    25183289.7004   25183297.8604
     -2144.326       -1670.903
  -4597970.306 9  -3568917.54648  21083463.400    21083463.9374   21083470.0384
      -893.154        -695.964
 -18430683.692 9 -14346703.34448  22119668.752    22119669.7134   22119676.1644
      1961.478        1528.424
  10433343.605 9   8135748.56646  24558995.027    24558996.6364   24559003.4484
     -3215.616       -2505.675
  -2201541.98719   -955418.52455  25277818.441    25277819.6935   25277827.2685
      3352.045        2611.983
   -404367.146 9   -307464.66648  21173547.123    21173547.7254   21173554.0444
     -1134.600        -884.104
 -11051310.715 9  -8590082.924 9  20789172.351    20789173.022    20789178.907
     -1061.383        -827.052
 96 10  7 17 44 30.0000000  0 10  1  9  6 22 23  3 26 31 17 28       0.000676369
 -14335700.703 9 -10887004.70447  23037922.567    23037923.2614   23037930.9334
      3444.969        2684.391
  -5382842.786 8  -4180783.29546  24604454.271    24604455.3204   24604462.8684
      1814.965        1414.258
  21337151.135 8  16587387.61845  24551651.687    24551652.3894   24551660.1474
     -3818.091       -2975.136
   6449139.501 8   5031387.13445  25195537.491    25195537.4544   25195545.8534
     -2146.688       -1672.744
  -4571086.287 9  -3547968.96448  21088579.301    21088579.7904   21088585.8704
      -899.193        -700.670
 -18489289.603 9 -14392370.28348  22108516.538    22108517.3724   22108523.7924
      1945.539        1516.004
  10529900.259 9   8210987.47146  24577369.264    24577370.8364   24577377.6804
     -3221.697       -2510.413
  -2302022.773 8  -1033715.22345  25258698.109    25258698.9824   25258706.4844
      3346.361        2607.554
   -370183.707 9   -280828.23248  21180052.006    21180052.6334   21180058.9754
     -1144.485        -891.806
 -11019193.047 9  -8565056.184 9  20795284.092    20795284.814    20795290.720
     -1079.946        -841.516
 96 10  7 17 45  0.0000000  0 10  1  9  6 22 23  3 26 31 17 28       0.000675627
 -14438939.751 9 -10967450.67847  23018276.875    23018277.4434   23018285.1704
      3437.653        2678.691
  -5437165.811 8  -4223112.92346  24594117.095    24594117.8584   24594125.4744
      1806.937        1408.003
  21451719.911 8  16676661.88045  24573453.553    24573454.0304   24573461.6834
     -3819.571       -2976.289
   6513586.829 8   5081605.77045  25207800.917    25207801.3444   25207809.8624
     -2149.539       -1674.965
  -4544009.043 9  -3526869.82248  21093731.886    21093732.3884   21093738.4874
      -905.842        -705.851
 -18547393.082 9 -14437645.71748  22097459.884    22097460.6654   22097467.0774
      1928.077        1502.398
  10626661.442 9   8286385.74346  24595782.333    24595783.8854   24595790.8404
     -3228.761       -2515.918
  -2402314.331 9  -1111864.46545  25239613.536    25239614.3584   25239621.3894
      3339.919        2602.534
   -335683.798 9   -253945.20448  21186617.125    21186617.7814   21186624.1184
     -1155.285        -900.222
 -10986498.157 9  -8539579.659 9  20801505.702    20801506.456    20801512.377
     -1099.484        -856.741
 96 10  7 17 45 30.0000000  0 10  1  9  6 22 23  3 26 31 17 28       0.000674896
 -14541931.263 9 -11047703.76947  22998678.141    22998678.8094   22998686.5324
      3429.625        2672.435
  -5491236.876 9  -4265246.19246  24583827.981    24583828.4474   24583836.0234
      1798.839        1401.693
  21566337.064 8  16765973.86545  24595264.489    24595264.9734   24595272.7634
     -3820.522       -2977.030
   6578140.638 8   5131907.37145  25220085.661    25220085.7234   25220094.1024
     -2152.706       -1677.433
  -4516704.788 9  -3505593.78748  21098927.714    21098928.2344   21098934.3394
      -913.301        -711.663
 -18604947.558 9 -14482493.36048  22086507.587    22086508.4034   22086514.8294
      1910.052        1488.352
  10723655.642 9   8361965.61046  24614240.435    24614241.3394   24614248.3234
     -3236.388       -2521.861
  -2502401.550 9  -1189854.47446  25220568.011    25220568.5884   25220575.5354
      3333.497        2597.530
   -300838.949 9   -226793.39148  21193247.890    21193248.5554   21193254.8884
     -1166.471        -908.938
 -10953197.809 9  -8513631.357 9  20807842.626    20807843.326    20807849.231
     -1119.358        -872.227
 96 10  7 17 46  0.0000000  0 10  1  9  6 22 23  3 26 31 17 28       0.000674149
 -14644715.178 9 -11127795.09947  22979119.232    22979119.6344   22979127.3584
      3422.480        2666.868
  -5545093.355 8  -4307212.27445  24573579.532    24573579.9404   24573587.2354
      1791.322        1395.835
  21680956.641 8  16855287.72345  24617074.769    24617076.2194   24617084.3994
     -3820.953       -2977.366
   6642753.334 8   5182254.87545  25232381.415    25232381.1144   25232389.4934
     -2154.629       -1678.932
  -4489206.214 9  -3484166.33648  21104160.545    21104161.0574   21104167.1624
      -919.998        -716.882
 -18661987.528 9 -14526940.07848  22075653.075    22075654.0434   22075660.4654
      1892.511        1474.684
  10820847.536 9   8437699.50446  24632735.309    24632736.3914   24632743.3804
     -3243.362       -2527.295
  -2602317.204 9  -1267710.80246  25201554.745    25201555.3354   25201562.2754
      3327.289        2592.693
   -265690.195 9   -199404.76848  21199936.505    21199937.1594   21199943.4874
     -1176.983        -917.130
 -10919335.607 9  -8487245.240 9  20814286.498    20814287.111    20814293.001
     -1138.259        -886.955
 96 10  7 17 46 30.0000000  0 10  1  9  6 22 23  3 26 31 17 28       0.000673406
 -14747281.768 9 -11207717.08147  22959601.157    22959601.8464   22959609.5294
      3414.763        2660.854
  -5598701.730 8  -4348984.99146  24563377.998    24563378.5254   24563385.7294
      1781.992        1388.565
  21795601.835 8  16944621.54945  24638890.374    24638892.4504   24638900.6704
     -3822.580       -2978.634
   6707439.073 9   5232659.30945  25244690.447    25244690.3804   25244698.7864
     -2157.941       -1681.512
  -4461498.999 9  -3462576.30348  21109433.057    21109433.5804   21109439.6684
      -927.759        -722.929
 -18718495.959 9 -14570972.62048  22064899.932    22064900.8314   22064907.2204
      1874.551        1460.689
  10918271.657 9   8513614.36246  24651274.513    24651275.6464   24651282.6424
     -3252.045       -2534.061
  -2702037.650 9  -1345415.01545  25182578.847    25182579.1304   25182586.0934
      3320.029        2587.035
   -230218.832 9   -171764.76048  21206686.563    21206687.1374   21206693.5024
     -1188.128        -925.814
 -10884899.029 9  -8460411.558 9  20820839.411    20820840.162    20820846.077
     -1158.021        -902.354
 96 10  7 17 47  0.0000000  0 10  1  9  6 22 23  3 26 31 17 28       0.000672673
 -14849620.496 9 -11287461.51147  22940127.115    22940127.4034   22940135.0674
      3407.333        2655.065
  -5652018.455 8  -4390530.44246  24553231.949    24553232.5214   24553239.9744
      1771.941        1380.733
  21910290.214 8  17033989.01645  24660714.596    24660716.9724   24660725.3294
     -3823.692       -2979.500
   6772213.107 9   5283132.51946  25257016.632    25257016.5984   25257025.0424
     -2160.806       -1683.745
  -4433556.726 9  -3440803.11348  21114750.267    21114750.8504   21114756.8964
      -935.466        -728.935
 -18774479.284 9 -14614595.99248  22054246.722    22054247.6034   22054253.9604
      1857.153        1447.132
  11015954.051 9   8589730.45946  24669863.310    24669864.1024   24669870.9984
     -3260.366       -2540.545
  -2801541.230 8  -1422950.25345  25163643.404    25163644.2814   25163650.9574
      3313.026        2581.579
   -194423.074 9   -143871.97648  21213498.292    21213498.8494   21213505.2664
     -1198.686        -934.041
 -10849873.524 9  -8433118.975 9  20827504.571    20827505.305    20827511.218
     -1177.435        -917.482
 96 10  7 17 47 30.0000000  0 10  1  9  6 22 23  3 26 31 17 28       0.000671944
 -14951745.939 9 -11367039.73947  22920693.320    22920693.5724   22920701.2304
      3400.460        2649.709
  -5705028.198 8  -4431836.71946  24543144.595    24543145.2784   24543152.3234
      1761.451        1372.559
  22025008.619 8  17123379.88045  24682544.959    24682547.2144   24682555.6014
     -3824.738       -2980.315
   6837071.745 9   5333671.64746  25269358.940    25269359.0034   25269367.1824
     -2163.414       -1685.777
  -4405391.917 9  -3418856.51248  21120109.898    21120110.4384   21120116.4884
      -942.536        -734.444
 -18829951.914 9 -14657821.40848  22043690.455    22043691.4884   22043697.9324
      1840.585        1434.222
  11113872.408 9   8666030.42246  24688496.771    24688497.4894   24688504.3144
     -3267.832       -2546.363
  -2900835.336 8  -1500322.25245  25144747.527    25144749.0814   25144755.9924
      3305.951        2576.066
   -158325.294 9   -115743.85348  21220367.439    21220368.0374   21220374.4314
     -1208.308        -941.539
 -10814275.995 9  -8405380.654 9  20834278.542    20834279.287    20834285.215
     -1196.181        -932.089
 96 10  7 17 48  0.0000000  0 10  1  9  6 22 23  3 26 31 17 28       0.000671224
 -15053646.158 9 -11446442.48047  22901302.232    22901302.6254   22901310.2544
      3393.294        2644.125
  -5757712.037 8  -4472889.02646  24533118.759    24533119.8314   24533127.0244
      1751.202        1364.573
  22139776.544 8  17212809.33545  24704384.465    24704386.8494   24704395.2844
     -3826.029       -2981.321
   6902011.202 9   5384273.78346  25281716.090    25281716.6134   25281724.7684
     -2165.412       -1687.334
  -4377018.024 9  -3396746.99548  21125509.208    21125509.8294   21125515.8534
      -948.675        -739.227
 -18884921.356 9 -14700654.73848  22033230.118    22033231.1644   22033237.5984
      1824.311        1421.541
  11212015.536 9   8742505.54146  24707173.089    24707173.6254   24707180.3684
     -3274.610       -2551.644
  -2999908.098 8  -1577521.76945  25125894.999    25125895.9204   25125902.9514
      3299.258        2570.850
   -121929.677 9    -87383.65148  21227293.327    21227293.9394   21227300.2944
     -1217.728        -948.879
 -10778108.652 9  -8377198.329 9  20841160.862    20841161.713    20841167.641
     -1214.688        -946.510
 96 10  7 17 48 30.0000000  0 10  1  9  6 22 23  3 26 31 17 28       0.000670471
 -15155328.659 9 -11525675.56347  22881952.385    22881953.0514   22881960.7024
      3385.681        2638.193
  -5810076.485 8  -4513692.46346  24523153.731    24523155.0674   24523162.3744
      1740.218        1356.014
  22254592.288 8  17302276.03445  24726233.785    24726235.6104   24726244.1654
     -3828.038       -2982.887
   6967015.928 9   5434926.77245  25294086.029    25294086.6924   25294094.9444
     -2167.767       -1689.169
  -4348451.154 9  -3374487.10148  21130945.329    21130945.9424   21130951.9474
      -955.715        -744.713
 -18939394.763 9 -14743101.54948  22022864.279    22022865.2044   22022871.5964
      1807.428        1408.385
  11310367.783 8   8819143.57346  24725889.150    24725889.4324   24725896.2864
     -3281.632       -2557.116
  -3098771.518 8  -1654558.17545  25107081.901    25107082.9084   25107089.9694
      3291.927        2565.138
    -85248.086 9    -58800.61248  21234273.625    21234274.2424   21234280.5674
     -1227.391        -956.409
 -10741374.921 9  -8348574.658 9  20848151.048    20848151.901    20848157.848
     -1233.981        -961.544
 96 10  7 17 49  0.0000000  0 10  1  9  6 22 23  3 26 31 17 28       0.000669757
 -15256777.818 9 -11604726.82147  22862647.317    22862647.9084   22862655.5454
      3377.983        2632.195
  -5862124.456 8  -4554249.28746  24513249.455    24513250.7854   24513258.1474
      1730.157        1348.174
  22369452.319 8  17391777.25445  24748091.976    24748092.9524   24748101.4824
     -3828.851       -2983.520
   7032065.540 9   5485614.72345  25306464.547    25306465.3224   25306473.4904
     -2168.468       -1689.715
  -4319671.760 9  -3352061.60648  21136421.907    21136422.5254   21136428.5114
      -962.307        -749.850
 -18993359.743 9 -14785152.17848  22012595.012    22012595.9764   22012602.3954
      1790.626        1395.293
  11408910.375 8   8895929.97246  24744640.585    24744641.5404   24744648.4294
     -3287.194       -2561.450
  -3197420.018 8  -1731427.10146  25088309.926    25088310.6834   25088317.8354
      3285.025        2559.760
    -48282.580 9    -29996.33848  21241307.940    21241308.5234   21241314.9164
     -1236.719        -963.677
 -10704069.172 9  -8319505.257 9  20855250.005    20855250.947    20855256.916
     -1252.615        -976.064
 96 10  7 17 49 30.0000000  0 10  1  9  6 22 23  3 26 31 17 28       0.000669039
 -15357982.739 9 -11683587.77247  22843388.684    22843389.2634   22843396.8494
      3369.177        2625.333
  -5913880.442 8  -4594578.58646  24503400.789    24503401.9774   24503409.1814
      1720.334        1340.520
  22484346.211 8  17481304.86745  24769955.776    24769956.6764   24769965.3094
     -3830.699       -2984.960
   7097135.456 8   5536318.48746  25318846.649    25318847.6244   25318856.0384
     -2169.547       -1690.556
  -4290696.823 9  -3329483.74248  21141935.694    21141936.2974   21141942.2974
      -969.345        -755.334
 -19046820.859 9 -14826810.18548  22002421.771    22002422.6654   22002429.1224
      1773.511        1381.957
  11507618.732 8   8972845.51245  24763424.581    24763425.0434   24763431.9404
     -3293.223       -2566.148
  -3295848.875 8  -1808124.88345  25069579.536    25069580.2134   25069587.5674
      3276.850        2553.390
    -11024.165 9      -963.82148  21248397.931    21248398.5664   21248404.9864
     -1247.362        -971.970
 -10666200.385 9  -8289997.128 9  20862456.113    20862457.164    20862463.127
     -1271.939        -991.121
 96 10  7 17 50  0.0000000  0 10  1  9  6 22 23  3 26 31 17 28       0.000668299
 -15458943.337 9 -11762258.33147  22824176.284    22824177.1004   22824184.6674
      3361.481        2619.336
  -5965368.331 9  -4634698.97646  24493602.805    24493604.0234   24493611.3584
      1711.759        1333.838
  22599276.890 8  17570861.09345  24791825.677    24791827.3094   24791836.1564
     -3831.479       -2985.568
   7162216.629 9   5587031.02645  25331231.168    25331232.2714   25331240.6624
     -2169.596       -1690.594
  -4261526.876 9  -3306753.91648  21147486.526    21147487.1174   21147493.1674
      -975.525        -760.149
 -19099782.588 9 -14868079.06648  21992343.251    21992344.3784   21992350.8664
      1757.034        1369.117
  11606496.778 8   9049893.29345  24782240.772    24782241.0144   24782247.7004
     -3298.940       -2570.602
  -3394044.456 8  -1884640.88345  25050893.488    25050894.3324   25050901.6524
      3269.305        2547.510
     26550.639 9     28315.23448  21255548.179    21255548.8144   21255555.2674
     -1257.740        -980.057
 -10627765.587 9  -8260047.951 9  20869770.059    20869771.110    20869777.031
     -1290.623       -1005.680
 96 10  7 17 50 30.0000000  0 10  1  9  6 22 23  3 26 31 17 28       0.000667532
 -15559684.739 9 -11840758.08947  22805005.865    22805006.6844   22805014.2014
      3354.477        2613.878
  -6016587.178 9  -4674609.72346  24483856.099    24483857.4224   24483864.6934
      1702.797        1326.855
  22714212.188 8  17660420.95145  24813697.674    24813699.0234   24813707.7094
     -3830.868       -2985.092
   7227300.929 9   5637745.99446  25343617.078    25343617.4424   25343625.9244
     -2169.327       -1690.385
  -4232171.214 9  -3283879.38348  21153072.683    21153073.2964   21153079.3474
      -981.555        -764.848
 -19152251.690 9 -14908964.07848  21982358.791    21982359.8264   21982366.2914
      1740.893        1356.540
  11705542.432 8   9127071.66145  24801088.536    24801088.8164   24801095.5994
     -3304.219       -2574.716
  -3492016.582 8  -1960982.75445  25032249.544    25032250.9244   25032258.2474
      3262.109        2541.903
     64430.493 9     57831.99548  21262756.504    21262757.1224   21262763.5814
     -1267.575        -987.721
 -10588776.740 9  -8229667.047 9  20877189.536    20877190.465    20877196.377
     -1308.631       -1019.712
 96 10  7 17 51  0.0000000  0 10  1  9  6 22 23  3 26 31 17 28       0.000666741
 -15660200.090 9 -11919081.71147  22785878.600    22785879.2544   22785886.6994
      3346.524        2607.681
  -6067526.292 9  -4714302.49346  24474162.956    24474163.9494   24474171.3724
      1693.045        1319.256
  22829137.295 8  17749972.86045  24835567.782    24835568.6774   24835577.4994
     -3830.871       -2985.094
   7292386.754 8   5688462.14545  25356002.791    25356003.1004   25356011.3354
     -2169.924       -1690.850
  -4202630.509 9  -3260860.65948  21158694.127    21158694.7344   21158700.7704
      -987.789        -769.706
 -19204229.580 9 -14949466.33048  21972467.785    21972468.7414   21972475.1994
      1724.148        1343.492
  11804752.736 8   9204378.31345  24819967.652    24819967.8294   24819974.7174
     -3310.135       -2579.326
  -3589766.928 8  -2037151.82345  25013648.461    25013649.6924   25013656.7634
      3254.257        2535.785
    102618.886 9     87589.16748  21270023.513    21270024.1644   21270030.6174
     -1278.556        -996.277
 -10549243.332 9  -8198861.812 9  20884712.478    20884713.418    20884719.333
     -1327.031       -1034.050
 96 10  7 17 51 30.0000000  0 10  1  9  6 22 23  3 26 31 17 28       0.000665944
 -15760474.298 9 -11997217.42147  22766797.025    22766797.7004   22766805.0814
      3338.844        2601.697
  -6118154.258 9  -4753752.84046  24464529.028    24464529.8834   24464537.0384
      1682.570        1311.094
  22944074.304 8  17839534.03345  24857439.549    24857440.4634   24857449.3834
     -3831.137       -2985.302
   7357511.543 8   5739208.67345  25368395.816    25368395.8024   25368404.2054
     -2171.374       -1691.980
  -4172894.512 9  -3237689.76048  21164352.739    21164353.3054   21164359.3244
      -994.340        -774.810
 -19255691.166 9 -14989566.27248  21962674.976    21962675.9544   21962682.4094
      1706.810        1329.982
  11904164.250 8   9281841.76946  24838885.095    24838885.2844   24838892.2444
     -3317.103       -2584.756
  -3687263.002 8  -2113122.73345  24995096.264    24995096.9564   24995103.8674
      3245.879        2529.256
    141152.594 9    117615.41848  21277356.266    21277356.8864   21277363.3314
     -1289.878       -1005.100
 -10509144.519 9  -8167616.003 9  20892343.000    20892343.980    20892349.874
     -1345.855       -1048.718
 96 10  7 17 52  0.0000000  0 10  1  9  6 22 23  3 26 31 17 28       0.000665144
 -15860520.305 9 -12075175.31847  22747758.748    22747759.5454   22747766.9094
      3330.305        2595.043
  -6168457.415 9  -4792950.06946  24454956.882    24454957.4424   24454964.6684
      1670.164        1301.426
  23059011.231 8  17929095.17445  24879310.784    24879312.3164   24879321.2094
     -3831.831       -2985.842
   7422676.088 8   5789986.16245  25380796.501    25380796.0384   25380804.6434
     -2173.381       -1693.544
  -4142955.581 9  -3214360.73448  21170049.866    21170050.4934   21170056.5024
     -1002.109        -780.864
 -19306624.444 9 -15029254.54148  21952982.526    21952983.6534   21952990.1334
      1688.244        1315.515
  12003783.350 9   9359466.99846  24857841.380    24857842.1994   24857849.0904
     -3324.734       -2590.702
  -3784507.445 8  -2188897.58145  24976591.569    24976591.9874   24976598.8594
      3236.554        2521.990
    180014.014 9    147897.02848  21284751.395    21284751.9764   21284758.4454
     -1301.208       -1013.928
 -10468482.440 9  -8135931.285 9  20900080.780    20900081.722    20900087.607
     -1365.459       -1063.994
 96 10  7 17 52 30.0000000  0 10  1  9  6 22 23  3 26 31 17 28       0.000664355
 -15960325.637 9 -12152945.66947  22728766.373    22728767.2304   22728774.5504
      3322.841        2589.227
  -6218407.100 9  -4831871.86846  24445451.786    24445452.2904   24445459.5764
      1659.500        1293.117
  23173948.185 8  18018656.31645  24901183.126    24901184.1844   24901193.2904
     -3831.075       -2985.253
   7487872.368 8   5840788.38046  25393203.193    25393202.4794   25393211.3834
     -2173.428       -1693.580
  -4112797.927 9  -3190861.27148  21175788.716    21175789.2684   21175795.3064
     -1008.890        -786.148
 -19357016.141 9 -15068520.79948  21943393.350    21943394.4224   21943400.8924
      1670.831        1301.946
  12103605.921 8   9437250.77346  24876836.775    24876837.9534   24876844.8624
     -3330.366       -2595.090
  -3881503.635 8  -2264478.97445  24958133.809    24958134.0314   24958141.2404
      3229.184        2516.247
    219189.540 9    178423.39048  21292206.225    21292206.8454   21292213.3194
     -1311.069       -1021.612
 -10427255.037 9  -8103806.052 9  20907925.982    20907927.013    20907932.936
     -1383.484       -1078.039
 96 10  7 17 53  0.0000000  0 10  1  9  6 22 23  3 26 31 17 28       0.000663567
 -16059876.596 9 -12230517.80847  22709822.794    22709823.2774   22709830.5964
      3314.183        2582.480
  -6268026.645 9  -4870536.41246  24436009.629    24436010.0414   24436017.3054
      1648.702        1284.703
  23288894.391 8  18108224.65045  24923057.755    24923057.6294   24923066.9994
     -3831.632       -2985.687
   7553086.901 9   5891604.80846  25405613.097    25405612.6334   25405621.1684
     -2173.936       -1693.976
  -4082413.132 9  -3167184.82048  21181570.715    21181571.2844   21181577.3364
     -1016.426        -792.020
 -19406863.139 9 -15107362.61548  21933907.866    21933908.9064   21933915.3094
      1652.579        1287.724
  12203616.681 8   9515181.19346  24895868.748    24895869.4924   24895876.2564
     -3336.655       -2599.991
  -3978247.328 8  -2339863.63545  24939723.832    24939724.0804   24939731.4074
      3220.646        2509.594
    258692.032 9    209204.53948  21299723.340    21299723.9524   21299730.4204
     -1322.186       -1030.275
 -10385463.148 9  -8071240.963 9  20915878.671    20915879.748    20915885.661
     -1402.386       -1092.768
 96 10  7 17 53 30.0000000  0 10  1  9  6 22 23  3 26 31 17 28       0.000662769
 -16159172.747 9 -12307891.39647  22690927.222    22690927.7434   22690935.1204
      3305.940        2576.057
  -6317330.302 9  -4908954.82446  24426627.271    24426627.6974   24426634.9304
      1638.621        1276.848
  23403849.907 8  18197800.23145  24944933.631    24944932.9904   24944942.3234
     -3831.731       -2985.764
   7618307.519 9   5942426.00646  25418024.006    25418023.7654   25418032.2724
     -2173.681       -1693.777
  -4051807.190 9  -3143336.04048  21187394.815    21187395.4124   21187401.4654
     -1023.485        -797.521
 -19456168.710 9 -15145782.53448  21924525.367    21924526.3634   21924532.7734
      1634.874        1273.928
  12303805.774 8   9593250.57246  24914934.356    24914934.9504   24914941.6784
     -3342.028       -2604.178
  -4074743.778 8  -2415055.62145  24921360.774    24921361.3264   24921368.7264
      3212.905        2503.562
    298515.282 9    240235.62748  21307301.466    21307302.1174   21307308.5614
     -1332.175       -1038.058
 -10343110.188 9  -8038238.673 9  20923938.235    20923939.271    20923945.174
     -1420.732       -1107.064
 96 10  7 17 54  0.0000000  0 10  1  9  6 22 23  3 26 31 17 28       0.000661958
 -16258207.606 9 -12385061.37647  22672081.303    22672081.9794   22672089.3454
      3296.534        2568.728
  -6366329.630 9  -4947136.10546  24417303.030    24417303.5484   24417310.6064
      1628.028        1268.593
  23518823.523 8  18287389.94945  24966812.266    24966811.8984   24966821.0804
     -3833.070       -2986.808
   7683527.668 9   5993246.82146  25430434.510    25430434.7314   25430443.1664
     -2174.124       -1694.123
  -4020990.971 9  -3119323.41148  21193258.992    21193259.5834   21193265.6234
     -1030.717        -803.156
 -19504945.629 9 -15183790.51748  21915243.611    21915244.4394   21915250.8174
      1617.121        1260.094
  12404156.415 8   9671445.82645  24934031.172    24934031.2304   24934037.8584
     -3347.824       -2608.694
  -4171009.075 8  -2490067.52245  24903042.289    24903042.6794   24903049.8944
      3204.994        2497.398
    338640.901 9    271502.32848  21314937.127    21314937.7864   21314944.2174
     -1342.853       -1046.379
 -10300204.513 9  -8004805.696 9  20932102.901    20932103.964    20932109.877
     -1439.520       -1121.704
 96 10  7 17 54 30.0000000  0 10  1  9  6 22 23  3 26 31 17 28       0.000661129
 -16356970.150 9 -12462019.16447  22653287.412    22653288.0774   22653295.3584
      3287.266        2561.506
  -6415033.598 9  -4985087.21146  24408034.814    24408035.3934   24408042.6194
      1618.580        1261.231
  23633834.857 8  18377009.01945  24988698.265    24988697.7864   24988707.2784
     -3834.485       -2987.910
   7748751.140 9   6044070.22846  25442845.456    25442846.4404   25442854.8444
     -2174.591       -1694.486
  -3989975.192 9  -3095155.27548  21199161.129    21199161.6884   21199167.7144
     -1037.274        -808.265
 -19553197.582 9 -15221389.44648  21906061.396    21906062.4694   21906068.7624
      1599.350        1246.247
  12504666.545 8   9749765.33846  24953157.304    24953157.7164   24953164.4644
     -3353.213       -2612.893
  -4267047.925 8  -2564902.94545  24884766.773    24884767.2704   24884774.3214
      3197.375        2491.461
    379089.982 9    303021.07448  21322634.454    21322635.0154   21322641.4344
     -1354.184       -1055.208
 -10256746.311 9  -7970942.176 9  20940372.725    20940373.832    20940379.729
     -1458.040       -1136.135
 96 10  7 17 55  0.0000000  0 10  1  9  6 22 23  3 26 31 17 28       0.000660293
 -16455449.689 9 -12538756.42947  22634547.398    22634548.0664   22634555.2374
      3278.254        2554.484
  -6463442.605 9  -5022808.51446  24398822.862    24398823.6014   24398830.5544
      1608.586        1253.444
  23748902.912 8  18466672.26945  25010594.518    25010594.6594   25010604.2884
     -3836.220       -2989.262
   7813999.759 9   6094913.22446  25455262.199    25455262.8614   25455271.2764
     -2175.217       -1694.974
  -3958771.209 9  -3070840.49648  21205099.121    21205099.6484   21205105.6364
     -1042.796        -812.568
 -19600912.198 9 -15258569.65948  21896981.522    21896982.6684   21896989.0154
      1581.699        1232.493
  12605352.790 8   9828222.11146  24972316.732    24972317.5734   24972324.4374
     -3359.091       -2617.474
  -4362855.327 8  -2639558.01845  24866535.494    24866535.5904   24866542.9614
      3189.950        2485.675
    419883.651 9    334808.32848  21330397.130    21330397.8244   21330404.2624
     -1365.146       -1063.750
 -10212726.407 9  -7936640.973 9  20948749.551    20948750.559    20948756.462
     -1476.486       -1150.509
 96 10  7 17 55 30.0000000  0 10  1  9  6 22 23  3 26 31 17 28       0.000659464
 -16553661.035 9 -12615284.71447  22615858.596    22615859.0734   22615866.1864
      3269.432        2547.609
  -6511539.829 9  -5060286.83246  24389670.242    24389670.9924   24389677.8284
      1598.020        1245.210
  23864020.409 8  18556374.08045  25032501.729    25032500.9554   25032510.4984
     -3838.050       -2990.688
   7879283.925 9   6145783.94446  25467685.622    25467685.9644   25467694.5154
     -2176.802       -1696.209
  -3927401.993 9  -3046396.96148  21211068.467    21211069.0284   21211074.9804
     -1048.278        -816.840
 -19648085.576 9 -15295328.13648  21888004.793    21888005.8924   21888012.2544
      1563.446        1218.270
  12706221.392 8   9906820.95546  24991511.642    24991512.2084   24991519.0664
     -3365.274       -2622.291
  -4458432.633 8  -2714033.76845  24848346.738    24848347.7284   24848355.1094
      3181.909        2479.410
    461001.094 9    366847.87148  21338221.530    21338222.2284   21338228.6754
     -1375.811       -1072.061
 -10168147.962 9  -7901904.539 9  20957232.493    20957233.556    20957239.475
     -1495.153       -1165.054
 96 10  7 17 56  0.0000000  0 10  1  9  6 22 23  3 26 31 17 28       0.000658639
 -16651617.368 9 -12691614.28347  22597218.231    22597218.6144   22597225.6574
      3261.020        2541.055
  -6559324.003 9  -5097521.20646  24380577.281    24380578.0414   24380584.9774
      1587.467        1236.987
  23979174.332 8  18646104.23145  25054414.849    25054414.1114   25054423.6924
     -3838.653       -2991.158
   7944597.594 9   6196677.65146  25480114.129    25480114.6884   25480123.3404
     -2177.474       -1696.733
  -3895882.832 9  -3021836.58448  21217066.407    21217066.9284   21217072.8944
     -1053.176        -820.657
 -19694723.872 9 -15331669.66748  21879129.774    21879130.9374   21879137.2514
      1545.641        1204.396
  12807263.539 8   9985555.05746  25010739.574    25010739.8934   25010746.8104
     -3370.835       -2626.625
  -4553779.581 8  -2788330.01045  24830203.092    24830203.4644   24830211.1424
      3174.244        2473.437
    502431.032 9    399130.92048  21346105.401    21346106.1014   21346112.5444
     -1386.289       -1080.225
 -10123024.497 9  -7866743.414 9  20965819.191    20965820.265    20965826.189
     -1513.140       -1179.070
 96 10  7 17 56 30.0000000  0 10  1  9  6 22 23  3 26 31 17 28       0.000657827
 -16749309.905 9 -12767738.30247  22578627.738    22578628.3204   22578635.3014
      3252.206        2534.186
  -6606772.097 9  -5134493.73546  24371548.221    24371548.9654   24371556.1354
      1576.140        1228.161
  24094349.113 8  18735850.65545  25076331.615    25076331.2584   25076340.8564
     -3839.022       -2991.446
   8009941.535 9   6247594.94446  25492549.091    25492549.3624   25492558.0244
     -2178.373       -1697.434
  -3864198.689 9  -2997147.64948  21223095.688    21223096.2384   21223102.2184
     -1058.668        -824.936
 -19740798.674 9 -15367572.10448  21870361.843    21870363.1314   21870369.5014
      1526.579        1189.542
  12908489.432 8  10064432.31446  25030001.971    25030002.5294   25030009.4134
     -3376.962       -2631.399
  -4648871.734 8  -2862427.76445  24812107.679    24812108.0534   24812115.6964
      3165.348        2466.505
    544190.863 9    431671.02848  21354052.068    21354052.7454   21354059.1854
     -1397.146       -1088.685
 -10077344.479 9  -7831148.613 9  20974511.902    20974512.890    20974518.808
     -1531.699       -1193.532
 96 10  7 17 57  0.0000000  0 10  1  9  6 22 23  3 26 31 17 28       0.000657033
 -16846748.819 9 -12843664.68247  22560085.777    22560086.2834   22560093.2214
      3243.684        2527.546
  -6653879.237 9  -5171200.57646  24362584.190    24362584.7744   24362591.6494
      1564.234        1218.884
  24209507.538 8  18825584.31945  25098245.393    25098245.3724   25098255.0384
     -3838.230       -2990.829
   8075301.973 9   6298525.09046  25504987.037    25504987.0744   25504995.7874
     -2179.070       -1697.977
  -3832361.828 9  -2972339.71848  21229154.072    21229154.6294   21229160.5884
     -1063.968        -829.066
 -19786320.983 9 -15403044.03048  21861699.351    21861700.5444   21861706.9124
      1508.160        1175.190
  13009879.524 8  10143437.51046  25049296.215    25049296.4054   25049303.2464
     -3382.366       -2635.610
  -4743693.109 8  -2936314.48845  24794063.860    24794064.0134   24794071.8114
      3155.655        2458.952
    586249.711 9    464444.13348  21362055.645    21362056.3084   21362062.7474
     -1406.802       -1096.209
 -10031122.487 9  -7795131.496 9  20983307.825    20983308.665    20983314.564
     -1549.799       -1207.636
 96 10  7 17 57 30.0000000  0 10  1  9  6 22 23  3 26 31 17 28       0.000656213
 -16943935.906 9 -12919394.84147  22541591.794    22541592.1514   22541599.1014
      3235.245        2520.970
  -6700631.048 9  -5207630.52046  24353687.436    24353688.0534   24353695.1584
      1552.468        1209.715
  24324630.490 8  18915290.35545  25120152.670    25120152.8034   25120162.3214
     -3836.836       -2989.742
   8140683.640 9   6349471.77746  25517428.621    25517428.8084   25517437.6524
     -2179.646       -1698.425
  -3800350.615 9  -2947395.92148  21235245.563    21235246.1334   21235252.1404
     -1070.227        -833.943
 -19831291.216 9 -15438085.77248  21853141.826    21853142.9704   21853149.3424
      1489.979        1161.023
  13111421.116 8  10222560.77146  25068618.611    25068619.1214   25068626.1164
     -3387.136       -2639.327
  -4838214.124 8  -3009967.15845  24776076.368    24776077.0254   24776084.8164
      3145.411        2450.970
    628599.573 9    497444.00748  21370114.674    21370115.2374   21370121.6954
     -1416.606       -1103.849
  -9984360.912 9  -7758693.924 9  20992206.327    20992207.091    20992213.003
     -1567.670       -1221.561
 96 10  7 17 58  0.0000000  0 10  1  9  6 22 23  3 26 31 17 28       0.000655421
 -17040857.626 9 -12994918.22547  22523148.194    22523148.4974   22523155.5034
      3226.147        2513.881
  -6747019.781 8  -5243777.63246  24344859.823    24344860.5584   24344867.3414
      1540.071        1200.055
  24439708.391 8  19004961.29545  25142051.575    25142051.3124   25142061.0634
     -3835.035       -2988.339
   8206081.427 9   6400431.04846  25529873.762    25529873.7644   25529882.4364
     -2180.293       -1698.930
  -3768139.723 9  -2922296.53548  21241375.040    21241375.6504   21241381.6664
     -1077.194        -839.372
 -19875717.722 9 -15472703.82948  21844687.684    21844688.8424   21844695.2334
      1471.744        1146.813
  13213109.985 8  10301798.77546  25087969.965    25087969.8784   25087976.9194
     -3391.945       -2643.074
  -4932430.656 8  -3083382.58145  24758147.658    24758148.1284   24758155.8854
      3135.604        2443.328
    671253.337 9    530680.68848  21378231.434    21378231.9944   21378238.4664
     -1427.072       -1112.004
  -9937059.840 9  -7721835.966 9  21001207.394    21001208.208    21001214.101
     -1585.801       -1235.689
 96 10  7 17 58 30.0000000  0 10  1  9  6 22 23  3 26 31 17 28       0.000654559
 -17137512.223 9 -13070233.46547  22504755.034    22504755.6734   22504762.7264
      3217.029        2506.776
  -6793041.075 9  -5279638.30946  24336102.057    24336102.9374   24336110.0294
      1527.738        1190.445
  24554727.758 8  19094586.61145  25163939.933    25163938.8234   25163948.7414
     -3833.302       -2986.988
   8271495.777 9   6451403.22146  25542321.787    25542321.8374   25542330.4824
     -2180.885       -1699.391
  -3735725.038 9  -2897038.34448  21247543.391    21247544.0034   21247549.9954
     -1083.910        -844.605
 -19919603.703 9 -15506900.69248  21836336.612    21836337.6584   21836344.0164
      1453.816        1132.844
  13314934.490 8  10381142.48946  25107346.075    25107346.5294   25107353.5174
     -3396.472       -2646.602
  -5026349.412 8  -3156565.97945  24740275.442    24740275.9884   24740283.8884
      3125.563        2435.504
    714215.175 9    564157.42548  21386406.742    21386407.3534   21386413.8354
     -1437.363       -1120.023
  -9889218.277 9  -7684556.844 9  21010311.434    21010312.181    21010318.048
     -1603.863       -1249.763
 96 10  7 17 59  0.0000000  0 10  1  9  6 22 23  3 26 31 17 28       0.000653754
 -17233884.916 9 -13145329.04047  22486416.016    22486416.5314   22486423.5734
      3207.763        2499.555
  -6838687.384 9  -5315206.84046  24327416.034    24327416.7624   24327423.7264
      1515.465        1180.882
  24669705.078 8  19184179.17645  25185819.284    25185818.3594   25185828.1934
     -3832.007       -2985.979
   8336930.900 9   6502391.57546  25554773.435    25554773.7944   25554782.4994
     -2181.342       -1699.747
  -3703103.905 9  -2871619.29048  21253751.016    21253751.6314   21253757.6114
     -1090.790        -849.966
 -19962956.387 9 -15540682.00748  21828086.957    21828087.9104   21828094.2764
      1436.209        1119.124
  13416894.795 8  10460592.01546  25126748.878    25126749.0574   25126755.9014
     -3400.861       -2650.022
  -5119976.357 8  -3229521.96745  24722458.691    24722458.7644   24722467.1224
      3116.419        2428.378
    757491.138 9    597878.93448  21394641.855    21394642.5024   21394648.9794
     -1447.812       -1128.165
  -9840833.417 9  -7646854.378 9  21019518.630    21019519.530    21019525.395
     -1621.822       -1263.757
 96 10  7 17 59 30.0000000  0 10  1  9  6 22 23  3 26 31 17 28       0.000652935
 -17329973.226 9 -13220203.01147  22468131.105    22468131.5104   22468138.5504
      3198.436        2492.288
  -6883969.753 9  -5350491.77046  24318798.656    24318799.6434   24318806.7144
      1503.894        1171.865
  24784649.370 8  19273746.01045  25207692.240    25207691.9014   25207701.7594
     -3830.650       -2984.922
   8402366.949 9   6553380.64046  25567225.404    25567225.8874   25567234.6474
     -2180.438       -1699.043
  -3670276.733 9  -2846039.68648  21259997.799    21259998.4314   21260004.4354
     -1097.160        -854.930
 -20005771.490 9 -15574044.42748  21819939.498    21819940.4394   21819946.8184
      1418.611        1105.411
  13518986.942 9  10540144.28346  25146176.042    25146176.6294   25146183.4704
     -3404.937       -2653.198
  -5213347.883 8  -3302278.94445  24704690.806    24704690.6284   24704699.2314
      3108.810        2422.449
    801093.164 9    631854.52248  21402939.103    21402939.6984   21402946.1654
     -1458.530       -1136.517
  -9791906.721 9  -7608729.698 9  21028828.987    21028830.012    21028835.849
     -1639.535       -1277.560
 96 10  7 18  0  0.0000000  0  9  1  9  6 23  3 26 31 17 28          0.000652091
 -17425767.887 9 -13294848.17447  22449901.910    22449902.3714   22449909.3204
      3188.049        2484.194
  -6928913.555 9  -5385512.90146  24310246.146    24310247.1514   24310254.4084
      1492.562        1163.035
  24899558.747 8  19363285.64645  25229558.591    25229558.3814   25229568.7014
     -3830.126       -2984.514
  -3637270.586 9  -2820320.61948  21266278.685    21266279.2684   21266285.2884
     -1103.045        -859.516
 -20048056.793 9 -15606994.01548  21811892.826    21811893.8544   21811900.1694
      1400.333        1091.168
  13621206.216 8  10619795.61046  25165627.363    25165628.4604   25165635.2464
     -3409.394       -2656.671
  -5306495.337 8  -3374861.39945  24686964.850    24686965.5884   24686973.5084
      3101.084        2416.429
    845019.410 9    666082.74848  21411297.959    21411298.6194   21411305.0614
     -1469.794       -1145.294
  -9742448.234 9  -7570190.636 9  21038240.759    21038241.678    21038247.511
     -1657.588       -1291.627
 96 10  7 18  0 30.0000000  0  9  1  9  6 23  3 26 31 17 28          0.000651231
 -17521259.546 9 -13369257.22647  22431730.344    22431730.9274   22431737.7944
      3177.972        2476.342
  -6973531.662 9  -5420280.23946  24301755.755    24301756.6354   24301763.6914
      1481.984        1154.793
  25014460.966 8  19452819.75145  25251423.114    25251423.6234   25251433.9274
     -3830.210       -2984.579
  -3604100.936 9  -2794474.14648  21272590.725    21272591.2434   21272597.2594
     -1108.327        -863.631
 -20089791.247 9 -15639514.36948  21803951.066    21803952.0554   21803958.3484
      1381.828        1076.749
  13723550.159 9  10699544.08646  25185103.072    25185103.8994   25185110.7294
     -3413.717       -2660.039
  -5399404.028 8  -3447257.71545  24669284.887    24669285.7914   24669293.5794
      3092.587        2409.808
    889277.662 9    700569.67548  21419720.184    21419720.7204   21419727.1464
     -1480.749       -1153.830
  -9692453.100 9  -7531233.408 9  21047754.542    21047755.452    21047761.314
     -1675.420       -1305.522
 96 10  7 18  1  0.0000000  0  8  1  9 23  3 26 31 17 28             0.000650352
 -17616446.554 9 -13443428.89547  22413617.045    22413617.4634   22413624.2834
      3168.034        2468.598
  -7017837.099 9  -5454803.92846  24293324.427    24293325.3864   24293332.5134
      1471.854        1146.899
  -3570767.422 9  -2768499.98748  21278933.884    21278934.4044   21278940.4214
     -1113.727        -867.839
 -20130963.269 9 -15671596.46448  21796116.320    21796117.2764   21796123.5844
      1363.118        1062.170
  13826028.494 9  10779397.28446  25204603.966    25204604.9624   25204611.8184
     -3418.030       -2663.400
  -5492058.047 8  -3519455.59545  24651652.629    24651654.1704   24651662.2394
      3084.283        2403.337
    933857.958 9    735307.54448  21428203.536    21428204.0754   21428210.5114
     -1491.013       -1161.828
  -9641926.846 9  -7491862.322 9  21057369.397    21057370.272    21057376.140
     -1692.795       -1319.061
 96 10  7 18  1 30.0000000  0  8  1  9 23  3 26 31 17 28             0.000649457
 -17711337.562 9 -13517369.90947  22395559.930    22395560.3174   22395567.1574
      3158.082        2460.843
  -7061834.684 9  -5489087.74946  24284951.767    24284952.9984   24284960.4514
      1461.279        1138.659
  -3537274.604 9  -2742401.69448  21285307.380    21285307.9024   21285313.9064
     -1119.112        -872.035
 -20171571.043 9 -15703238.88548  21788388.899    21788389.9134   21788396.1744
      1344.262        1047.477
  13928635.281 9  10859350.58746  25224129.171    25224130.4844   25224137.3214
     -3422.372       -2666.783
  -5584441.771 8  -3591442.89045  24634072.982    24634074.0314   24634082.0474
      3074.514        2395.725
    978744.054 9    770283.70648  21436745.015    21436745.6144   21436752.0854
     -1501.304       -1169.847
  -9590880.177 9  -7452085.717 9  21067083.144    21067084.122    21067090.024
     -1710.232       -1332.648
 96 10  7 18  2  0.0000000  0  8  1  9 23  3 26 31 17 28             0.000648558
 -17805923.679 9 -13591073.35747  22377560.751    22377561.1664   22377568.0014
      3147.948        2452.946
  -7105504.847 9  -5523116.43846  24276641.192    24276642.6584   24276650.2894
      1449.980        1129.855
  -3503609.837 9  -2716169.41148  21291713.484    21291714.0624   21291720.0814
     -1125.129        -876.724
 -20211611.679 9 -15734439.37748  21780769.425    21780770.4504   21780776.6744
      1325.153        1032.587
  14031376.682 9  10939408.77346  25243680.008    25243681.4764   25243688.3474
     -3426.869       -2670.287
  -5676516.669 8  -3663189.53545  24616552.159    24616552.9434   24616560.6594
      3063.760        2387.345
   1023944.662 9    805504.94148  21445346.354    21445346.9924   21445353.4874
     -1511.976       -1178.163
  -9539305.942 9  -7411898.020 9  21076897.472    21076898.376    21076904.288
     -1727.941       -1346.447
 96 10  7 18  2 30.0000000  0  8  1  9 23  3 26 31 17 28             0.000647665
 -17900215.308 9 -13664547.32748  22359617.532    22359618.0484   22359624.8624
      3137.954        2445.159
  -7148818.390 9  -5556867.23146  24268398.857    24268400.5804   24268407.9014
      1437.346        1120.010
  -3469759.578 9  -2689792.58948  21298154.971    21298155.5434   21298161.5614
     -1131.720        -881.860
 -20251079.747 9 -15765193.71448  21773258.902    21773259.9064   21773266.1674
      1306.025        1017.682
  14134251.376 9  11019570.83946  25263256.021    25263257.8824   25263264.8014
     -3431.766       -2674.103
  -5768257.300 8  -3734675.69445  24599095.113    24599095.1584   24599103.0864
      3052.156        2378.303
   1069462.654 9    840973.49448  21454008.150    21454008.7804   21454015.2894
     -1522.606       -1186.446
  -9487200.978 9  -7371296.766 9  21086812.692    21086813.604    21086819.547
     -1745.867       -1360.416
